     2.11           OBSERVATION DATA    G (GPS)             RINEX VERSION / TYPE
teqc 2010Oct21 OPUS Account 20111028 20:37:17UTC            PGM / RUN BY / DATE
E 1528                                                      MARKER NAME
3089                                                        MARKER NUMBER
CSMIDDLETON NGS                                             OBSERVER / AGENCY
0220390627 TRIMBLE R7 2.32                                  REC # / TYPE / VERS
60124849 TRM41249.00 NONE                                   ANT # / TYPE
  -696892.6241 -5592565.9827  2976279.2050                  APPROX POSITION XYZ
        2.0010        0.0000        0.0000                  ANTENNA: DELTA H/E/N
     1     1                                                WAVELENGTH FACT L1/2
     5    L1    L2    C1    P1    P2                        # / TYPES OF OBSERV
    15                                                      LEAP SECONDS
  2011     8    27     0     0   30.0000000     GPS         TIME OF FIRST OBS
                                                            END OF HEADER
 11  8 27  0  0 30.0000000  0  8G17G10G09G12G04G05G02G25
 -38764255.69157 -30171469.98454  23379691.9304                   23379693.7974
 -32699846.64558 -25454159.47356  20934272.9064                   20934272.4534
 -16815050.10257 -11254881.42653  23990838.3364                   23990842.8014
 -25801514.37158 -20072119.82456  21362416.8134                   21362415.6914
 -36473073.25458 -28384131.69955  22005516.0784                   22005516.4024
 -22056950.84058 -17172265.55156  21718479.0474                   21718479.5784
 -36790911.65258 -28633795.14556  20712718.8914                   20712715.4694
  -5669974.05157  -3527504.32454  23930576.0784                   23930579.2814
 11  8 27  0  1  0.0000000  0  8G17G10G09G12G04G05G02G25
 -38746532.94547 -30157660.16444  23383064.5944                   23383066.0314
 -32723768.43448 -25472799.81646  20929720.8524                   20929720.3244
 -16772260.45747 -11221539.00844  23998980.6644                   23998985.4144
 -25891727.21948 -20142415.53146  21345249.8134                   21345248.3164
 -36431580.82448 -28351799.96145  22013411.7504                   22013412.4734
 -22177313.23848 -17266054.33246  21695574.4454                   21695575.1024
 -36823502.87148 -28659190.87946  20706516.7814                   20706513.7584
  -5803012.56647  -3631170.65244  23905259.2974                   23905262.8914
 11  8 27  0  1 30.0000000  0  8G17G10G09G12G04G05G02G25
 -38728596.09047 -30143683.51644  23386477.4844                   23386479.2974
 -32747016.87948 -25490915.46546  20925296.8834                   20925296.3164
 -16729319.89547 -11188078.99243  24007152.2424                   24007156.4184
 -25981431.69948 -20212315.09846  21328179.8834                   21328178.5044
 -36389945.55148 -28319356.89845  22021334.9224                   22021335.3244
 -22297273.85548 -17359530.03546  21672746.6884                   21672747.0904
 -36855787.82448 -28684347.96146  20700373.0704                   20700369.8204
  -5935789.93047  -3734633.47744  23879993.2274                   23879996.4304
 11  8 27  0  2  0.0000000  0  8G17G10G09G12G04G05G02G25
 -38710454.81647 -30129547.55144  23389930.0704                   23389931.7424
 -32769602.04348 -25508514.27046  20920998.6884                   20920998.1054
 -16686241.34847 -11154511.44143  24015349.6644                   24015353.4964
 -26070635.48048 -20281824.50446  21311205.0394                   21311203.9224
 -36348178.96548 -28286811.52745  22029282.5704                   22029283.4884
 -22416840.03148 -17452698.37146  21649994.0164                   21649994.8134
 -36887777.70748 -28709275.12146  20694285.8914                   20694282.4304
  -6068313.38747  -3837898.44544  23854774.3834                   23854778.0904
 11  8 27  0  2 30.0000000  0  8G17G10G09G12G04G05G02G25
 -38692116.84047 -30115258.30944  23393418.8364                   23393421.5164
 -32791533.06248 -25525603.35246  20916825.8134                   20916825.4264
 -16643036.94546 -11120845.78943  24023571.1804                   24023575.9184
 -26159344.86748 -20350948.67646  21294323.9304                   21294322.5354
 -36306291.73447 -28254172.14145  22037253.4694                   22037254.3754
 -22536017.52748 -17545563.84046  21627315.1334                   21627315.2774
 -36919482.00848 -28733979.75846  20688252.3364                   20688248.9224
  -6200588.81647  -3940970.14544  23829602.9384                   23829606.2234
 11  8 27  0  3  0.0000000  0  8G17G10G09G12G04G05G02G25
 -38673582.42247 -30100815.96944  23396946.5234                   23396948.5084
 -32812811.19148 -25542183.69546  20912776.6254                   20912776.2504
 -16599710.68447 -11087085.18043  24031816.2584                   24031821.1764
 -26247558.63748 -20419686.64146  21277537.5944                   21277536.1374
 -36264286.12148 -28221440.51645  22045247.4064                   22045247.2504
 -22654804.52348 -17638125.03146  21604710.7344                   21604711.2734
 -36950903.05948 -28758463.67646  20682273.4614                   20682270.1764
  -6332614.32847  -4043847.11344  23804479.3444                   23804482.4304
 11  8 27  0  3 30.0000000  0  8G17G10G09G12G04G05G02G25
 -38654850.41047 -30086219.69544  23400511.6884                   23400513.1914
 -32833435.80548 -25558254.80546  20908851.6174                   20908851.1954
 -16556264.92247 -11053231.50843  24040083.7344                   24040088.6724
 -26335273.64848 -20488035.96146  21260845.9144                   21260844.6174
 -36222163.15247 -28188617.43745  22053263.0314                   22053263.1254
 -22773197.25848 -17730378.99646  21582181.2114                   21582181.8094
 -36982041.00448 -28782726.98446  20676348.2194                   20676344.9184
  -6464386.37947  -4146526.56644  23779403.8984                   23779406.8674
 11  8 27  0  4  0.0000000  0  8G17G10G09G12G04G05G02G25
 -38635910.89547 -30071461.69144  23404115.3204                   23404116.4104
 -32853398.48048 -25573810.12146  20905052.7424                   20905052.1914
 -16512694.07047 -11019280.33644  24048375.2194                   24048379.9804
 -26422478.82448 -20555988.02346  21244251.3444                   21244250.2034
 -36179915.55147 -28155697.26245  22061302.4534                   22061302.3714
 -22891184.06648 -17822316.66846  21559728.9304                   21559729.9574
 -37012888.07848 -28806763.65246  20670477.7504                   20670474.8134
  -6595893.32047  -4248999.45344  23754378.7424                   23754382.2974
 11  8 27  0  4 30.0000000  0  8G17G10G09G12G04G05G02G25
 -38616770.92647 -30056547.50444  23407757.6334                   23407758.7704
 -32872706.85948 -25588855.59846  20901378.8284                   20901378.0204
 -16469008.44147 -10985239.75444  24056688.8364                   24056693.4224
 -26509179.48048 -20623546.94146  21227752.7974                   21227751.2034
 -36137552.46147 -28122687.09445  22069364.0784                   22069363.8204
 -23008769.16848 -17913941.32446  21537353.4694                   21537353.6994
 -37043452.77348 -28830580.27346  20664661.4694                   20664658.4804
  -6727139.49247  -4351269.12144  23729403.7894                   23729406.7274
 11  8 27  0  5  0.0000000  0  8G17G10G09G12G04G05G02G25
 -38597425.98047 -30041473.61344  23411439.6174                   23411440.4694
 -32891357.65248 -25603388.66046  20897829.1414                   20897829.0164
 -16425207.44146 -10951109.28943  24065023.0164                   24065028.2704
 -26595369.71548 -20690708.13746  21211351.2034                   21211349.8204
 -36095071.35247 -28089584.95745  22077447.5164                   22077448.1174
 -23125946.62148 -18005248.32446  21515055.1564                   21515055.4844
 -37073732.04748 -28854174.49646  20658899.6644                   20658896.9144
  -6858118.47747  -4453330.60944  23704479.0084                   23704482.1844
 11  8 27  0  5 30.0000000  0  8G17G10G09G12G04G05G02G25
 -38577886.20347 -30026247.87944  23415158.1724                   23415159.3954
 -32909362.29748 -25617418.23846  20894403.3134                   20894402.7584
 -16381305.44947 -10916900.10243  24073377.8524                   24073382.5514
 -26681058.07048 -20757478.24246  21195045.1254                   21195044.0394
 -36052484.86747 -28056400.70745  22085551.3594                   22085552.0274
 -23242724.27348 -18096243.79746  21492832.8054                   21492833.0784
 -37103738.14548 -28877555.84846  20653190.1024                   20653186.4654
  -6988838.37547  -4555190.21144  23679604.2504                   23679607.3554
 11  8 27  0  6  0.0000000  0  8G17G10G09G12G04G05G02G25
 -38558142.30147 -30010863.07844  23418914.6174                   23418916.1804
 -32926712.67248 -25630938.00446  20891101.4614                   20891101.0004
 -16337296.63746 -10882607.65243  24081752.1174                   24081757.6254
 -26766233.65648 -20823848.80546  21178836.5394                   21178835.3754
 -36009785.89847 -28023128.81245  22093677.0234                   22093677.2504
 -23359090.61747 -18186918.76646  21470689.0554                   21470689.1804
 -37133463.39148 -28900718.35946  20647533.4774                   20647530.1994
  -7119287.65647  -4656838.92645  23654780.4384                   23654783.4224
 11  8 27  0  6 30.0000000  0  8G17G10G09G12G04G05G02G25
 -38538193.20747 -29995318.39544  23422710.7584                   23422712.4064
 -32943408.71148 -25643947.89846  20887924.7034                   20887924.1174
 -16293183.50846 -10848233.93043  24090146.7114                   24090152.2074
 -26850893.71148 -20889817.64546  21162726.4774                   21162725.2814
 -35966975.56647 -27989770.12945  22101823.2504                   22101823.8014
 -23475042.14548 -18277270.50446  21448624.3754                   21448624.7664
 -37162908.18048 -28923662.33246  20641930.0164                   20641927.0664
  -7249462.87147  -4758274.10544  23630008.7274                   23630011.5164
 11  8 27  0  7  0.0000000  0  8G17G10G09G12G04G05G02G25
 -38518040.17247 -29979614.77044  23426546.2974                   23426547.8634
 -32959452.77748 -25656449.76246  20884871.2974                   20884870.9144
 -16248971.48446 -10813783.14843  24098559.2814                   24098565.6914
 -26935038.02048 -20955384.60246  21146714.1564                   21146713.0594
 -35924057.23847 -27956327.31245  22109991.0704                   22109991.1724
 -23590578.41048 -18367298.66446  21426638.3754                   21426638.7854
 -37192075.41848 -28946390.02346  20636379.7894                   20636376.6024
  -7379363.24247  -4859495.11344  23605289.2344                   23605292.1174
 11  8 27  0  7 30.0000000  0  8G17G10G09G12G04G05G02G25
 -38497686.96547 -29963755.20344  23430419.4844                   23430420.6524
 -32974849.59048 -25668447.26646  20881941.2974                   20881940.8054
 -16204667.84046 -10779261.01743  24106991.0234                   24106996.3134
 -27018669.01648 -21020551.58646  21130799.9384                   21130798.3484
 -35881036.77047 -27922804.89845  22118177.5704                   22118177.8244
 -23705700.76648 -18457004.29746  21404730.9304                   21404731.5234
 -37220970.86748 -28968905.93746  20630881.0314                   20630877.8094
  -7508990.24647  -4960503.10245  23580622.2894                   23580624.7234
 11  8 27  0  8  0.0000000  0  8G17G10G09G12G04G05G02G25
 -38477130.58647 -29947737.30144  23434330.7894                   23434332.3404
 -32989597.32048 -25679938.99246  20879134.9384                   20879134.3954
 -16160273.09446 -10744667.89843  24115439.3364                   24115444.8164
 -27101782.05948 -21085314.95746  21114983.8134                   21114982.6134
 -35837913.44148 -27889202.34045  22126383.4224                   22126383.6724
 -23820404.28148 -18546383.55946  21382903.7194                   21382904.1374
 -37249592.71548 -28991208.65246  20625434.5704                   20625431.4414
  -7638338.68047  -5061294.00845  23556007.7034                   23556010.9384
 11  8 27  0  8 30.0000000  0  8G17G10G09G12G04G05G02G25
 -38456369.79347 -29931560.12544  23438281.4224                   23438283.2154
 -33003695.66848 -25690924.69546  20876451.8834                   20876451.1454
 -16115789.64146 -10710005.68044  24123904.8284                   24123910.3244
 -27184374.19948 -21149672.43046  21099267.0164                   21099265.9574
 -35794687.95747 -27855520.17245  22134609.2344                   22134609.3404
 -23934685.18048 -18635433.51246  21361156.6024                   21361157.2034
 -37277941.39848 -29013298.51246  20620039.9224                   20620036.9694
  -7767404.84447  -5161864.96545  23531447.4224                   23531450.1804
 11  8 27  0  9  0.0000000  0  8G17G10G09G12G04G05G02G25
 -38435404.10946 -29915223.30944  23442270.8284                   23442273.0204
 -33017145.95348 -25701405.41846  20873892.6174                   20873891.7734
 -16071221.27346 -10675277.29344  24132385.6414                   24132391.4144
 -27266444.24248 -21213623.07046  21083649.8444                   21083648.2774
 -35751362.27347 -27821759.92245  22142853.6094                   22142853.9884
 -24048541.29348 -18724152.46546  21339490.3914                   21339491.0234
 -37306018.55148 -29035176.80546  20614696.8134                   20614693.6414
  -7896186.60947  -5262214.30945  23506940.8754                   23506943.9304
 11  8 27  0  9 30.0000000  0  8G17G10G09G12G04G05G02G25
 -38414226.88346 -29898721.62144  23446300.5944                   23446302.6724
 -33029942.72348 -25711376.89146  20871457.8594                   20871457.1994
 -16026564.54746 -10640480.07844  24140884.0234                   24140889.8204
 -27347983.60548 -21277160.19146  21068133.2974                   21068131.9614
 -35707931.62547 -27787917.88745  22151118.2504                   22151119.0314
 -24161963.48848 -18812533.30546  21317906.6024                   21317907.1414
 -37333818.83648 -29056839.33646  20609406.8594                   20609403.5784
  -8024674.60547  -5362334.74245  23482490.1724                   23482493.1294
 11  8 27  0 10  0.0000000  0  8G17G10G09G12G04G05G02G25
 -38392837.22746 -29882054.44144  23450371.6564                   23450373.8634
 -33042086.18448 -25720839.30146  20869146.7584                   20869146.0744
 -15981822.60246 -10605616.40244  24149398.4064                   24149403.9184
 -27428989.85948 -21340281.91846  21052718.2194                   21052717.1174
 -35664397.27047 -27753995.02045  22159402.2114                   22159403.0984
 -24274949.03148 -18900573.87946  21296406.3594                   21296406.4964
 -37361343.29748 -29078286.94146  20604168.7504                   20604165.7234
  -8152865.94147  -5462224.00045  23458096.1644                   23458099.1134
 11  8 27  0 10 30.0000000  0  8G17G10G09G12G04G05G02G25
 -38371233.91846 -29865220.71544  23454482.6414                   23454484.6844
 -33053576.64148 -25729792.88346  20866960.0234                   20866959.5354
 -15936997.62547 -10570688.00444  24157928.4384                   24157934.2734
 -27509460.24248 -21402986.07046  21037405.1724                   21037403.8244
 -35620760.03947 -27719992.01245  22167706.5164                   22167706.6414
 -24387494.18048 -18988271.30546  21274989.6174                   21274990.1024
 -37388592.05148 -29099519.71546  20598983.5944                   20598980.5314
  -8280756.92247  -5561879.21945  23433759.1334                   23433762.3094
 11  8 27  0 11  0.0000000  0  8G17G10G09G12G04G05G02G25
 -38349423.46946 -29848225.60244  23458632.3914                   23458634.6524
 -33064421.84848 -25738243.67646  20864896.6564                   20864895.7624
 -15892100.27047 -10535703.23444  24166472.2814                   24166477.9924
 -27589400.02348 -21465276.77046  21022193.1724                   21022191.9344
 -35577028.72747 -27685915.67645  22176028.2504                   22176028.1994
 -24499604.19147 -19075629.66046  21253655.9614                   21253655.8324
 -37415573.50448 -29120544.20746  20593848.9384                   20593846.3244
  -8408352.13747  -5661303.95345  23409478.9144                   23409481.5044
 11  8 27  0 11 30.0000000  0  8G17G10G09G12G04G05G02G25
 -38327404.20347 -29831067.78544  23462823.2034                   23462824.8444
 -33074621.94548 -25746191.77346  20862955.5394                   20862954.6134
 -15847132.47347 -10500663.59044  24175029.1644                   24175034.8444
 -27668806.55948 -21527151.94946  21007082.4304                   21007080.9654
 -35533203.91847 -27651766.50045  22184367.8284                   22184368.1724
 -24611275.17248 -19162645.90646  21232405.2504                   21232405.3444
 -37442287.93048 -29141360.62946  20588765.5554                   20588762.8204
  -8535648.01247  -5760495.46544  23385255.3054                   23385257.6134
 11  8 27  0 12  0.0000000  0  8G17G10G09G12G04G05G02G25
 -38305182.56646 -29813752.28144  23467051.9774                   23467052.7274
 -33084183.69148 -25753642.45346  20861135.6724                   20861134.7734
 -15802103.68047 -10465576.46944  24183598.2034                   24183603.8794
 -27747684.01248 -21588614.86746  20992073.0634                   20992071.5044
 -35489293.12547 -27617550.30945  22192723.4304                   22192723.8164
 -24722510.69548 -19249322.84446  21211238.0234                   21211237.4844
 -37468742.63748 -29161974.66846  20583731.1414                   20583728.2194
  -8662647.81647  -5859456.26245  23361087.6024                   23361090.2384
 11  8 27  0 12 30.0000000  0  8G17G10G09G12G04G05G02G25
 -38282754.51247 -29796275.89144  23471320.1884                   23471320.8204
 -33093105.04748 -25760594.12946  20859437.6334                   20859437.7234
 -15757013.91846 -10430441.79744  24192178.8364                   24192184.7814
 -27826027.16448 -21649661.44146  20977164.5474                   20977162.9224
 -35445294.75047 -27583265.90245  22201096.4384                   22201096.7154
 -24833305.07448 -19335656.02046  21190154.4774                   21190154.5514
 -37494935.23448 -29182384.46946  20578747.0704                   20578744.0394
  -8789345.59047  -5958181.71545  23336977.6414                   23336980.7734
 11  8 27  0 13  0.0000000  0  8G17G10G09G12G04G05G02G25
 -38260104.83247 -29778626.79344  23475629.8524                   23475631.2304
 -33101371.98448 -25767035.86746  20857864.6564                   20857864.0824
 -15711851.43046 -10395250.50043  24200773.5314                   24200778.6954
 -27903819.44548 -21710278.77746  20962361.0004                   20962359.6644
 -35401195.69147 -27548903.00445  22209487.7194                   22209488.3054
 -24943640.84048 -19421631.84446  21169158.2974                   21169158.2544
 -37520852.52348 -29202579.74246  20573815.2734                   20573812.1724
  -8915723.87947  -6056658.22345  23312929.0234                   23312931.2774
 11  8 27  0 13 30.0000000  0  8G17G10G09G12G04G05G02G25
 -38237248.11347 -29760816.41044  23479978.8364                   23479981.0594
 -33109000.56648 -25772980.18746  20856412.9774                   20856412.5744
 -15666634.41446 -10360016.69943  24209377.7584                   24209383.7464
 -27981074.22348 -21770477.27746  20947660.0784                   20947658.4414
 -35357012.46547 -27514474.53945  22217895.7974                   22217896.1954
 -25053530.71548 -19507260.22346  21148246.5704                   21148246.6564
 -37546510.62548 -29222573.05146  20568932.5084                   20568929.4734
  -9041795.05947  -6154895.43745  23288938.5704                   23288940.8134
 11  8 27  0 14  0.0000000  0  8G17G10G09G12G04G05G02G25
 -38214179.34447 -29742840.77044  23484369.0084                   23484371.6054
 -33115987.57848 -25778424.58246  20855083.6484                   20855082.9654
 -15621361.62146 -10324739.38343  24217992.6884                   24217999.2424
 -28057785.29748 -21830252.10946  20933062.6094                   20933060.9344
 -35312742.50447 -27479978.48445  22226320.1884                   22226320.6374
 -25162968.00048 -19592535.92646  21127421.4064                   21127420.9774
 -37571906.30548 -29242361.88746  20564100.2734                   20564097.1134
  -9167552.12947  -6252887.87945  23265007.3834                   23265010.3914
 11  8 27  0 14 30.0000000  0  8G17G10G09G12G04G05G02G25
 -38190907.48847 -29724706.91444  23488797.6484                   23488799.6094
 -33122342.98848 -25783376.82046  20853873.9844                   20853873.7194
 -15576045.18046 -10289428.09443  24226615.8834                   24226622.2854
 -28133960.03548 -21889609.03546  20918566.9224                   20918565.3594
 -35268395.91047 -27445422.71545  22234759.0234                   22234759.3014
 -25271958.47748 -19677463.48046  21106681.1024                   21106681.0904
 -37597050.09048 -29261954.43746  20559315.2424                   20559312.4844
  -9293001.36347  -6350640.43744  23241135.3914                   23241138.3284
 11  8 27  0 15  0.0000000  0  8G17G10G09G12G04G05G02G25
 -38167437.23447 -29706418.44544  23493264.6954                   23493265.9534
 -33128073.13348 -25787841.83646  20852783.5784                   20852783.4304
 -15530693.62146 -10254089.46943  24235246.0704                   24235251.6914
 -28209601.90248 -21948550.73046  20904172.6094                   20904170.7034
 -35223979.78547 -27410812.78945  22243211.4384                   22243211.7464
 -25380506.19548 -19762046.02046  21086025.0314                   21086025.1294
 -37621947.85248 -29281355.27746  20554577.5394                   20554574.3914
  -9418145.36347  -6448155.16845  23217321.1804                   23217323.7274
 11  8 27  0 15 30.0000000  0  8G17G10G09G12G04G05G02G25
 -36568334.29746 -28460364.27744  23797563.7194                   23797565.4804
 -31557744.68448 -24564209.25046  21151607.4694                   21151607.3054
 -13909876.84046  -8991115.53543  24543678.2424                   24543683.7664
 -26709271.53948 -20779462.12546  21189675.8914                   21189674.2034
 -33604062.27747 -26148539.42645  22551471.6884                   22551471.7664
 -23913170.00448 -18618667.07046  21365249.8204                   21365250.2154
 -36071165.72348 -28072953.62146  20849681.2894                   20849678.1954
  -7967542.46547  -5317815.15245  23493361.3834                   23493364.1884
 11  8 27  0 16  0.0000000  0  8G17G10G09G12G04G05G02G25
 -36544442.01247 -28441746.93444  23802110.0554                   23802112.6214
 -31562204.24248 -24567684.19946  21150758.5004                   21150758.1994
 -13864440.29746  -8955710.69142  24552324.8834                   24552330.8984
 -26783817.99648 -20837550.26646  21175489.9924                   21175488.3284
 -33559487.13747 -26113805.57445  22559953.5314                   22559954.5554
 -24020799.67248 -18702534.25846  21344768.3984                   21344768.4144
 -36095551.59048 -28091955.58646  20845041.0164                   20845038.1414
  -8092043.62147  -5414828.95344  23469670.0634                   23469671.6954
 11  8 27  0 16 30.0000000  0  8G17G10G09G12G04G05G02G25
 -36520337.77046 -28422964.43744  23806696.3914                   23806699.3484
 -31566029.46147 -24570664.85946  21150030.9064                   21150030.4534
 -13818965.78146  -8920276.23043  24560977.3364                   24560984.7934
 -26857813.86348 -20895209.37146  21161409.3914                   21161408.0124
 -33514834.35947 -26079011.23445  22568451.1954                   22568451.7774
 -24127966.04348 -18786040.43046  21324375.2114                   21324375.7704
 -36119682.34848 -28110758.77746  20840448.8984                   20840446.0394
  -8216218.92647  -5511588.82445  23446039.9384                   23446042.5004
 11  8 27  0 17  0.0000000  0  8G17G10G09G12G04G05G02G25
 -36496037.05946 -28404028.89144  23811320.7424                   23811323.4144
 -31569237.47748 -24573164.59046  21149419.9534                   21149419.6954
 -13773472.30146  -8884827.02042  24569635.0314                   24569642.3914
 -26931273.69148 -20952450.77346  21147430.3444                   21147428.7934
 -33470121.53547 -26044170.11345  22576959.3914                   22576960.0514
 -24234683.05948 -18869196.45746  21304067.6414                   21304067.6604
 -36143575.98048 -28129377.18446  20835902.1334                   20835899.2854
  -8340081.85547  -5608105.28944  23422469.2504                   23422472.0554
 11  8 27  0 17 30.0000000  0  8G17G10G09G12G04G05G02G25
 -36471524.50046 -28384928.29344  23815985.8674                   23815987.4384
 -31571814.47347 -24575172.60546  21148929.6334                   21148929.2974
 -13727947.74646  -8849353.56242  24578298.6414                   24578305.0314
 -27004180.25448 -21009261.07846  21133556.3984                   21133554.7624
 -33425335.03547 -26009271.57045  22585482.0164                   22585482.2034
 -24340933.07448 -18951988.60246  21283849.0864                   21283849.0474
 -36167218.13748 -28147799.63346  20831403.1724                   20831400.1764
  -8463614.44547  -5704364.34844  23398961.7114                   23398964.1254
 11  8 27  0 18  0.0000000  0  8G17G10G09G12G04G05G02G25
 -36446801.20746 -28365663.48844  23820690.6254                   23820692.3324
 -31573763.36348 -24576691.19546  21148559.1024                   21148558.2854
 -13682396.97346  -8813859.72343  24586967.0314                   24586973.3054
 -27076534.12148 -21065640.69946  21119788.1804                   21119786.6564
 -33380477.73047 -25974317.87145  22594018.2734                   22594018.0554
 -24446715.42648 -19034416.31246  21263719.1644                   21263718.9384
 -36190611.64848 -28166028.33246  20826951.5944                   20826948.6214
  -8586815.69947  -5800365.23044  23375517.7114                   23375519.8094
 11  8 27  0 18 30.0000000  0  8G17G10G09G12G04G05G02G25
 -36421864.71546 -28346232.53544  23825435.9224                   23825438.4104
 -31575083.16048 -24577719.60246  21148307.8834                   21148307.2854
 -13636820.69546  -8778345.93743  24595639.9924                   24595647.1764
 -27148331.10948 -21121586.38346  21106125.4844                   21106124.0744
 -33335549.01647 -25939308.52744  22602568.2504                   22602567.8014
 -24552025.53148 -19116476.04746  21243679.3834                   21243678.5554
 -36213755.69548 -28184062.64546  20822547.1254                   20822544.1524
  -8709680.70747  -5896104.10244  23352136.6484                   23352139.4144
 11  8 27  0 19  0.0000000  0  8G17G10G09G12G04G05G02G25
 -36396732.41846 -28326648.98044  23830218.1564                   23830221.1604
 -31575793.12948 -24578272.80146  21148172.7034                   21148171.9734
 -13591240.14546  -8742828.89543  24604314.0394                   24604320.3134
 -27219587.43048 -21177110.78146  21092565.9774                   21092564.7114
 -33290568.02747 -25904258.46145  22611127.4304                   22611127.4694
 -24656878.92648 -19198179.91046  21223726.5004                   21223725.4654
 -36236669.09048 -28201917.22746  20818186.9774                   20818183.6134
  -8832224.71147  -5991592.83244  23328817.3914                   23328820.0394
 11  8 27  0 19 30.0000000  0  8G17G10G09G12G04G05G02G25
 -36371393.19146 -28306904.19544  23835039.1724                   23835042.8754
 -31575883.64548 -24578343.32046  21148155.4064                   21148154.9534
 -13545647.14846  -8707302.12144  24612990.5704                   24612997.5594
 -27290290.61348 -21232204.14846  21079111.4384                   21079110.1094
 -33245525.50047 -25869160.44145  22619698.8134                   22619698.9494
 -24761262.32448 -19279517.53146  21203862.6724                   21203862.2304
 -36259341.89148 -28219584.32846  20813872.5944                   20813869.6644
  -8954434.08247  -6086820.82845  23305561.1174                   23305564.0474
 11  8 27  0 20  0.0000000  0  8G17G10G09G12G04G05G02G25
 -36345841.30946 -28286993.71144  23839902.5084                   23839904.8444
 -31575350.64148 -24577927.98446  21148256.6334                   21148256.3134
 -13500039.80146  -8671764.14543  24621669.6174                   24621676.3634
 -27360433.90648 -21286861.25046  21065763.5394                   21065762.3014
 -33200417.42647 -25834011.35245  22628282.7734                   22628283.1724
 -24865168.40648 -19360483.22346  21184090.2344                   21184089.9414
 -36281770.19948 -28237060.91846  20809604.5234                   20809601.6764
  -9076300.97747  -6181781.95345  23282371.0784                   23282373.3444
 11  8 27  0 20 30.0000000  0  8G17G10G09G12G04G05G02G25
 -36320073.66446 -28266915.09444  23844805.9144                   23844807.8164
 -31574192.98848 -24577025.92646  21148477.0784                   21148477.0274
 -13454418.07447  -8636215.00443  24630350.9774                   24630357.4614
 -27430012.99648 -21341078.69546  21052523.2504                   21052521.6374
 -33155242.37947 -25798810.09444  22636879.2274                   22636879.7034
 -24968591.77048 -19441072.77346  21164409.1334                   21164409.0434
 -36303952.48048 -28254345.80146  20805383.3524                   20805380.4574
  -9197819.76647  -6276471.84045  23259246.5944                   23259248.9694
 11  8 27  0 21  0.0000000  0  8G17G10G09G12G04G05G02G25
 -36294077.25846 -28246658.23844  23849752.5314                   23849755.3484
 -31572399.21548 -24575628.17646  21148818.2734                   21148818.1954
 -13408772.79347  -8600647.45744  24639037.7504                   24639044.4414
 -27499013.59448 -21394845.36746  21039392.6484                   21039391.2074
 -33109989.17647 -25763547.90645  22645490.9384                   22645491.1484
 -25071517.72348 -19521274.73446  21144823.0394                   21144822.5044
 -36325877.43748 -28271430.15646  20801211.2504                   20801208.0824
  -9318975.31647  -6370878.69145  23236191.2274                   23236193.7624
 11  8 27  0 21 30.0000000  0  8G17G10G09G12G04G05G02G25
 -36267871.71946 -28226238.37944  23854739.8594                   23854742.8634
 -31569990.89848 -24573751.57046  21149276.9454                   21149276.2664
 -13363126.93747  -8565079.51644  24647724.0004                   24647730.7034
 -27567454.25447 -21448175.73046  21026368.9774                   21026367.6844
 -33064679.36347 -25728241.62544  22654112.6094                   22654113.3554
 -25173963.78148 -19601102.75446  21125328.1414                   21125327.6844
 -36347565.90248 -28288330.24246  20797083.9534                   20797080.8164
  -9439784.90247  -6465015.97745  23213202.3834                   23213203.7384
 11  8 27  0 22  0.0000000  0  8G17G10G09G12G04G05G02G25
 -36241450.39146 -28205650.37544  23859767.8984                   23859770.9534
 -31566962.89148 -24571392.07846  21149852.8524                   21149852.2934
 -13317476.63346  -8529508.07843  24656410.3524                   24656417.2424
 -27635326.88348 -21501063.46946  21013453.2584                   21013452.0274
 -33019307.48847 -25692886.97744  22662746.7734                   22662746.8714
 -25275921.43448 -19680550.19946  21105925.9454                   21105925.7974
 -36369012.55948 -28305041.89146  20793003.0084                   20793000.0164
  -9560239.24647  -6558876.47345  23190280.6414                   23190282.4024
 11  8 27  0 22 30.0000000  0  8G17G10G09G12G04G05G02G25
 -36214820.35946 -28184899.74644  23864835.9534                   23864838.6724
 -31563324.09048 -24568556.66046  21150545.4844                   21150545.0664
 -13271832.64147  -8493941.60544  24665096.3834                   24665102.9694
 -27702637.48448 -21553513.27046  21000644.5704                   21000643.3164
 -32973882.40647 -25657490.88745  22671390.8054                   22671391.5514
 -25377395.62548 -19759620.91846  21086615.9064                   21086615.5784
 -36390226.25448 -28321572.01246  20788965.7974                   20788962.6844
  -9680343.30147  -6652464.01645  23167425.6174                   23167427.5904
 11  8 27  0 23  0.0000000  0  8G17G10G09G12G04G05G02G25
 -36187967.12146 -28163975.18044  23869945.5394                   23869947.1524
 -31559062.08648 -24565235.61746  21151356.5164                   21151356.2074
 -13226183.78147  -8458371.33244  24673784.0394                   24673789.8954
 -27769370.59848 -21605513.07046  20987945.3914                   20987943.9574
 -32928391.51647 -25622043.52044  22680048.2664                   22680048.4654
 -25478370.31248 -19838302.41046  21067400.8054                   21067401.1174
 -36411193.79348 -28337910.32446  20784975.7894                   20784973.1764
  -9800080.34847  -6745765.57445  23144640.4384                   23144641.9494
 11  8 27  0 23 30.0000000  0  8G17G10G09G12G04G05G02G25
 -36160899.99646 -28142883.96544  23875096.2734                   23875098.3714
 -31554187.63748 -24561437.34446  21152283.9454                   21152283.5944
 -13180542.76646  -8422807.20743  24682469.1414                   24682475.2734
 -27835534.55948 -21657069.38746  20975354.9454                   20975353.5314
 -32882845.83647 -25586553.43444  22688714.7034                   22688715.4344
 -25578852.82848 -19916600.39846  21048279.9384                   21048279.7934
 -36431925.91048 -28354065.18046  20781030.8204                   20781027.6254
  -9919457.20347  -6838786.46145  23121923.8134                   23121926.0664
 11  8 27  0 24  0.0000000  0  8G17G10G09G12G04G05G02G25
 -36133625.13346 -28121630.87144  23880286.6024                   23880288.3094
 -31548708.59848 -24557167.96146  21153326.7344                   21153326.4454
 -13134918.85546  -8387256.37944  24691151.3984                   24691158.8524
 -27901134.34048 -21708186.07846  20962871.3284                   20962870.2774
 -32837252.76647 -25551026.41444  22697390.7974                   22697391.1334
 -25678847.06648 -19994517.90246  21029251.8674                   21029250.8914
 -36452430.27348 -28370042.58246  20777128.8834                   20777125.9574
 -10038477.47747  -6931529.51245  23099274.5164                   23099277.2734
 11  8 27  0 24 30.0000000  0  8G17G10G09G12G04G05G02G25
 -36106140.41046 -28100214.25444  23885516.1564                   23885518.6484
 -31542625.08648 -24552427.55546  21154484.2814                   21154483.6994
 -13089313.39546  -8351719.95343  24699829.6954                   24699837.9144
 -27966166.19948 -21758860.23046  20950496.6954                   20950495.2504
 -32791611.98047 -25515462.21144  22706076.0234                   22706077.0314
 -25778349.59848 -20072052.26646  21010316.8984                   21010316.4654
 -36472706.22348 -28385841.98446  20773270.4774                   20773267.4344
 -10157137.03947  -7023991.47345  23076694.4844                   23076697.1644
 11  8 27  0 25  0.0000000  0  8G17G10G09G12G04G05G02G25
 -36078427.16046 -28078619.55943  23890790.4304                   23890791.8134
 -31535920.30548 -24547203.04746  21155760.1644                   21155759.8554
 -13043710.85246  -8316185.82843  24708507.9144                   24708515.2544
 -28030611.03148 -21809076.96546  20938232.9144                   20938231.5744
 -32745906.52347 -25479847.60944  22714773.7894                   22714774.4264
 -25877339.69948 -20149187.33646  20991479.5704                   20991478.8134
 -36492736.46548 -28401449.93446  20769459.3674                   20769455.6954
 -10275414.70347  -7116155.84845  23054187.4614                   23054189.1884
 11  8 27  0 25 30.0000000  0  8G17G10G09G12G04G05G02G25
 -36050489.39846 -28056849.91843  23896106.6334                   23896108.4064
 -31528599.93448 -24541498.85546  21157153.1884                   21157152.5514
 -12998118.73046  -8280659.82843  24717183.1484                   24717190.9734
 -28094471.53948 -21858838.37546  20926080.9534                   20926079.4734
 -32700141.84847 -25444186.87544  22723482.0784                   22723483.2274
 -25975819.40648 -20225924.69146  20972739.5004                   20972738.9694
 -36512526.59448 -28416870.78946  20765693.1334                   20765690.3444
 -10393312.21147  -7208024.00045  23031751.6414                   23031753.7544
 11  8 27  0 26  0.0000000  0  8G17G10G09G12G04G05G02G25
 -36022331.35546 -28034908.65243  23901464.8914                   23901466.8674
 -31520669.89848 -24535319.59046  21158662.2664                   21158661.3674
 -12952544.43746  -8245147.69143  24725855.6334                   24725863.7074
 -28157750.75048 -21908146.82046  20914038.9384                   20914038.2074
 -32654323.58647 -25408484.38745  22732201.2194                   22732201.6454
 -26073791.19948 -20302266.27346  20954096.1174                   20954095.5124
 -36532082.15248 -28432108.85946  20761971.9534                   20761968.3984
 -10510831.26647  -7299597.25445  23009389.2114                   23009390.6804
 11  8 27  0 26 30.0000000  0  8G17G10G09G12G04G05G02G25
 -35993973.21946 -28012811.41443  23906861.6484                   23906862.7974
 -31512152.40248 -24528682.56246  21160282.8674                   21160282.4804
 -12907011.28946  -8209667.60543  24734521.4454                   24734528.7624
 -28220468.14548 -21957017.48446  20902104.2584                   20902102.8484
 -32608473.51247 -25372757.10544  22740926.4844                   22740926.7234
 -26171273.24648 -20378226.22746  20935545.6564                   20935545.2814
 -36551424.74248 -28447180.98446  20758290.8284                   20758287.9144
 -10627989.73448  -7390889.52345  22987093.6484                   22987096.4414
 11  8 27  0 27  0.0000000  0  8G17G10G09G12G04G05G02G25
 -35965394.82046 -27990542.57043  23912299.5314                   23912301.3594
 -31503029.52748 -24521573.81646  21162019.0554                   21162018.3404
 -12861502.63346  -8174206.65243  24743181.4144                   24743189.5944
 -28282602.55148 -22005433.87946  20890280.7194                   20890279.0744
 -32562573.37147 -25336990.79744  22749660.7194                   22749661.4064
 -26268243.99248 -20453787.76246  20917092.9534                   20917092.2704
 -36570535.76248 -28462072.66046  20754654.1884                   20754651.2114
 -10744765.38347  -7481883.46545  22964872.7734                   22964874.6134
 11  8 27  0 27 30.0000000  0  8G17G10G09G12G04G05G02G25
 -35936595.73046 -27968101.73443  23917779.6884                   23917781.8164
 -31493302.70348 -24513994.44946  21163869.9614                   21163869.2304
 -12816020.83646  -8138766.62143  24751836.9614                   24751844.5274
 -28344152.21548 -22053394.61746  20878567.8054                   20878566.5904
 -32516623.87547 -25301186.01244  22758405.1644                   22758405.5704
 -26364700.92248 -20528948.92246  20898737.4614                   20898736.8794
 -36589415.73048 -28476784.30546  20751061.2664                   20751058.2664
 -10861155.12947  -7572576.69145  22942724.3984                   22942726.4804
 11  8 27  0 28  0.0000000  0  8G17G10G09G12G04G05G02G25
 -35907570.80946 -27945484.97743  23923303.0784                   23923305.5664
 -31482968.67248 -24505941.94146  21165836.8594                   21165836.3054
 -12770563.92646  -8103346.02043  24760486.8754                   24760495.1254
 -28405110.85248 -22100894.82046  20866967.6094                   20866966.4804
 -32470621.24647 -25265339.85244  22767159.2584                   22767159.3404
 -26460637.07048 -20603704.28946  20880481.2504                   20880481.0634
 -36608061.26648 -28491313.27346  20747513.2424                   20747510.0124
 -10977151.50047  -7662963.41445  22920650.5164                   22920652.9694
 11  8 27  0 28 30.0000000  0  8G17G10G09G12G04G05G02G25
 -35878332.89846 -27922702.21544  23928867.0084                   23928869.4774
 -31472042.30948 -24497427.87946  21167915.8204                   21167915.4574
 -12725147.97346  -8067957.27343  24769130.3364                   24769137.5514
 -28465490.77348 -22147944.07046  20855477.9774                   20855476.8164
 -32424580.07047 -25229463.64544  22775920.9774                   22775921.0824
 -26556063.49248 -20678062.45346  20862322.0704                   20862321.5314
 -36626486.42648 -28505670.53546  20744007.2424                   20744004.0004
 -11092765.00047  -7753051.76645  22898650.3674                   22898652.6254
 11  8 27  0 29  0.0000000  0  8G17G10G09G12G04G05G02G25
 -35848873.98447 -27899747.28544  23934473.6334                   23934475.1054
 -31460517.44148 -24488447.44546  21170108.5864                   21170107.9384
 -12679768.13746  -8032596.71543  24777764.9924                   24777773.1844
 -28525282.93448 -22194535.32046  20844099.8594                   20844098.5394
 -32378493.57047 -25193552.10544  22784691.0474                   22784690.9454
 -26650970.63748 -20752016.00846  20844262.0634                   20844261.5314
 -36644684.73448 -28519851.02346  20740544.1954                   20740540.9104
 -11207985.27347  -7842833.72345  22876724.4454                   22876726.6374
 11  8 27  0 29 30.0000000  0  8G17G10G09G12G04G05G02G25
 -35819191.53147 -27876618.12944  23940121.6174                   23940123.7114
 -31448393.39548 -24479000.13346  21172416.0084                   21172415.2584
 -12634424.92646  -7997264.60943  24786394.4224                   24786402.1764
 -28584483.66448 -22240665.72746  20832834.3054                   20832832.6564
 -32332360.73447 -25157604.45344  22793468.8054                   22793470.0744
 -26745354.08248 -20825561.48446  20826301.4454                   20826300.7274
 -36662654.62948 -28533853.53546  20737124.2664                   20737121.2774
 -11322807.41847  -7932305.41845  22854874.3444                   22854877.0044
 11  8 27  0 30  0.0000000  0  8G17G10G09G12G04G05G02G25
 -35789290.41846 -27853318.60544  23945812.1644                   23945813.4384
 -31435677.49648 -24469091.61746  21174835.5234                   21174834.8094
 -12589126.35546  -7961967.28943  24795014.0394                   24795023.1414
 -28643097.07048 -22286338.47746  20821680.3754                   20821678.9104
 -32286188.03147 -25121625.73444  22802255.2584                   22802255.9344
 -26839216.78948 -20898701.18046  20808439.9304                   20808439.6914
 -36680402.77748 -28547683.25046  20733747.0634                   20733743.7734
 -11437234.08247  -8021468.96945  22833099.7584                   22833101.6094
 11  8 27  0 30 30.0000000  0  8G17G10G09G12G04G05G02G25
 -35759179.04746 -27829855.24244  23951541.4454                   23951543.3634
 -31422380.15648 -24458730.04346  21177365.6724                   21177365.3674
 -12543884.19946  -7926713.96143  24803623.3754                   24803632.0434
 -28701130.98448 -22331559.68046  20810637.1724                   20810635.4694
 -32239985.12147 -25085623.50044  22811047.2424                   22811048.4614
 -26932565.45748 -20971440.34846  20790676.1024                   20790675.5314
 -36697938.80148 -28561347.69146  20730410.0944                   20730407.1684
 -11551271.27348  -8110329.03945  22811399.2344                   22811401.2344
 11  8 27  0 31  0.0000000  0  7G17G10G12G04G05G02G25
 -35728856.25046 -27806227.11344  23957311.6024                   23957314.3134
 -31408502.14848 -24447916.00446  21180006.8754                   21180005.9694
 -28758582.97348 -22376327.42246  20799704.3834                   20799702.7934
 -32193752.42647 -25049598.07044  22819844.7274                   22819845.9924
 -27025397.51248 -21043776.94546  20773010.6724                   20773010.1724
 -36715262.82848 -28574846.92246  20727113.6644                   20727110.2114
 -11664915.48847  -8198882.88745  22789773.0164                   22789775.6374
 11  8 27  0 31 30.0000000  0  7G17G10G12G04G05G02G25
 -35698321.11746 -27782433.54344  23963122.2424                   23963125.0274
 -31394044.12148 -24436650.00045  21182757.8134                   21182757.7504
 -28815450.73848 -22420639.92646  20788882.7504                   20788881.2734
 -32147489.65247 -25013549.20344  22828648.8364                   22828649.2704
 -27117709.98048 -21115708.67646  20755444.3054                   20755443.3794
 -36732374.77348 -28588180.89846  20723856.8984                   20723853.9184
 -11778162.93048  -8287127.57845  22768223.0944                   22768224.5394
 11  8 27  0 32  0.0000000  0  7G17G10G12G04G05G02G25
 -35667558.64146 -27758462.79344  23968976.2424                   23968978.5824
 -31378993.50847 -24424922.23845  21185622.0084                   21185621.6884
 -28871719.05148 -22464485.34046  20778175.2194                   20778173.8794
 -32101183.72347 -24977466.68044  22837460.5944                   22837461.3284
 -27209485.89148 -21187222.29346  20737979.9534                   20737979.2424
 -36749261.54348 -28601339.41446  20720643.5784                   20720640.5434
 -11890996.81648  -8375050.01645  22746751.3364                   22746752.6844
 11  8 27  0 32 30.0000000  0  7G17G10G12G04G05G02G25
 -35636572.00047 -27734317.40644  23974872.8834                   23974875.1914
 -31363355.66448 -24412736.89846  21188598.2894                   21188597.1484
 -28927390.04348 -22507865.30946  20767581.5164                   20767580.1564
 -32054839.14147 -24941354.05544  22846279.8754                   22846280.2384
 -27300727.46148 -21258319.55946  20720617.4454                   20720616.5984
 -36765927.54348 -28614325.90646  20717472.3284                   20717468.8484
 -12003417.77347  -8462650.70745  22725358.0004                   22725359.5824
 11  8 27  0 33  0.0000000  0  7G17G10G12G04G05G02G25
 -35605363.47746 -27709999.10244  23980812.1484                   23980813.2074
 -31347134.90248 -24400097.32846  21191684.8284                   21191683.8484
 -28982465.23048 -22550781.01246  20757100.7814                   20757099.4104
 -32008459.14847 -24905213.83644  22855105.5474                   22855106.0594
 -27391434.77348 -21329000.51246  20703356.2114                   20703355.5664
 -36782375.65648 -28627142.60946  20714342.1414                   20714339.1024
 -12115425.46148  -8549929.36745  22704043.9144                   22704045.1644
 11  8 27  0 33 30.0000000  0  7G17G10G12G04G05G02G25
 -35573924.97346 -27685501.58244  23986794.0784                   23986796.4304
 -31330325.30147 -24386998.91845  21194883.4064                   21194882.8874
 -29036935.32448 -22593225.21546  20746735.3594                   20746733.9454
 -31962037.11847 -24869040.86944  22863939.6954                   22863940.0594
 -27481598.16448 -21399257.63346  20686198.3674                   20686197.4884
 -36798599.55948 -28639784.59846  20711254.6484                   20711251.8014
 -12227009.83247  -8636878.16845  22682810.0314                   22682811.5204
 11  8 27  0 34  0.0000000  0  7G17G10G12G04G05G02G25
 -35542265.06646 -27660831.51244  23992818.7504                   23992821.2304
 -31312937.39548 -24373449.90646  21198192.3204                   21198191.7734
 -29090808.99248 -22635204.68746  20736483.9614                   20736481.9414
 -31915583.15247 -24832843.03944  22872779.5634                   22872780.2734
 -27571224.64848 -21469096.39546  20669142.7974                   20669142.4344
 -36814609.23848 -28652259.67246  20708207.9844                   20708205.2504
 -12338177.00447  -8723501.87945  22661655.8984                   22661657.9104
 11  8 27  0 34 30.0000000  0  7G17G10G12G04G05G02G25
 -35510381.64546 -27635987.35243  23998886.4924                   23998888.3014
 -31294971.15648 -24359450.23846  21201611.1954                   21201610.4924
 -29144082.53548 -22676716.52346  20726346.4064                   20726344.3484
 -31869096.04747 -24796619.35544  22881625.6564                   22881625.9964
 -27660310.34848 -21538513.75846  20652190.5394                   20652190.1094
 -36830403.48848 -28664566.87146  20705202.6954                   20705199.5634
 -12448922.29347  -8809796.86345  22640581.1644                   22640582.8834
 11  8 27  0 35  0.0000000  0  7G17G10G12G04G05G02G25
 -35478277.04747 -27610970.82443  24004996.3674                   24004997.8554
 -31276431.26648 -24345003.57446  21205139.2344                   21205138.4104
 -29196757.75048 -22717762.13346  20716322.2034                   20716321.1564
 -31822579.19147 -24760372.49244  22890477.5634                   22890478.3754
 -27748855.88348 -21607510.22346  20635340.8134                   20635339.6884
 -36845985.85948 -28676708.96946  20702237.6094                   20702234.4614
 -12559245.66447  -8895763.09045  22619587.5084                   22619589.2074
 11  8 27  0 35 30.0000000  0  7G17G10G12G04G05G02G25
 -35445948.68446 -27585779.91843  24011147.1024                   24011149.2234
 -31257317.27348 -24330109.56246  21208776.2734                   21208775.7814
 -29248831.06648 -22758338.73446  20706412.9694                   20706411.7154
 -31776031.58647 -24724101.66844  22899335.5474                   22899336.1024
 -27836857.30548 -21676082.68746  20618594.5314                   20618593.5044
 -36861355.14148 -28688685.02746  20699312.7194                   20699309.8954
 -12669142.22747  -8981396.71945  22598674.7664                   22598676.5234
 11  8 27  0 36  0.0000000  0  7G17G10G12G04G05G02G25
 -35413395.54346 -27560413.85543  24017342.0864                   24017344.0434
 -31237630.16048 -24314768.96145  21212522.8054                   21212521.6724
 -29300300.83648 -22798445.04746  20696618.6804                   20696616.8984
 -31729453.07047 -24687806.74244  22908199.0164                   22908199.7274
 -27924311.62148 -21744228.84046  20601952.4694                   20601952.2584
 -36876511.53148 -28700495.19546  20696428.7274                   20696425.5664
 -12778608.55147  -9066695.10545  22577844.2424                   22577846.0354
 11  8 27  0 36 30.0000000  0  7G17G10G12G04G05G02G25
 -35380615.30946 -27534870.85543  24023580.0554                   24023583.0204
 -31217369.87948 -24298981.73046  21216378.4064                   21216377.9574
 -29351164.25048 -22838078.86346  20686939.6254                   20686938.2194
 -31682842.86347 -24651487.11344  22917068.9534                   22917069.9064
 -28011215.22748 -21811945.87946  20585415.4224                   20585414.2034
 -36891454.19548 -28712138.82046  20693585.1334                   20693582.3484
 -12887640.10947  -9151654.71145  22557095.6024                   22557098.2504
 11  8 27  0 37  0.0000000  0  7G17G10G12G04G05G02G25
 -35347608.40246 -27509151.23843  24029860.1094                   24029863.9884
 -31196539.12548 -24282749.98846  21220341.7734                   21220341.7034
 -29401420.94548 -22877239.91846  20677376.3444                   20677374.6844
 -31636202.33647 -24615143.86744  22925943.7664                   22925945.1294
 -28097566.94148 -21879232.87546  20568983.3594                   20568982.7234
 -36906184.15248 -28723616.70746  20690782.0554                   20690779.0784
 -12996234.87147  -9236273.96545  22536431.1954                   22536432.7234
 11  8 27  0 37 30.0000000  0  7G17G10G12G04G05G02G25
 -35314379.98846 -27483259.01644  24036183.4844                   24036187.5124
 -31175145.42248 -24266079.57045  21224412.8984                   21224412.5984
 -29451075.45748 -22915931.75446  20667927.3914                   20667925.6844
 -31589537.96147 -24578782.02044  22934824.0084                   22934825.0394
 -28183370.54348 -21946092.76246  20552655.1724                   20552654.7114
 -36920708.00048 -28734933.98446  20688018.3984                   20688015.0664
 -13104395.74247  -9320555.12145  22515848.6644                   22515850.6174
 11  8 27  0 38  0.0000000  0  7G17G10G12G04G05G02G25
 -33705525.93046 -26229606.54743  24342338.9614                   24342342.8834
 -29577785.91848 -23021383.86346  21528380.6094                   21528379.8674
 -27924720.02048 -21726563.86746  20958382.8284                   20958381.5234
 -29967447.18047 -23314815.19544  23243497.4144                   23243498.1454
 -26693216.07448 -20784933.37147  20836222.2114                   20836221.3444
 -35359621.09048 -27518502.60946  20985083.2034                   20985080.0044
 -11636711.48047  -8176905.00045  22795140.2664                   22795141.8484
 11  8 27  0 38 30.0000000  0  7G17G10G12G04G05G02G25
 -33671869.43446 -26203380.69143  24348743.4614                   24348745.9574
 -29555287.00848 -23003852.25446  21532661.8284                   21532661.7384
 -27973182.65248 -21764326.94946  20949160.9454                   20949159.5204
 -29920752.97747 -23278430.12544  23252383.5864                   23252383.9534
 -26777932.77048 -20850946.32046  20820101.0784                   20820100.0594
 -35373750.93048 -27529512.86746  20982394.4844                   20982391.1604
 -11744012.13347  -8260515.86345  22774721.2034                   22774723.3364
 11  8 27  0 39  0.0000000  0  7G17G10G12G04G05G02G25
 -33637990.60246 -26176981.66443  24355190.9534                   24355192.9144
 -29532230.75848 -22985886.35545  21537049.4694                   21537048.9694
 -28021040.30148 -21801618.62546  20940053.8984                   20940052.1214
 -29874037.16047 -23242028.20344  23261272.7894                   23261273.8094
 -26862095.83248 -20916527.86346  20804085.3284                   20804084.1174
 -35387677.28948 -27540364.56646  20979744.3834                   20979740.5394
 -11850870.91847  -8343782.40645  22754386.5084                   22754388.5394
 11  8 27  0 39 30.0000000  0  7G17G10G12G04G05G02G25
 -33603889.68746 -26150409.53943  24361679.7194                   24361682.1094
 -29508619.71548 -22967488.14145  21541542.5784                   21541542.1804
 -28068292.49648 -21838438.51246  20931062.1954                   20931060.2704
 -29827301.23047 -23205610.60244  23270166.4144                   23270167.2544
 -26945703.88748 -20981676.94546  20788174.8524                   20788174.1094
 -35401401.70748 -27551058.90646  20977133.0704                   20977129.3094
 -11957285.79347  -8426703.05145  22734136.1884                   22734138.1484
 11  8 27  0 40  0.0000000  0  7G17G10G12G04G05G02G25
 -33569557.30146 -26123657.08643  24368213.5084                   24368215.0004
 -29484446.50448 -22948651.87946  21546142.8284                   21546142.1334
 -28114929.06648 -21874778.68746  20922187.3364                   20922186.1174
 -29780536.59446 -23169170.62944  23279065.1094                   23279066.2584
 -27028745.62948 -21046384.73046  20772372.8134                   20772371.9224
 -35414915.51648 -27561589.12946  20974561.2584                   20974558.0354
 -12063244.82447  -8509268.47745  22713972.9534                   22713974.7894
 11  8 27  0 40 30.0000000  0  7G17G10G12G04G05G02G25
 -33534999.39846 -26096728.87943  24374788.9774                   24374791.5744
 -29459719.57448 -22929384.14845  21550847.8754                   21550847.7934
 -28160955.64148 -21910643.54746  20913428.8054                   20913427.3794
 -29733750.46146 -23132713.94544  23287967.8524                   23287969.3714
 -27111226.08248 -21110655.14846  20756677.4614                   20756676.5664
 -35428225.98848 -27571960.92246  20972028.5784                   20972025.1724
 -12168751.76247  -8591481.64545  22693895.8284                   22693897.5124
 11  8 27  0 41  0.0000000  0  7G17G10G12G04G05G02G25
 -33500236.77046 -26069641.14143  24381404.4304                   24381407.7234
 -29434462.18748 -22909703.07846  21555654.3754                   21555654.3164
 -28206392.53948 -21946048.91046  20904782.3984                   20904780.7854
 -29686964.68046 -23096257.52344  23296872.0554                   23296872.3244
 -27193164.49648 -21174503.20746  20741085.0234                   20741084.2194
 -35441355.23448 -27582191.50046  20969529.9614                   20969526.4264
 -12273825.12147  -8673356.94145  22673900.9924                   22673902.2384
 11  8 27  0 41 30.0000000  0  7G17G10G12G04G05G02G25
 -33465261.79347 -26042387.91444  24388060.0704                   24388062.6174
 -29408668.35548 -22889603.98045  21560562.5634                   21560562.1684
 -28251230.93748 -21980987.91846  20896250.2584                   20896248.3444
 -29640172.41847 -23059796.03144  23305775.8054                   23305777.1054
 -27274551.22348 -21237921.37946  20725597.3914                   20725596.5434
 -35454296.20748 -27592275.36346  20967067.3914                   20967063.6644
 -12378454.59847  -8754886.37145  22653990.8834                   22653992.4224
 11  8 27  0 42  0.0000000  0  7G17G10G12G04G05G02G25
 -33430055.31647 -26014954.33644  24394760.1484                   24394762.5984
 -29382321.61748 -22869074.06245  21565576.2974                   21565575.3364
 -28295451.22348 -22015445.27746  20887835.1724                   20887833.6054
 -29593355.27747 -23023315.18044  23314684.9844                   23314686.0164
 -27355366.12948 -21300893.98846  20710218.9924                   20710218.0944
 -35467030.60548 -27602198.26246  20964644.1334                   20964640.8524
 -12482618.77047  -8836053.19545  22634168.6094                   22634170.4104
 11  8 27  0 42 30.0000000  0  7G17G10G12G04G05G02G25
 -33394635.07447 -25987354.18044  24401500.1024                   24401502.0204
 -29355441.82448 -22848128.76645  21570691.1804                   21570690.2544
 -28339071.19148 -22049434.85246  20879534.7504                   20879533.3954
 -29546532.25847 -22986829.75444  23323594.8364                   23323596.3984
 -27435625.25448 -21363433.51247  20694945.9064                   20694944.7894
 -35479577.66048 -27611975.18746  20962256.5314                   20962252.9454
 -12586333.05548  -8916869.47745  22614432.5864                   22614433.7704
 11  8 27  0 43  0.0000000  0  7G17G10G12G04G05G02G25
 -33358995.68746 -25959583.25443  24408281.2894                   24408284.0904
 -29328025.89548 -22826765.71545  21575908.9534                   21575908.2384
 -28382084.94948 -22082952.05146  20871349.5634                   20871347.5784
 -29499698.81247 -22950336.18444  23332507.4064                   23332508.8204
 -27515322.07448 -21425534.87146  20679780.3834                   20679779.0634
 -35491933.03548 -27621602.75046  20959905.1484                   20959901.6174
 -12689589.87948  -8997329.28545  22594783.2344                   22594784.7384
 11  8 27  0 43 30.0000000  0  7G17G10G12G04G05G02G25
 -33323127.93747 -25931634.40644  24415107.9224                   24415109.6684
 -29300067.18448 -22804979.69145  21581228.9064                   21581228.4804
 -28424482.50048 -22115989.09046  20863280.9924                   20863279.0664
 -29452846.80147 -22913828.17644  23341422.2584                   23341424.1484
 -27594445.97748 -21487189.80146  20664723.5394                   20664722.1094
 -35504088.42648 -27631074.47746  20957592.4384                   20957589.3134
 -12792377.64147  -9077423.59845  22575223.6954                   22575224.9184
 11  8 27  0 44  0.0000000  0  7G17G10G12G04G05G02G25
 -33287043.53546 -25903516.67644  24421974.3364                   24421976.3404
 -29271579.33247 -22782781.37545  21586650.2504                   21586649.8364
 -28466275.03948 -22148554.69946  20855328.4844                   20855326.3554
 -29405988.51246 -22877315.27044  23350339.4534                   23350340.8444
 -27673006.95348 -21548406.10246  20649773.5234                   20649772.5354
 -35516056.51648 -27640400.26246  20955314.7664                   20955311.6884
 -12894705.60547  -9157159.61745  22555750.9844                   22555752.2774
 11  8 27  0 44 30.0000000  0  7G17G10G12G04G05G02G25
 -33250736.21546 -25875225.28944  24428883.3054                   24428885.8754
 -29242558.57047 -22760167.79345  21592172.1884                   21592171.5274
 -28507455.89548 -22180643.67646  20847491.9064                   20847489.8444
 -29359118.75846 -22840793.44544  23359258.7734                   23359259.5984
 -27750997.42648 -21609177.84846  20634932.5394                   20634931.3524
 -35527832.07448 -27649576.02746  20953074.3284                   20953071.0704
 -12996565.29747  -9236530.76245  22536367.0704                   22536368.6054
 11  8 27  0 45  0.0000000  0  8G17G10G29G12G04G05G02G25
 -33214215.62146 -25846767.72743  24435832.6334                   24435835.6094
 -29213016.81648 -22737148.26645  21597793.9924                   21597793.6954
   2982754.37956   2360432.93452  24692353.6024                   24692354.6994
 -28548034.29348 -22212263.19546  20839770.2894                   20839768.3054
 -29312248.18446 -22804270.98844  23368178.1024                   23368178.4104
 -27828426.07848 -21669511.80546  20620198.2584                   20620197.1764
 -35539425.78148 -27658610.08246  20950867.8054                   20950864.3794
 -13097964.15247  -9315542.79345  22517072.2734                   22517073.5274
 11  8 27  0 45 30.0000000  0  8G17G10G29G12G04G05G02G25
 -33177475.68746 -25818139.23443  24442823.5164                   24442826.3444
 -29182950.28548 -22713719.80945  21603515.4924                   21603514.4304
   2868397.59446   2271323.81642  24670592.4694                   24670593.8714
 -28588003.71148 -22243408.18746  20832164.0944                   20832162.3134
 -29265371.40246 -22767743.70344  23377098.3984                   23377099.3444
 -27905285.09448 -21729401.90247  20605572.3674                   20605571.7624
 -35550832.32048 -27667498.30146  20948696.7194                   20948693.9144
 -13198893.55947  -9394189.02745  22497866.0704                   22497867.0634
 11  8 27  0 46  0.0000000  0  8G17G10G29G12G04G05G02G25
 -33140518.24246 -25789341.22743  24449855.9064                   24449859.7544
 -29152363.27048 -22689885.77745  21609335.7114                   21609335.4774
   2753985.49246   2182171.59042  24648820.7584                   24648822.0314
 -28627365.78148 -22274079.92646  20824673.7274                   20824671.9694
 -29218490.98046 -22731213.57044  23386019.4384                   23386020.4964
 -27981575.18448 -21788848.68047  20591054.9844                   20591054.2074
 -35562054.80948 -27676243.09846  20946561.6334                   20946558.1914
 -13299353.19547  -9472469.19545  22478749.1024                   22478750.7114
 11  8 27  0 46 30.0000000  0  8G17G10G29G12G04G05G02G25
 -33103349.60246 -25760378.64843  24456929.8054                   24456932.5124
 -29121264.43048 -22665652.91845  21615254.0164                   21615252.9574
   2639512.58646   2092971.94542  24627036.1564                   24627038.9574
 -28666125.81248 -22304282.53546  20817298.0234                   20817296.1134
 -29171614.01246 -22694686.12544  23394940.4534                   23394940.9774
 -28057301.18048 -21847855.90247  20576644.7424                   20576643.8874
 -35573100.18448 -27684849.87946  20944459.7734                   20944456.3954
 -13399346.78147  -9550386.21945  22459720.5864                   22459722.5314
 11  8 27  0 47  0.0000000  0  8G17G10G29G12G04G05G02G25
 -33065966.07846 -25731248.61343  24464043.6724                   24464045.7934
 -29089652.56248 -22641020.30545  21621269.7274                   21621268.7154
   2524983.31646   2003728.41443  24605242.1954                   24605244.2894
 -28704280.38748 -22334013.36346  20810037.4454                   20810036.0514
 -29124737.67646 -22658159.17244  23403859.7504                   23403861.3404
 -28132458.06248 -21906419.66447  20562342.6414                   20562341.8014
 -35583966.16848 -27693316.88746  20942391.8834                   20942388.1484
 -13498868.53947  -9627935.58245  22440782.6724                   22440784.2384
 11  8 27  0 47 30.0000000  0  8G17G10G29G12G04G05G02G25
 -33028375.46146 -25701957.23443  24471197.3754                   24471199.8094
 -29057537.41048 -22615995.52045  21627380.5784                   21627379.6844
   2410390.71546   1914435.53143  24583436.3284                   24583437.9734
 -28741836.83648 -22363278.12546  20802890.7664                   20802889.0274
 -29077870.28146 -22621639.21944  23412779.1954                   23412780.5984
 -28207052.08648 -21964544.83247  20548148.0004                   20548146.8204
 -35594660.77748 -27701650.34446  20940356.7974                   20940353.7424
 -13597923.80147  -9705121.44945  22421932.9064                   22421934.4264
 11  8 27  0 48  0.0000000  0  8G17G10G29G12G04G05G02G25
 -32990569.02746 -25672497.66043  24478391.0864                   24478393.5704
 -29024912.96148 -22590573.87545  21633588.8524                   21633588.5824
   2295744.12146   1825100.62143  24561619.1564                   24561620.8524
 -28778785.97348 -22392069.65646  20795859.6174                   20795857.9734
 -29031004.42646 -22585120.43444  23421697.6884                   23421698.6844
 -28281073.94548 -22022224.16047  20534061.9774                   20534061.0634
 -35605176.48848 -27709844.41446  20938355.4614                   20938352.2624
 -13696501.81247  -9781935.42645  22403174.1644                   22403175.7384
 11  8 27  0 48 30.0000000  0  8G17G10G29G12G04G05G02G25
 -32952541.26646 -25642865.58643  24485627.0784                   24485630.1374
 -28991775.59448 -22564752.55545  21639894.8754                   21639894.3754
   2181049.83246   1735728.55943  24539794.3984                   24539795.0234
 -28815121.77748 -22420383.26646  20788945.1564                   20788943.1524
 -28984134.81247 -22548598.75844  23430616.8444                   23430617.4884
 -28354516.16048 -22079451.80147  20520086.2814                   20520085.3134
 -35615508.50048 -27717895.32846  20936389.6024                   20936386.2774
 -13794594.41447  -9858371.15245  22384507.0704                   22384509.0864
 11  8 27  0 49  0.0000000  0  8G17G10G29G12G04G05G02G25
 -32914301.25446 -25613068.16443  24492904.5234                   24492906.6294
 -28958137.19148 -22538540.82445  21646295.9924                   21646295.5594
   2066299.57046   1646312.82043  24517957.9924                   24517958.9574
 -28850853.36348 -22448226.05546  20782145.5704                   20782144.3444
 -28937271.19947 -22512081.74244  23439534.6094                   23439535.8554
 -28427386.73048 -22136234.02347  20506219.4694                   20506218.7384
 -35625666.82448 -27725810.91846  20934456.5314                   20934453.0664
 -13892208.53147  -9934434.05145  22365932.4064                   22365933.6294
 11  8 27  0 49 30.0000000  0  8G17G10G29G12G04G05G02G25
 -32875855.40246 -25583110.30943  24500220.1724                   24500222.1644
 -28924006.68448 -22511945.60945  21652791.0634                   21652790.1414
   1951487.49246   1556849.01642  24496109.4144                   24496111.1134
 -28885986.96548 -22475602.87546  20775459.9924                   20775458.4344
 -28890420.93747 -22475575.09444  23448449.8984                   23448450.7034
 -28499691.14148 -22192575.07447  20492460.0704                   20492459.1844
 -35635658.97748 -27733597.00046  20932555.6884                   20932551.8484
 -13989348.38347 -10010127.36345  22347446.7274                   22347448.2934
 11  8 27  0 50  0.0000000  0  7G10G29G12G04G05G02G25
 -28889384.64848 -22484967.39145  21659379.1024                   21659378.4924
   1836616.21946   1467338.98842  24474250.3914                   24474251.6134
 -28920520.42648 -22502512.05146  20768888.6564                   20768887.0634
 -28843583.01647 -22439078.05144  23457362.1484                   23457363.8324
 -28571426.43048 -22248472.64147  20478809.6254                   20478808.4264
 -35645484.22748 -27741253.02746  20930685.5234                   20930681.9774
 -14086010.05547 -10085448.07845  22329052.7274                   22329054.8054
 11  8 27  0 50 30.0000000  0  7G10G29G12G04G05G02G25
 -28854256.19147 -22457594.58245  21666063.9064                   21666063.4494
   1721703.63346   1377796.85543  24452382.9304                   24452384.8984
 -28954436.34048 -22528940.03946  20762434.5164                   20762433.0474
 -28796740.88347 -22402577.76644  23466276.5704                   23466277.3244
 -28642574.04748 -22303912.30547  20465270.3674                   20465269.6214
 -35655125.78548 -27748765.94546  20928850.5474                   20928847.1644
 -14182173.97748 -10160380.95745  22310753.1884                   22310754.8324
 11  8 27  0 51  0.0000000  0  7G10G29G12G04G05G02G25
 -28818638.25448 -22429840.35245  21672841.6024                   21672841.2034
   1606736.39846   1288212.13342  24430504.2114                   24430507.3524
 -28987749.02748 -22554897.96546  20756095.0944                   20756093.3204
 -28749909.50447 -22366085.84844  23475188.7814                   23475189.3954
 -28713147.32448 -22358904.42647  20451840.7274                   20451839.7894
 -35664599.04748 -27756147.70746  20927047.9064                   20927044.5744
 -14277852.41047 -10234935.52345  22292546.0784                   22292548.0634
 11  8 27  0 51 30.0000000  0  7G10G29G12G04G05G02G25
 -28782524.82848 -22401700.01645  21679713.7114                   21679713.4454
   1491723.44546   1198591.74242  24408618.0944                   24408620.2934
 -29020449.82448 -22580379.09446  20749871.9534                   20749870.5514
 -28703081.21547 -22329596.32044  23484100.1254                   23484100.4384
 -28783137.00048 -22413441.77347  20438522.3754                   20438521.1054
 -35673896.84448 -27763392.73046  20925278.7274                   20925275.6054
 -14373034.75448 -10309103.53945  22274433.6024                   22274435.1994
 11  8 27  0 52  0.0000000  0  7G10G29G12G04G05G02G25
 -28745914.90648 -22373172.82045  21686680.6254                   21686680.2774
   1376669.18046   1108939.22743  24386724.2034                   24386726.2114
 -29052534.78548 -22605380.34846  20743766.5944                   20743765.4614
 -28656253.13747 -22293106.94543  23493010.3984                   23493011.6684
 -28852538.12948 -22467520.52747  20425315.6644                   20425314.7704
 -35683016.04748 -27770498.59846  20923543.3594                   20923540.2894
 -14467715.25447 -10382880.50845  22256416.5784                   22256417.7344
 11  8 27  0 52 30.0000000  0  7G10G29G12G04G05G02G25
 -28708817.11748 -22344265.44945  21693739.9384                   21693739.5634
   1261568.12146   1019250.25043  24364821.6804                   24364822.9494
 -29084010.43448 -22629906.81246  20737777.1174                   20737775.4264
 -28609432.10546 -22256623.04743  23501919.6954                   23501921.1914
 -28921355.97748 -22521144.78147  20412220.0004                   20412218.8754
 -35691963.91848 -27777470.94546  20921840.5164                   20921837.4924
 -14561898.02048 -10456269.64545  22238494.0864                   22238495.3954
 11  8 27  0 53  0.0000000  0  7G10G29G12G04G05G02G25
 -28671227.87547 -22314975.14145  21700893.2194                   21700892.7424
   1146427.19146    929530.25843  24342911.1024                   24342912.3954
 -29114870.65248 -22653953.73046  20731904.6414                   20731903.0474
 -28562613.15246 -22220140.77343  23510829.3284                   23510830.6174
 -28989583.68048 -22574309.18047  20399236.8204                   20399235.6214
 -35700735.27348 -27784305.76246  20920171.4694                   20920168.3134
 -14655574.92248 -10529264.58645  22220668.0394                   22220669.8754
 11  8 27  0 53 30.0000000  0  7G10G29G12G04G05G02G25
 -28633155.67247 -22285308.48445  21708138.0474                   21708137.7234
   1031241.39846    839775.23042  24320992.0944                   24320992.7154
 -29145121.61748 -22677525.89546  20726148.2424                   20726146.3674
 -28515802.40647 -22183664.88743  23519737.2504                   23519738.0864
 -29057226.01648 -22627017.44947  20386364.7734                   20386363.4344
 -35709336.81248 -27791008.24646  20918534.7974                   20918531.3444
 -14748749.60947 -10601868.19145  22202937.5164                   22202939.0274
 11  8 27  0 54  0.0000000  0  7G10G29G12G04G05G02G25
 -28594602.78548 -22255267.27345  21715474.1724                   21715473.2894
    916011.48446    749985.82043  24299063.3914                   24299065.2194
 -29174762.96548 -22700623.04746  20720507.4774                   20720506.0084
 -28469000.36747 -22147195.77343  23528644.4384                   23528644.5274
 -29124281.67248 -22679268.56247  20373604.1884                   20373603.2584
 -35717769.39848 -27797579.09046  20916930.0234                   20916926.3984
 -14841419.84447 -10674078.73045  22185302.6724                   22185304.4064
 11  8 27  0 54 30.0000000  0  7G10G29G12G04G05G02G25
 -28555589.79348 -22224867.55145  21722898.3054                   21722898.2504
    800720.50446    660148.86743  24277123.7194                   24277126.0784
 -29203812.24648 -22723258.83646  20714979.8674                   20714978.7734
 -28422225.82447 -22110748.08244  23537544.9384                   23537545.8284
 -29190767.84848 -22731075.93047  20360952.5164                   20360951.4454
 -35726051.53148 -27804032.68746  20915353.9384                   20915350.4654
 -14933601.46947 -10745908.51645  22167761.2424                   22167762.8674
 11  8 27  0 55  0.0000000  0  7G10G29G12G04G05G02G25
 -28516093.70748 -22194091.39545  21730414.1414                   21730413.7894
    685394.97346    570284.94543  24255178.8984                   24255179.8164
 -29232243.99248 -22745413.43046  20709569.4064                   20709567.5234
 -28375453.63747 -22074302.21944  23546444.8444                   23546446.5514
 -29256657.87948 -22782418.77047  20348414.0164                   20348413.2734
 -35734158.58648 -27810349.86746  20913811.3204                   20913807.3874
 -15025266.78547 -10817336.00045  22150317.9064                   22150319.2544
 11  8 27  0 55 30.0000000  0  7G10G29G12G04G05G02G25
 -28476136.90648 -22162956.22745  21738017.4534                   21738017.3094
    570015.41446    480378.91443  24233222.6954                   24233224.1454
 -29260078.87148 -22767102.93446  20704272.1644                   20704270.6254
 -28328704.52047 -22037874.32044  23555340.7034                   23555342.9184
 -29321970.80948 -22833311.91447  20335985.1954                   20335984.2774
 -35742111.32848 -27816546.79346  20912297.9384                   20912294.5704
 -15116433.75047 -10888375.15645  22132969.0634                   22132970.6294
 11  8 27  0 56  0.0000000  0  7G10G29G12G04G05G02G25
 -28435723.81247 -22131465.52745  21745708.1414                   21745707.3634
    454580.99246    390430.08243  24211256.1484                   24211257.6684
 -29287318.52048 -22788328.62546  20699088.9064                   20699086.9454
 -28281980.66047 -22001466.13344  23564232.3364                   23564234.1254
 -29386707.99648 -22883756.43047  20323666.0314                   20323665.6174
 -35749912.64848 -27822625.73046  20910813.2424                   20910810.3524
 -15207102.23447 -10959025.89145  22115715.6334                   22115717.1884
 11  8 27  0 56 30.0000000  0  7G10G29G12G04G05G02G25
 -28394851.87148 -22099617.25045  21753485.6094                   21753485.0474
    339097.65446    300443.16043  24189280.0784                   24189281.5634
 -29313958.00448 -22809086.66046  20694019.6254                   20694017.7504
 -28235277.95747 -21965074.41844  23573120.2664                   23573121.1254
 -29450863.43448 -22933747.64547  20311457.9304                   20311456.9614
 -35757558.30148 -27828583.36746  20909358.1484                   20909354.7894
 -15297265.12547 -11029282.66445  22098558.0394                   22098559.6374
 11  8 27  0 57  0.0000000  0  7G10G29G12G04G05G02G25
 -28353517.17248 -22067408.40645  21761351.5784                   21761351.2814
    223573.44146    210424.35943  24167297.1094                   24167297.8134
 -29339990.49248 -22829371.72346  20689065.6484                   20689063.7234
 -28188590.17247 -21928694.35244  23582003.7974                   23582004.9774
 -29514429.15648 -22983279.33247  20299361.5704                   20299360.9414
 -35765041.91448 -27834414.74646  20907934.2274                   20907931.0204
 -15386913.44947 -11099138.46545  22081498.3364                   22081500.0274
 11  8 27  0 57 30.0000000  0  7G10G29G12G04G05G02G25
 -28311719.78548 -22034839.01645  21769305.1954                   21769304.5594
    108011.27046    120375.96543  24145306.0084                   24145306.8524
 -29365413.74248 -22849182.04746  20684227.7664                   20684226.4534
 -28141915.09047 -21892324.16843  23590885.5864                   23590887.2814
 -29577401.96948 -23032349.01647  20287378.4694                   20287377.1914
 -35772361.80948 -27840118.55146  20906541.2814                   20906537.7774
 -15476042.84048 -11168589.89845  22064538.0314                   22064539.2344
 11  8 27  0 58  0.0000000  0  7G10G29G12G04G05G02G25
 -28269465.42247 -22001913.53545  21777345.6174                   21777345.4184
     -7590.57046     30296.68443  24123307.4144                   24123309.3634
 -29390231.06248 -22868520.22346  20679505.3754                   20679503.6954
 -28095256.44547 -21855966.79743  23599764.7664                   23599765.9964
 -29639784.18748 -23080958.49647  20275507.3594                   20275506.2034
 -35779522.21148 -27845698.07846  20905178.9694                   20905175.5594
 -15564654.42248 -11237637.87145  22047675.7504                   22047677.1334
 11  8 27  0 58 30.0000000  0  7G10G29G12G04G05G02G25
 -28226754.13348 -21968632.02745  21785473.5554                   21785473.1374
   -123229.46146    -59811.52743  24101302.4144                   24101303.5274
 -29414440.43048 -22887384.66046  20674898.3054                   20674896.9384
 -28048612.84447 -21819621.16443  23608641.4614                   23608641.8244
 -29701573.16048 -23129105.70747  20263749.3524                   20263747.8524
 -35786521.87948 -27851152.35246  20903846.3674                   20903843.0944
 -15652744.12147 -11306279.15645  22030912.6564                   22030914.2664
 11  8 27  0 59  0.0000000  0  7G10G29G12G04G05G02G25
 -28183592.77048 -21934999.80945  21793686.9844                   21793686.3364
   -238908.32046   -149950.84043  24079290.3834                   24079290.5864
 -29438046.73048 -22905779.19146  20670406.3834                   20670404.7664
 -28001988.77747 -21783290.75444  23617513.3204                   23617514.1024
 -29762772.04348 -23176793.10547  20252103.9304                   20252102.3594
 -35793365.31648 -27856484.89146  20902544.5164                   20902540.5474
 -15740313.96547 -11374515.37545  22014248.6954                   22014249.5824
 11  8 27  0 59 30.0000000  0  7G10G29G12G04G05G02G25
 -28139993.30948 -21901026.20745  21801983.6884                   21801983.1914
   -354635.41046   -240127.76243  24057267.5944                   24057267.9344
 -29461059.02048 -22923710.85246  20666027.2424                   20666025.5594
 -27955393.88747 -21746983.09043  23626379.7974                   23626382.0164
 -29823389.27748 -23224027.27347  20240568.5314                   20240567.0664
 -35800062.45748 -27861703.43046  20901270.1254                   20901266.7114
 -15827371.15648 -11442352.14145  21997682.3984                   21997683.2584
 11  8 27  1  0  0.0000000  0  7G10G29G12G04G05G02G25
 -28095946.41847 -21866703.97345  21810365.4774                   21810365.0634
   -470397.73046   -330332.12543  24035237.9384                   24035238.7344
 -29483465.91848 -22941170.77746  20661763.2974                   20661761.5394
 -27908817.43746 -21710689.76643  23635242.6954                   23635245.1844
 -29883412.60948 -23270798.66447  20229146.4844                   20229145.0274
 -35806602.55948 -27866799.61746  20900025.4694                   20900022.1094
 -15913902.26648 -11509778.96945  21981216.0704                   21981217.6724
 11  8 27  1  0 30.0000000  0  7G10G29G12G04G05G02G25
 -28051461.49247 -21832040.40645  21818830.7734                   21818830.1994
   -586201.43746   -420568.69143  24013201.6414                   24013201.8674
 -29505274.05948 -22958164.13746  20657613.3674                   20657611.8014
 -27862265.82847 -21674415.78143  23644101.7814                   23644103.1724
 -29942847.83648 -23317111.78547  20217836.3754                   20217834.6994
 -35812993.29748 -27871779.40646  20898809.1254                   20898806.0234
 -15999911.78548 -11576799.35546  21964848.3134                   21964850.3324
 11  8 27  1  1  0.0000000  0  7G10G29G12G04G05G02G25
 -26431117.31648 -20569434.57445  22127171.7814                   22127170.9884
    873383.81346    716770.53543  24290951.3444                   24290952.1254
 -27951058.21148 -21747086.86346  20953370.5004                   20953369.6884
 -26240316.07047 -20410558.85943  23952749.0164                   23952749.6254
 -28426266.97348 -22135360.42247  20506431.9384                   20506430.3134
 -34243809.05548 -26649038.43746  21197415.2114                   21197411.9694
 -14509969.59848 -10415805.43045  22248375.2664                   22248376.7704
 11  8 27  1  1 30.0000000  0  7G10G29G12G04G05G02G25
 -26385749.51248 -20534083.04345  22135805.2584                   22135804.9024
    757515.60546    626483.68843  24268901.9534                   24268903.1604
 -27971655.77748 -21763136.91846  20949451.0234                   20949449.4734
 -26193801.46547 -20374313.75844  23961600.0394                   23961600.7384
 -28484509.22348 -22180743.94947  20495348.7034                   20495347.2344
 -34249887.03948 -26653774.52346  21196258.4454                   21196255.1094
 -14594915.57448 -10481997.09046  22232210.5554                   22232212.1054
 11  8 27  1  2  0.0000000  0  7G10G29G12G04G05G02G25
 -26339959.30147 -20498402.37945  22144518.8284                   22144518.3794
    641601.94546    536161.44543  24246843.8524                   24246845.9064
 -27991663.39848 -21778727.27746  20945644.0084                   20945642.6134
 -26147320.67247 -20338094.98843  23970445.0634                   23970446.1294
 -28542169.01648 -22225673.62147  20484376.4924                   20484374.8164
 -34255824.83648 -26658401.37946  21195128.6804                   21195125.3404
 -14679341.64148 -10547783.63346  22216144.9614                   22216146.4774
 11  8 27  1  2 30.0000000  0  7G10G29G12G04G05G02G25
 -26293739.13747 -20462386.67645  22153314.0314                   22153313.7304
    525653.59446    445812.19143  24224780.5784                   24224781.0984
 -28011071.66448 -21793850.60546  20941951.0004                   20941949.0394
 -26100864.51247 -20301895.40243  23979284.8674                   23979287.1484
 -28599235.77348 -22270141.18047  20473516.9614                   20473515.4774
 -34261613.26648 -26662911.84046  21194027.1414                   21194023.8164
 -14763236.15648 -10613155.98446  22200180.5944                   22200181.6764
 11  8 27  1  3  0.0000000  0  7G10G29G12G04G05G02G25
 -26247105.74248 -20426048.98845  22162188.2424                   22162187.4574
    409657.28546    355425.51243  24202706.4144                   24202707.1724
 -28029895.13748 -21808518.25046  20938368.4924                   20938366.6684
 -26054447.38347 -20265726.22744  23988118.1024                   23988120.1374
 -28655723.08248 -22314157.23047  20462767.7344                   20462766.5044
 -34267267.27748 -26667317.55546  21192951.2274                   21192947.8164
 -14846611.52048 -10678123.80146  22184314.4144                   22184315.9144
 11  8 27  1  3 30.0000000  0  7G10G29G12G04G05G02G25
 -26200042.43747 -20389376.29345  22171144.2344                   22171143.7624
    293633.80146    265017.71943  24180627.9844                   24180629.5904
 -28048114.58248 -21822715.22746  20934901.6644                   20934899.5084
 -26008050.38747 -20229572.76244  23996947.7504                   23996949.2194
 -28711611.30548 -22357706.45347  20452132.3914                   20452131.1724
 -34272768.28148 -26671604.04346  21191904.6804                   21191900.8484
 -14929446.48848 -10742670.52746  22168551.5314                   22168553.1644
 11  8 27  1  4  0.0000000  0  7G10G29G12G04G05G02G25
 -26152566.46947 -20352382.05945  22180178.4534                   22180178.3874
    177569.89846    174578.41443  24158542.1644                   24158542.7424
 -28065744.84048 -21836453.09446  20931546.6094                   20931545.3794
 -25961688.50047 -20193446.65244  24005770.0314                   24005770.8484
 -28766913.73048 -22400799.21947  20441608.7734                   20441607.3364
 -34278131.09848 -26675782.85546  21190884.0704                   21190880.6174
 -15011753.64848 -10806805.97346  22152889.0944                   22152890.6644
 11  8 27  1  4 30.0000000  0  7G10G29G12G04G05G02G25
 -26104670.99647 -20315060.94145  22189292.6804                   22189292.0784
     61475.73446     84115.53544  24136449.5864                   24136450.7194
 -28082777.43048 -21849725.24646  20928305.6254                   20928304.0944
 -25915352.68446 -20157340.88743  24014586.5634                   24014588.2974
 -28821621.40248 -22443428.53147  20431198.0864                   20431196.9734
 -34283346.92648 -26679847.12946  21189891.3284                   21189888.0044
 -15093521.83248 -10870521.43446  22137329.3594                   22137330.7774
 11  8 27  1  5  0.0000000  0  7G10G29G12G04G05G02G25
 -26056358.81647 -20277415.09445  22198486.0474                   22198485.4384
    -54647.86746     -6370.30144  24114352.0004                   24114353.1214
 -28099213.62148 -21862532.67246  20925177.6884                   20925176.2704
 -25869043.46546 -20121255.81243  24023399.4774                   24023400.5634
 -28875733.52048 -22485593.78947  20420901.0084                   20420899.8014
 -34288416.81648 -26683797.69946  21188926.5864                   21188923.3834
 -15174749.43048 -10933815.66046  22121872.0474                   22121873.4494
 11  8 27  1  5 30.0000000  0  7G10G29G12G04G05G02G25
 -26007630.14147 -20239444.71545  22207758.9694                   22207758.1914
   -170796.87946    -96875.91844  24092249.2424                   24092250.6524
 -28115050.44548 -21874873.05946  20922164.2734                   20922162.4884
 -25822758.44946 -20085189.62544  24032207.4614                   24032209.2304
 -28929246.80148 -22527292.41847  20410717.6804                   20410716.6414
 -34293338.56248 -26687632.81646  21187990.1484                   21187987.0204
 -15255432.08648 -10996685.23846  22106518.3054                   22106519.6134
 11  8 27  1  6  0.0000000  0  7G10G29G12G04G05G02G25
 -25958493.68047 -20201156.58245  22217109.5394                   22217108.7154
   -286976.27747   -187405.25044  24070141.8594                   24070142.1054
 -28130294.81648 -21886751.79346  20919263.3284                   20919261.5434
 -25776504.28147 -20049147.41844  24041009.6174                   24041011.0124
 -28982167.02048 -22568528.92247  20400647.1804                   20400645.8284
 -34298118.95348 -26691357.78946  21187080.5704                   21187077.4654
 -15335574.08248 -11059133.51646  22091267.6724                   22091269.3324
 11  8 27  1  6 30.0000000  0  7G10G29G12G04G05G02G25
 -25908957.50047 -20162556.98845  22226535.7274                   22226535.3094
   -403190.37546   -277961.59044  24048026.1024                   24048027.6414
 -28144952.52048 -21898173.37946  20916474.0634                   20916472.2504
 -25730286.64147 -20013133.68443  24049804.0634                   24049805.9264
 -29034499.42648 -22609307.38747  20390688.6094                   20390687.3634
 -34302764.42248 -26694977.63346  21186196.4224                   21186193.2504
 -15415179.20748 -11121163.44946  22076119.3054                   22076120.7814
 11  8 27  1  7  0.0000000  0  7G10G29G12G04G05G02G25
 -25859009.37947 -20123636.39545  22236040.9694                   22236040.1374
   -519423.11347   -368532.46144  24025908.2664                   24025908.4304
 -28159009.48448 -21909126.85546  20913798.9304                   20913797.4384
 -25684090.80547 -19977136.94143  24058594.9304                   24058595.8324
 -29086228.36348 -22649615.61747  20380844.8834                   20380843.5314
 -34307260.41848 -26698480.99646  21185340.4224                   21185337.4144
 -15494230.62547 -11182761.92246  22061076.0944                   22061078.2194
 11  8 27  1  7 30.0000000  0  7G10G29G12G04G05G02G25
 -25808669.93747 -20084410.89545  22245620.1174                   22245620.0784
   -635691.67647   -459131.25844  24003782.6334                   24003782.9534
 -28172484.69548 -21919627.02746  20911234.9224                   20911233.0984
 -25637935.45346 -19941171.76643  24067378.4534                   24067378.0634
 -29137371.81248 -22689467.62547  20371112.5784                   20371110.7974
 -34311625.57848 -26701882.41046  21184510.1564                   21184506.7424
 -15572744.97348 -11243941.89846  22046135.6724                   22046137.2584
 11  8 27  1  8  0.0000000  0  7G10G29G12G04G05G02G25
 -25757942.89547 -20044883.35945  22255273.0634                   22255272.7344
   -751995.59047   -549757.62144  23981650.8284                   23981650.7504
 -28185379.60548 -21929675.02046  20908780.8834                   20908779.3754
 -25591821.62146 -19905238.96143  24076153.2734                   24076154.1214
 -29187930.31648 -22728863.83247  20361491.7114                   20361490.2424
 -34315861.49648 -26705183.13746  21183704.3914                   21183700.4694
 -15650721.43448 -11304702.74646  22031297.3054                   22031298.8284
 11  8 27  1  8 30.0000000  0  7G10G29G12G04G05G02G25
 -25706821.99247 -20005048.91045  22265000.6724                   22265000.8754
   -868324.60247   -640403.49644  23959513.9694                   23959514.2384
 -28197685.48448 -21939264.02046  20906439.2734                   20906437.8134
 -25545740.58246 -19869331.66843  24084922.2974                   24084924.1094
 -29237894.39848 -22767796.84047  20351984.1254                   20351982.3984
 -34319959.53148 -26708376.41446  21182924.5554                   21182921.3754
 -15728149.11747 -11365035.96146  22016563.4774                   22016564.6954
 11  8 27  1  9  0.0000000  0  7G10G29G12G04G05G02G25
 -25655326.36347 -19964922.48045  22274800.9454                   22274800.2114
   -984694.25047   -731081.08244  23937369.3594                   23937370.3834
 -28209419.99248 -21948407.80146  20904206.3594                   20904204.6914
 -25499709.50446 -19833463.29743  24093681.7584                   24093683.7504
 -29287280.64548 -22806279.60947  20342586.2344                   20342584.5314
 -34323937.23448 -26711475.92246  21182167.3364                   21182164.0664
 -15805043.23848 -11424953.41846  22001931.0944                   22001931.8444
 11  8 27  1  9 30.0000000  0  7G10G29G12G04G05G02G25
 -25603428.95747 -19924482.95345  22284675.8204                   22284675.7034
  -1101073.43047   -821766.06644  23915223.2894                   23915223.9534
 -28220553.87948 -21957083.55946  20902087.6024                   20902086.1564
 -25453698.79746 -19797610.85543  24102437.4614                   24102439.0704
 -29336058.90648 -22844288.61747  20333303.8284                   20333302.6764
 -34327765.25448 -26714458.79746  21181438.7344                   21181435.8094
 -15881372.47348 -11484430.69946  21987405.7344                   21987407.2154
 11  8 27  1 10  0.0000000  0  7G10G29G12G04G05G02G25
 -25551156.08247 -19883750.87145  22294623.5084                   22294623.0044
  -1217484.66447   -912476.05144  23893071.0784                   23893071.1254
 -28231111.70348 -21965310.44546  20900078.4454                   20900076.9024
 -25407732.13746 -19761792.73443  24111183.7504                   24111185.8164
 -29384252.56248 -22881842.08647  20324133.1024                   20324131.5234
 -34331467.51648 -26717343.66846  21180733.9924                   21180731.1024
 -15957158.60948 -11543484.79746  21972984.3364                   21972985.7384
 11  8 27  1 10 30.0000000  0  7G10G29G12G04G05G02G25
 -25498502.62147 -19842722.21545  22304642.9144                   22304642.4614
  -1333918.57447  -1003203.70344  23870914.3674                   23870915.0984
 -28241086.48048 -21973083.00846  20898180.3134                   20898178.7034
 -25361801.92646 -19726003.02343  24119923.8674                   24119926.1764
 -29431853.28548 -22918933.53147  20315074.8594                   20315073.3284
 -34335036.88348 -26720124.98846  21180054.9774                   21180051.3984
 -16032392.27048 -11602108.40246  21958668.0864                   21958668.9264
 11  8 27  1 11  0.0000000  0  7G10G29G12G04G05G02G25
 -25445474.97347 -19801401.98445  22314733.8364                   22314733.4224
  -1450377.69147  -1093951.00044  23848752.9384                   23848753.3524
 -28250482.43048 -21980404.53146  20896392.5234                   20896390.8714
 -25315912.25846 -19690244.91843  24128656.2034                   24128658.6844
 -29478864.84048 -22955565.87947  20306128.7424                   20306127.2734
 -34338477.57848 -26722806.05146  21179400.5084                   21179397.0704
 -16107075.48448 -11660303.08646  21944456.1564                   21944457.5664
 11  8 27  1 11 30.0000000  0  7G10G29G12G04G05G02G25
 -25392082.48447 -19759797.45745  22324894.2734                   22324893.6054
  -1566867.16847  -1184721.95344  23826585.2814                   23826586.5084
 -28259306.98048 -21987280.80946  20894712.8834                   20894711.6054
 -25270069.67246 -19654523.47743  24137380.8914                   24137382.1914
 -29525293.44548 -22991743.98847  20297293.6724                   20297292.0434
 -34341796.55148 -26725392.26246  21178768.6644                   21178765.4184
 -16181213.28548 -11718072.77046  21930348.1484                   21930349.4104
 11  8 27  1 12  0.0000000  0  7G10G29G12G04G05G02G25
 -25338312.24247 -19717898.59445  22335126.1484                   22335125.9024
  -1683370.58247  -1275503.78944  23804415.5704                   23804415.4654
 -28267545.72748 -21993700.62146  20893145.2584                   20893143.6844
 -25224259.18046 -19618827.05543  24146098.0784                   24146099.3284
 -29571123.66848 -23027455.81247  20288572.4454                   20288570.6844
 -34344979.00848 -26727872.09846  21178163.2894                   21178159.9574
 -16254788.85248 -11775404.35546  21916347.0864                   21916348.4964
 11  8 27  1 12 30.0000000  0  7G10G29G12G04G05G02G25
 -25284179.52747 -19675717.26645  22345427.0084                   22345426.8914
  -1799899.11347  -1366305.17244  23782240.9694                   23782241.6954
 -28275211.85548 -21999674.23046  20891686.4454                   20891684.8674
 -25178493.59846 -19583165.64144  24154807.5634                   24154809.3914
 -29616367.74248 -23062710.90647  20279962.7584                   20279961.0204
 -34348038.02348 -26730255.73846  21177580.5944                   21177577.5824
 -16327813.18448 -11832306.41446  21902450.9224                   21902451.9844
 11  8 27  1 13  0.0000000  0  8G26G10G29G12G04G05G02G25
   4543169.54356   3565330.99653  24835617.0944                   24835624.0164
 -25229679.77347 -19633249.94945  22355798.4534                   22355798.0904
  -1916443.79347  -1457119.14144  23760062.9144                   23760063.2384
 -28282299.05548 -22005196.73046  20890337.7734                   20890336.0594
 -25132765.74246 -19547533.62943  24163509.0394                   24163511.0594
 -29661018.46548 -23097503.64147  20271465.8284                   20271464.4064
 -34350966.69948 -26732537.81646  21177023.4924                   21177020.5394
 -16400277.38348 -11888772.00046  21888661.4614                   21888662.0164
 11  8 27  1 13 30.0000000  0  8G26G10G29G12G04G05G02G25
   4418571.35246   3468241.77343  24811907.1414                   24811913.6914
 -25174812.33647 -19590496.11345  22366239.5234                   22366238.8284
  -2033000.50447  -1547942.49244  23737883.1724                   23737883.5124
 -28288805.14148 -22010266.41446  20889100.0554                   20889098.4494
 -25087072.66446 -19511928.68443  24172204.4384                   24172205.5744
 -29705072.39548 -23131831.35247  20263082.6884                   20263081.2814
 -34353762.69548 -26734716.51646  21176491.6484                   21176488.3444
 -16472176.99248 -11944797.64146  21874979.1024                   21874980.3794
 11  8 27  1 14  0.0000000  0  8G26G10G29G12G04G05G02G25
   4293839.60246   3371048.49643  24788172.8284                   24788175.9654
 -25119593.23847 -19547468.27345  22376746.8914                   22376747.1804
  -2149581.04347  -1638784.41844  23715698.7974                   23715699.1914
 -28294744.20748 -22014894.26246  20887969.4454                   20887968.0864
 -25041427.44946 -19476361.05143  24180890.9224                   24180891.5354
 -29748542.64148 -23165704.23447  20254810.5314                   20254808.8244
 -34356439.35948 -26736802.22746  21175982.5784                   21175979.0824
 -16543523.49648 -12000392.30546  21861402.5634                   21861403.6914
 11  8 27  1 14 30.0000000  0  8G26G10G29G12G04G05G02G25
   4168989.95746   3273763.33643  24764414.3594                   24764417.6174
 -25064012.14547 -19504158.32845  22387323.9694                   22387323.8324
  -2266171.01647  -1729633.67244  23693512.0474                   23693512.3364
 -28300104.02048 -22019070.74246  20886949.8914                   20886948.3054
 -24995817.44946 -19440820.84843  24189569.0314                   24189570.2934
 -29791416.13748 -23199112.11347  20246651.8914                   20246650.4694
 -34358984.10947 -26738785.14546  21175497.9774                   21175494.3364
 -16614302.53948 -12055544.78546  21847933.7584                   21847935.1724
 11  8 27  1 15  0.0000000  0  8G26G10G29G12G04G05G02G25
   4044022.38746   3176386.27043  24740632.7344                   24740636.4264
 -25008075.00447 -19460570.96545  22397968.7814                   22397967.9224
  -2382772.19147  -1820491.68744  23671324.0314                   23671323.8714
 -28304888.84048 -22022799.17646  20886039.1484                   20886037.6684
 -24950246.13746 -19405310.81643  24198241.0474                   24198242.9344
 -29833696.36348 -23232057.70747  20238606.3594                   20238604.4774
 -34361400.76648 -26740668.25846  21175038.1954                   21175034.8794
 -16684516.02748 -12110256.57846  21834572.3984                   21834573.9694
 11  8 27  1 15 30.0000000  0  8G26G10G29G12G04G05G02G25
   3918932.43446   3078913.85543  24716829.6334                   24716832.3054
 -24951791.82447 -19416713.94945  22408678.7584                   22408678.3284
  -2499390.77347  -1911363.27744  23649131.9454                   23649132.3834
 -28309107.12948 -22026086.16046  20885236.1414                   20885234.9344
 -24904720.85546 -19369836.64143  24206904.6954                   24206906.3554
 -29875390.67648 -23264546.75047  20230672.1254                   20230670.4024
 -34363697.15248 -26742457.64546  21174601.1804                   21174597.9184
 -16754169.89148 -12164532.30146  21821318.1804                   21821319.1174
 11  8 27  1 16  0.0000000  0  8G26G10G29G12G04G05G02G25
   3793715.18446   2981342.21543  24693000.2504                   24693003.3364
 -24895173.28947 -19372595.62945  22419452.9304                   22419452.4734
  -2616033.06247  -2002253.30944  23626935.5314                   23626936.2074
 -28312767.78948 -22028938.63346  20884539.6644                   20884538.3444
 -24859249.89546 -19334404.73043  24215557.0394                   24215559.1564
 -29916506.81648 -23296585.26647  20222848.1254                   20222846.5944
 -34365881.64847 -26744159.85246  21174185.7664                   21174182.2034
 -16823270.59848 -12218377.00846  21808168.5474                   21808169.8054
 11  8 27  1 16 30.0000000  0  8G26G10G29G12G04G05G02G25
   3668381.27746   2883679.64543  24669150.2734                   24669153.0904
 -24838214.08247 -19328211.85245  22430291.8284                   22430291.8914
  -2732690.07447  -2093154.83644  23604736.1564                   23604736.4654
 -28315864.30948 -22031351.51246  20883951.1024                   20883949.1414
 -24813825.49646 -19299009.16443  24224201.3284                   24224203.8054
 -29957037.19548 -23328167.34447  20215135.1884                   20215133.6604
 -34367946.95748 -26745769.18446  21173792.6884                   21173789.4654
 -16891809.14848 -12271783.66046  21795126.2504                   21795126.9804
 11  8 27  1 17  0.0000000  0  8G26G10G29G12G04G05G02G25
   3542945.90646   2785938.06643  24645280.6024                   24645283.7974
 -24780905.35747 -19283555.72244  22441197.1724                   22441196.7234
  -2849348.46547  -2184057.41444  23582537.2114                   23582537.6094
 -28318385.71948 -22033316.25446  20883471.0234                   20883469.6684
 -24768435.88346 -19263640.71143  24232839.6334                   24232840.3204
 -29996969.94148 -23359283.73847  20207536.4924                   20207534.5354
 -34369881.47348 -26747276.59046  21173424.3444                   21173421.2424
 -16959772.30148 -12324741.94546  21782192.9384                   21782194.2624
 11  8 27  1 17 30.0000000  0  8G26G10G29G12G04G05G02G25
   3417398.67646   2688109.25443  24621388.7974                   24621393.2384
 -24723263.23447 -19238639.80144  22452165.9694                   22452165.6844
  -2966020.28147  -2274970.46144  23560335.3364                   23560335.5354
 -28320346.38348 -22034844.04346  20883097.7034                   20883096.2934
 -24723094.50846 -19228309.82843  24241467.1414                   24241468.0904
 -30036318.48048 -23389944.90247  20200048.1884                   20200046.6684
 -34371699.15248 -26748692.96546  21173078.5234                   21173075.3324
 -17027172.14848 -12377261.28146  21769367.1804                   21769368.4884
 11  8 27  1 18  0.0000000  0  8G26G10G29G12G04G05G02G25
   3291746.58246   2590198.73843  24597478.5784                   24597482.6134
 -24665286.32447 -19193463.02744  22463198.3054                   22463199.2114
  -3082700.15647  -2365889.77744  23538131.6094                   23538131.9494
 -28321743.06648 -22035932.36746  20882831.9614                   20882830.3984
 -24677797.66846 -19193013.71943  24250086.6094                   24250088.4384
 -30075079.23048 -23420148.04747  20192672.3054                   20192670.8874
 -34373396.47748 -26750015.56646  21172755.7274                   21172752.3324
 -17094003.44148 -12429337.59846  21756649.4614                   21756650.8834
 11  8 27  1 18 30.0000000  0  8G26G10G29G12G04G05G02G25
   3165985.52046   2492203.37143  24573546.5084                   24573551.2894
 -24606984.34847 -19148032.94544  22474293.5314                   22474292.8594
  -3199393.87547  -2456819.90244  23515925.5704                   23515925.5554
 -28322585.02748 -22036588.43746  20882671.8524                   20882670.1454
 -24632552.37547 -19157757.71143  24258697.3054                   24258698.9844
 -30113259.11748 -23449898.58647  20185407.1414                   20185405.4264
 -34374980.79748 -26751250.09846  21172453.7344                   21172450.8874
 -17160272.01248 -12480975.41046  21744039.0474                   21744040.5744
 11  8 27  1 19  0.0000000  0  8G26G10G29G12G04G05G02G25
   3040120.94146   2394127.29343  24549594.8054                   24549599.0204
 -24548358.05947 -19102350.14844  22485449.6174                   22485449.1884
  -3316097.14847  -2547757.45345  23493717.5084                   23493718.0434
 -28322870.73448 -22036811.07046  20882617.2664                   20882615.5944
 -24587356.64847 -19122540.31243  24267297.8594                   24267300.1134
 -30150855.88748 -23479194.74247  20178252.4694                   20178250.8754
 -34376450.17247 -26752395.07046  21172174.2034                   21172170.8834
 -17225974.32448 -12532172.00846  21731536.5004                   21731537.8014
 11  8 27  1 19 30.0000000  0  8G26G10G29G12G04G05G02G25
   2914164.92246   2295980.00843  24525626.1954                   24525630.3444
 -24489400.94147 -19056409.58244  22496668.8984                   22496668.6764
  -3432799.93747  -2638694.61744  23471509.7114                   23471509.8984
 -28322592.34048 -22036594.14146  20882670.3524                   20882668.5904
 -24542201.48447 -19087354.52743  24275890.7194                   24275892.0984
 -30187861.61348 -23508030.34847  20171210.6414                   20171209.2274
 -34377796.53147 -26753444.19146  21171918.2664                   21171914.9964
 -17291100.29348 -12582919.50046  21719143.3594                   21719144.6254
 11  8 27  1 20  0.0000000  0  8G26G10G29G12G04G05G02G25
   2788116.88746   2197760.94143  24501639.8984                   24501643.1524
 -24430119.07847 -19010215.98044  22507949.8834                   22507949.2154
  -3549504.35947  -2729633.05944  23449301.3284                   23449301.4384
 -28321754.70348 -22035941.44146  20882829.6804                   20882828.1804
 -24497090.51247 -19052203.15643  24284474.6804                   24284476.1484
 -30224279.55148 -23536407.94147  20164280.6564                   20164279.2344
 -34379023.21148 -26754400.04746  21171684.6254                   21171681.2504
 -17355652.25048 -12633219.70346  21706859.5314                   21706860.2624
 11  8 27  1 20 30.0000000  0  8G26G10G29G12G04G05G02G25
   2661968.92246   2099464.08643  24477635.0864                   24477638.0664
 -24370526.64547 -18963780.34845  22519290.0634                   22519289.7774
  -3666220.18447  -2820580.37545  23427091.2424                   23427091.1374
 -28320370.18748 -22034862.61346  20883093.3674                   20883091.7664
 -24452035.00847 -19017095.02043  24293049.0634                   24293049.5394
 -30260121.30948 -23564336.56647  20157460.2194                   20157458.3014
 -34380142.03947 -26755271.87146  21171472.0394                   21171468.5274
 -17419640.28548 -12683080.50046  21694683.1334                   21694684.4184
 11  8 27  1 21  0.0000000  0  8G26G10G29G12G04G05G02G25
   2535736.45746   2001101.29343  24453613.6954                   24453615.9844
 -24310613.97347 -18917095.18744  22530690.9614                   22530690.5474
  -3782933.23447  -2911525.51244  23404881.5004                   23404881.7774
 -28318427.48448 -22033348.82446  20883463.0314                   20883461.5234
 -24407022.48447 -18982020.37943  24301614.3524                   24301615.9104
 -30295374.51248 -23591806.57047  20150751.5394                   20150749.5474
 -34381140.91847 -26756050.22746  21171281.9844                   21171278.6024
 -17483050.73448 -12732491.21146  21682616.0084                   21682617.6764
 11  8 27  1 21 30.0000000  0  8G26G10G29G12G04G05G02G25
   2409409.53546   1902664.91843  24429574.2664                   24429576.6094
 -24250397.06647 -18870172.96944  22542150.0394                   22542149.9964
  -3899655.43047  -3002477.80144  23382669.8364                   23382669.5704
 -28315941.39148 -22031411.60546  20883936.0164                   20883934.0944
 -24362066.44147 -18946989.73043  24310169.1484                   24310171.3594
 -30330052.95348 -23618828.71147  20144152.6484                   20144150.8284
 -34382033.65247 -26756745.85946  21171111.9844                   21171108.8984
 -17545895.85248 -12781461.41046  21670656.7194                   21670658.7854
 11  8 27  1 22  0.0000000  0  8G26G10G29G12G04G05G02G25
   2283008.52346   1804170.86742  24405521.0234                   24405523.0744
 -24189861.16847 -18823002.18044  22553669.4694                   22553669.3054
  -4016367.79347  -3093422.41444  23360460.4534                   23360460.5314
 -28312895.62148 -22029038.28546  20884515.5634                   20884513.7734
 -24317149.09446 -18911989.19543  24318716.1484                   24318718.4224
 -30364139.30148 -23645389.47747  20137666.1484                   20137664.4454
 -34382802.87547 -26757345.26646  21170965.6254                   21170961.8364
 -17608156.98448 -12829976.54746  21658809.2114                   21658810.8244
 11  8 27  1 22 30.0000000  0  8G26G10G29G12G04G05G02G25
   2156529.62946   1705616.05143  24381452.1644                   24381455.4454
 -24129015.89147 -18775590.31244  22565248.3364                   22565248.0554
  -4133076.04347  -3184363.82844  23338251.2974                   23338251.7774
 -28309298.94948 -22026235.69946  20885199.9454                   20885198.7304
 -24272277.86746 -18877024.60943  24327255.2974                   24327257.2544
 -30397641.30148 -23671494.91847  20131291.1804                   20131289.1214
 -34383456.26247 -26757854.39846  21170841.4064                   21170838.0084
 -17669840.21548 -12878041.37546  21647071.4924                   21647072.9574
 11  8 27  1 23  0.0000000  0  8G26G10G29G12G04G05G02G25
   2029975.29746   1607002.56643  24357369.1724                   24357372.9574
 -24067864.77347 -18727940.13344  22576884.9304                   22576885.0314
  -4249779.50047  -3275301.50044  23316043.3204                   23316043.1454
 -28305153.08648 -22023005.16846  20885989.1724                   20885987.3874
 -24227453.67246 -18842096.72343  24335784.6024                   24335786.5204
 -30430560.00048 -23697145.82447  20125026.5554                   20125025.0474
 -34383994.80547 -26758274.05146  21170738.6644                   21170735.5704
 -17730945.38748 -12925655.77746  21635443.1564                   21635444.6334
 11  8 27  1 23 30.0000000  0  8G26G10G29G12G04G05G02G25
   1903349.79746   1508333.60243  24333272.7424                   24333275.9494
 -24006409.12947 -18680052.66444  22588579.2194                   22588579.0704
  -4366475.02347  -3366233.00044  23293837.0234                   23293836.7384
 -28300458.30548 -22019346.90646  20886882.1724                   20886880.6294
 -24182675.49246 -18807204.67242  24344305.6174                   24344307.6684
 -30462894.44548 -23722341.47747  20118873.7814                   20118871.6684
 -34384417.65647 -26758603.53546  21170658.2344                   21170655.3364
 -17791470.11748 -12972817.88746  21623925.8754                   21623926.7304
 11  8 27  1 24  0.0000000  0  8G26G10G29G12G04G05G02G25
   1776649.16046   1409606.05543  24309162.4694                   24309165.7234
 -23944659.08247 -18631935.80144  22600330.2114                   22600329.5434
  -4483168.51247  -3457162.90644  23271631.0234                   23271630.5744
 -28295223.23448 -22015267.64846  20887878.6414                   20887876.8134
 -24137950.14146 -18772353.81643  24352817.0704                   24352818.3524
 -30494652.17648 -23747087.73847  20112830.1414                   20112828.3134
 -34384732.41448 -26758848.78946  21170598.4774                   21170595.3834
 -17851420.77048 -13019532.67246  21612517.9144                   21612518.8014
 11  8 27  1 24 30.0000000  0  8G26G10G29G12G04G05G02G25
   1649875.53546   1310821.66043  24285037.5394                   24285041.6954
 -23882618.35247 -18583592.39844  22612136.6804                   22612136.2074
  -4599859.31647  -3548090.73044  23249425.5314                   23249425.3674
 -28289450.06248 -22010769.08646  20888977.2974                   20888975.6484
 -24093278.68746 -18737544.86742  24361317.1564                   24361319.8794
 -30525834.46148 -23771385.60247  20106896.1414                   20106894.3634
 -34384940.18048 -26759010.68046  21170558.6484                   21170555.4304
 -17910797.16448 -13065799.97346  21601218.7974                   21601219.4804
 11  8 27  1 25  0.0000000  0  8G26G10G29G12G04G05G02G25
   3098458.08246   2439587.50443  24560694.1884                   24560697.2584
 -22244870.43746 -17307425.24644  22923788.8984                   22923789.3404
  -3141120.59047  -2411411.13744  23527013.6644                   23527013.5474
 -26707719.28148 -20778251.60246  21189970.7034                   21189969.0394
 -22473241.18446 -17475178.02742  24669600.3524                   24669602.7934
 -28981019.89848 -22567633.97747  20400864.9614                   20400863.3834
 -32809619.91847 -25531488.40246  21470332.4454                   21470328.7704
 -16394175.03948 -11884016.49246  21889822.2664                   21889823.5904
 11  8 27  1 25 30.0000000  0  8G26G10G29G12G04G05G02G25
   2971550.89147   2340698.99643  24536544.6954                   24536547.6414
 -22182254.32447 -17258633.51644  22935704.5864                   22935704.3984
  -3257798.76247  -2502329.14144  23504810.9774                   23504810.5474
 -26700872.51248 -20772916.48046  21191273.5394                   21191271.7154
 -22428675.09046 -17440451.22742  24678080.8364                   24678083.7384
 -29011051.45748 -22591035.17647  20395149.9304                   20395148.4574
 -32809612.70348 -25531482.77346  21470333.5554                   21470329.9064
 -16452398.04748 -11929385.06246  21878742.9144                   21878744.0944
 11  8 27  1 26  0.0000000  0  8G26G10G29G12G04G05G02G25
   2844592.87947   2241770.88743  24512385.2584                   24512388.3954
 -22119343.35547 -17209612.01244  22947676.2424                   22947676.3484
  -3374457.50047  -2593231.98844  23482611.5784                   23482611.5044
 -26693479.65248 -20767155.82446  21192680.3984                   21192679.1764
 -22384150.55547 -17405756.79743  24686553.7974                   24686556.3054
 -29040496.64848 -22613979.46547  20389546.9144                   20389544.8954
 -32809487.02048 -25531384.83646  21470357.8284                   21470354.0084
 -16510031.63348 -11974294.32846  21867775.4774                   21867776.6914
 11  8 27  1 26 30.0000000  0  8G26G10G29G12G04G05G02G25
   2717583.83246   2142802.99644  24488216.1884                   24488218.7774
 -22056143.84847 -17160365.68744  22959703.0474                   22959702.9144
  -3491098.49247  -2684121.00844  23460415.6884                   23460415.5904
 -26685546.16448 -20760973.89846  21194190.1644                   21194188.2814
 -22339671.24246 -17371097.64543  24695018.1804                   24695019.7344
 -29069360.18048 -22636470.50847  20384054.3524                   20384052.4344
 -32809247.00447 -25531197.79746  21470403.4144                   21470400.5434
 -16567078.67248 -12018746.56246  21856919.9844                   21856921.3984
 11  8 27  1 27  0.0000000  0  8G26G10G29G12G04G05G02G25
   2590511.55547   2043785.86343  24464035.1024                   24464037.4694
 -21992673.89547 -17110908.62144  22971781.2114                   22971780.4454
  -3607735.50447  -2775006.93744  23438219.8914                   23438219.2504
 -26677088.89848 -20754383.84046  21195799.5004                   21195798.0904
 -22295252.23446 -17336485.44543  24703470.6254                   24703472.5744
 -29097657.69148 -22658520.50047  20378669.5474                   20378667.6094
 -32808908.19147 -25530933.78546  21470467.7194                   21470464.5904
 -16623553.67248 -12062753.06246  21846173.1954                   21846174.3914
 11  8 27  1 27 30.0000000  0  8G26G10G29G12G04G05G02G25
   2463389.93847   1944730.22343  24439843.9534                   24439846.8094
 -21928925.46547 -17061234.56244  22983911.6024                   22983911.1644
  -3724356.15247  -2865880.10544  23416027.8284                   23416027.7734
 -26668098.61348 -20747378.44146  21197510.2664                   21197508.9414
 -22250882.94147 -17301911.99243  24711913.8754                   24711916.1454
 -29125379.48848 -22680121.88747  20373394.1484                   20373392.8244
 -32808460.13347 -25530584.63746  21470552.7664                   21470550.0274
 -16679445.26248 -12106304.94946  21835537.4774                   21835538.6254
 11  8 27  1 28  0.0000000  0  8G26G10G29G12G04G05G02G25
   2336216.14846   1845633.97343  24415642.9224                   24415646.4414
 -21864907.26247 -17011350.28944  22996094.2424                   22996093.0124
  -3840964.90647  -2956744.02044  23393837.4384                   23393837.7704
 -26658583.04748 -20739963.73446  21199321.0474                   21199319.8444
 -22206569.43047 -17267382.02043  24720347.0234                   24720348.8404
 -29152532.07448 -22701279.73447  20368227.0944                   20368225.9104
 -32807909.26248 -25530155.37946  21470657.7034                   21470654.4654
 -16734758.64548 -12149406.28946  21825011.4064                   21825012.6884
 11  8 27  1 28 30.0000000  0  8G26G10G29G12G04G05G02G25
   2208997.66846   1746502.91843  24391433.6334                   24391437.8014
 -21800617.75847 -16961254.62544  23008327.8524                   23008327.5354
  -3957556.06947  -3047594.22344  23371650.8364                   23371650.9224
 -26648539.45748 -20732137.58646  21201232.3284                   21201230.7344
 -22162307.53146 -17232892.25843  24728769.1094                   24728772.1724
 -29179111.70348 -22721991.12547  20363169.4224                   20363167.5634
 -32807251.85247 -25529643.11346  21470782.7114                   21470779.6524
 -16789488.87548 -12192053.21946  21814596.8134                   21814597.8094
 11  8 27  1 29  0.0000000  0  8G26G10G29G12G04G05G02G25
   2081737.68047   1647339.47344  24367217.9144                   24367220.3094
 -21736059.68747 -16910949.68444  23020613.2194                   23020612.8204
  -4074127.99247  -3138429.43444  23349468.1094                   23349467.9964
 -26637969.83248 -20723901.54346  21203243.5004                   21203241.9924
 -22118097.10546 -17198442.62143  24737182.5784                   24737184.8954
 -29205119.05548 -22742256.57447  20358220.1804                   20358218.1994
 -32806487.84048 -25529047.78946  21470927.9774                   21470925.1454
 -16843635.20348 -12234245.18046  21804292.9224                   21804293.6174
 11  8 27  1 29 30.0000000  0  8G26G10G29G12G04G05G02G25
   1954440.74647   1548147.23043  24342994.2894                   24342995.8524
 -21671234.87947 -16860436.88744  23032948.2974                   23032948.3244
  -4190677.83247  -3229247.44544  23327289.2894                   23327289.2504
 -26626874.54348 -20715255.89546  21205355.0164                   21205353.4024
 -22073937.09046 -17164032.22343  24745585.6804                   24745589.1644
 -29230554.06648 -22762076.05947  20353380.1484                   20353378.1564
 -32805616.67248 -25528368.96146  21471093.9924                   21471090.8444
 -16897196.00848 -12275980.86746  21794100.6484                   21794101.2664
 11  8 27  1 30  0.0000000  0  8G26G10G29G12G04G05G02G25
   1827117.54347   1448934.52043  24318765.0634                   24318765.9414
 -21606138.03947 -16809712.12544  23045335.7814                   23045335.7074
  -4307196.31247  -3320041.00444  23305116.6414                   23305116.6524
 -26615247.87948 -20706196.17646  21207567.3914                   21207566.0984
 -22029819.94946 -17129655.23843  24753982.1954                   24753984.2774
 -29255409.82448 -22781444.16047  20348649.9144                   20348647.8094
 -32804630.82048 -25527600.76246  21471281.3444                   21471278.6414
 -16950162.84048 -12317253.71946  21784021.3754                   21784022.3594
 11  8 27  1 30 30.0000000  0  7G26G10G29G12G05G02G25
   1699755.89847   1349691.83643  24294529.0634                   24294530.3364
 -21540788.23447 -16758790.23444  23057772.1484                   23057771.7934
  -4423697.96547  -3410821.45344  23282947.2344                   23282946.7504
 -26603107.27048 -20696735.98046  21209877.7584                   21209876.6024
 -29279702.51248 -22800373.51247  20344027.2274                   20344025.3324
 -32803546.42648 -25526755.78946  21471488.2344                   21471484.9494
 -17002550.96148 -12358075.62946  21774052.3594                   21774053.4534
 11  8 27  1 31  0.0000000  0  7G26G10G29G12G05G02G25
   1572361.37946   1250423.54343  24270286.1254                   24270288.4804
 -21475185.18747 -16707671.02044  23070256.0314                   23070255.7384
  -4540178.23447  -3501585.25044  23260781.3204                   23260781.4414
 -26590451.84448 -20686874.62946  21212286.2424                   21212284.5554
 -29303430.89848 -22818863.14847  20339512.0394                   20339510.1054
 -32802361.32848 -25525832.32846  21471713.4924                   21471710.2274
 -17054357.20748 -12398444.13746  21764193.6334                   21764195.2814
 11  8 27  1 31 30.0000000  0  7G26G10G29G12G05G02G25
   1444932.68046   1151128.65243  24246036.7664                   24246039.2034
 -21409336.57047 -16656360.44144  23082786.6804                   23082786.3984
  -4656640.41047  -3592334.94944  23238619.2894                   23238619.2894
 -26577288.09048 -20676617.18046  21214790.9844                   21214789.5204
 -29326600.43448 -22836917.31647  20335102.8134                   20335100.9654
 -32801080.26248 -25524834.09846  21471957.2974                   21471954.2384
 -17105585.81648 -12438362.53546  21754445.2194                   21754446.6374
 11  8 27  1 32  0.0000000  0  7G26G10G29G12G05G02G25
   1317485.81346   1051819.57843  24221784.3914                   24221787.7304
 -21343232.51646 -16604850.83644  23095365.5704                   23095366.0554
  -4773069.90247  -3683059.17245  23216463.6024                   23216463.4064
 -26563604.89548 -20665954.97746  21217394.9304                   21217393.4064
 -29349199.05148 -22854526.61347  20330802.4144                   20330800.4304
 -32799690.92648 -25523751.50446  21472221.7274                   21472218.1954
 -17156223.36348 -12477820.35546  21744809.4924                   21744810.6024
 11  8 27  1 32 30.0000000  0  7G26G10G29G12G05G02G25
   1190024.28546    952499.04743  24197528.8444                   24197531.4694
 -21276875.39546 -16553144.02344  23107992.9384                   23107993.2424
  -4889464.98447  -3773756.58645  23194314.1334                   23194314.0984
 -26549404.33648 -20654889.61346  21220097.3754                   21220096.1174
 -29371227.68748 -22871691.75847  20326610.6094                   20326608.8674
 -32798193.42248 -25522584.61746  21472506.3134                   21472503.6024
 -17206269.30548 -12516817.18046  21735286.1954                   21735287.0474
 11  8 27  1 33  0.0000000  0  7G26G10G29G12G05G02G25
   1062547.72346    853166.84443  24173270.7894                   24173274.0664
 -21210271.70746 -16501245.09044  23120667.1954                   23120666.9384
  -5005827.71947  -3864428.77345  23172171.3444                   23172170.9884
 -26534691.39548 -20643425.00446  21222897.2734                   21222895.8524
 -29392690.53548 -22888416.03547  20322526.4064                   20322524.7974
 -32796591.46148 -25521336.34046  21472811.3594                   21472808.2814
 -17255726.73848 -12555355.43746  21725874.6724                   21725875.5904
 11  8 27  1 33 30.0000000  0  7G26G10G29G12G05G02G25
    935056.15247    753822.91043  24149010.1804                   24149012.0984
 -21143427.87146 -16449159.02344  23133387.2344                   23133387.2424
  -5122159.78947  -3955077.08645  23150034.0314                   23150033.3244
 -26519471.34848 -20631565.23846  21225792.9614                   21225791.7934
 -29413592.26248 -22904703.07047  20318548.6414                   20318547.3244
 -32794888.85248 -25520009.62146  21473135.5084                   21473132.5044
 -17304598.78948 -12593437.53946  21716574.1254                   21716575.3754
 11  8 27  1 34  0.0000000  0  7G26G10G29G12G05G02G25
    807555.38347    654471.85243  24124746.9924                   24124750.1174
 -21076343.69947 -16396885.68444  23146152.9774                   23146153.0274
  -5238456.97347  -4045698.20745  23127902.9774                   23127902.7974
 -26503744.31648 -20619310.42646  21228785.6644                   21228784.4884
 -29433931.23048 -22920551.59847  20314678.2974                   20314676.8674
 -32793083.52048 -25518602.86346  21473479.1484                   21473475.6214
 -17352882.47748 -12631061.18446  21707386.2504                   21707387.4654
 11  8 27  1 34 30.0000000  0  7G26G10G29G12G05G02G25
    680052.19947    555118.88343  24100484.4064                   24100486.4964
 -21009018.45747 -16344424.46944  23158964.3984                   23158964.4774
  -5354713.95747  -4136287.99645  23105780.0394                   23105780.2814
 -26487508.53948 -20606659.18746  21231875.3674                   21231874.1094
 -29453705.02048 -22935959.73047  20310915.4774                   20310913.7624
 -32791172.06248 -25517113.41046  21473842.6884                   21473839.6644
 -17400573.85548 -12668223.27746  21698311.0784                   21698311.9884
 11  8 27  1 35  0.0000000  0  7G26G10G29G12G05G02G25
    552541.68847    455760.19543  24076220.6334                   24076221.6764
 -20941463.32047 -16291784.13344  23171820.0784                   23171819.9264
  -5470937.30147  -4226851.58645  23083663.8054                   23083663.9264
 -26470773.77748 -20593619.12946  21235060.1804                   21235058.7854
 -29472922.58648 -22950934.43447  20307258.7734                   20307257.0474
 -32789162.96148 -25515547.87146  21474225.0084                   21474221.4024
 -17447680.77348 -12704929.95346  21689346.8284                   21689347.6054
 11  8 27  1 35 30.0000000  0  7G26G10G29G12G05G02G25
    425024.91047    356396.63743  24051954.3674                   24051955.3674
 -20873683.16847 -16238968.43444  23184717.8444                   23184718.2424
  -5587127.87147  -4317389.64145  23061553.3364                   23061552.8204
 -26453544.20748 -20580193.50446  21238338.7194                   21238337.3244
 -29491587.51248 -22965478.51647  20303706.6254                   20303704.9574
 -32787058.44148 -25513907.97346  21474625.4774                   21474622.1604
 -17494205.29748 -12741182.81646  21680493.4224                   21680494.5354
 11  8 27  1 36  0.0000000  0  7G26G10G29G12G05G02G25
    297507.16447    257032.32044  24027688.1334                   24027689.7814
 -20805678.71147 -16185977.99244  23197658.7734                   23197658.7344
  -5703281.89147  -4407899.19945  23039449.8054                   23039449.7234
 -26435820.25848 -20566382.64846  21241711.3524                   21241709.7504
 -29509698.89148 -22979591.25047  20300260.0864                   20300258.4024
 -32784857.20348 -25512192.72346  21475043.7344                   21475041.2304
 -17540145.18448 -12776980.10546  21671751.3984                   21671752.4224
 11  8 27  1 36 30.0000000  0  7G26G10G29G12G05G02G25
    170003.94947    157679.32843  24003424.8914                   24003426.2584
 -20737441.00847 -16132805.79744  23210644.0554                   23210644.4924
  -5819385.81247  -4498369.73045  23017355.8834                   23017355.5354
 -26417592.05548 -20552178.87946  21245180.2274                   21245178.6954
 -29527245.78948 -22993264.14547  20296921.1484                   20296919.4734
 -32782547.52348 -25510392.96946  21475483.9454                   21475480.3164
 -17585488.28548 -12812312.37546  21663123.1174                   21663124.1954
 11  8 27  1 37  0.0000000  0  7G26G10G29G12G05G02G25
     42511.93047     58335.08644  23979163.8284                   23979166.0084
 -20668979.04347 -16079458.84044  23223671.8754                   23223672.2624
  -5935444.02047  -4588804.64545  22995270.7584                   22995270.4104
 -26398867.67648 -20537588.46946  21248743.6094                   21248742.2154
 -29544235.94548 -23006503.21147  20293688.0234                   20293686.6134
 -32780136.03548 -25508513.87946  21475942.7894                   21475939.4024
 -17630240.68748 -12847184.36746  21654606.6644                   21654607.9224
 11  8 27  1 37 30.0000000  0  7G26G10G29G12G05G02G25
    -84968.53146    -41000.16844  23954904.7814                   23954906.5784
 -20600298.89547 -16025941.87144  23236741.3674                   23236741.7034
  -6051458.26247  -4679205.28945  22973193.5554                   22973193.5474
 -26379652.69948 -20522615.77346  21252400.0084                   21252398.3054
 -29560673.82448 -23019311.93747  20290559.7584                   20290558.2814
 -32777625.98848 -25506557.99646  21476420.6254                   21476417.3754
 -17674405.48448 -12881598.49246  21646202.2344                   21646203.4804
 11  8 27  1 38  0.0000000  0  7G26G10G29G12G05G02G25
   -212436.20347   -140325.44144  23930648.3914                   23930650.0984
 -20531405.13747 -15972258.45344  23249851.0944                   23249851.5784
  -6167428.73447  -4769571.84045  22951125.6724                   22951125.3914
 -26359951.14148 -20507263.93046  21256149.0784                   21256147.5314
 -29576562.21148 -23031692.48447  20287536.5704                   20287534.8834
 -32775019.81648 -25504527.22346  21476916.4694                   21476913.1294
 -17717984.55148 -12915556.19946  21637909.4304                   21637910.7814
 11  8 27  1 38 30.0000000  0  7G26G10G29G12G05G02G25
   -339879.36746   -239631.60243  23906396.4614                   23906397.9414
 -20462292.29747 -15918404.31644  23263002.9924                   23263003.4454
  -6283345.51247  -4859896.52045  22929067.3364                   22929067.0234
 -26339756.87948 -20491528.16446  21259991.9144                   21259990.6804
 -29591894.32848 -23043639.57447  20284618.7274                   20284617.0984
 -32772309.23048 -25502415.07046  21477432.1414                   21477428.4144
 -17760969.46548 -12949050.92246  21629729.9774                   21629730.9344
 11  8 27  1 39  0.0000000  0  7G26G10G29G12G05G02G25
   -467310.00046   -338928.04343  23882147.2504                   23882149.3444
 -20392978.62147 -15864393.68744  23276193.3134                   23276193.3954
  -6399222.28547  -4950190.04345  22907016.2504                   22907016.3674
 -26319087.23448 -20475421.96946  21263925.1024                   21263924.0634
 -29606686.56248 -23055165.97747  20281804.0314                   20281802.4144
 -32769509.80548 -25500233.70346  21477964.9384                   21477961.5354
 -17803375.30548 -12982094.43046  21621660.3834                   21621661.6414
 11  8 27  1 39 30.0000000  0  7G26G10G29G12G05G02G25
   -594723.66846   -438211.25843  23857901.2344                   23857902.1024
 -20323465.45747 -15810227.61744  23289421.4454                   23289421.6884
  -6515055.68747  -5040449.78545  22884973.7034                   22884973.4454
 -26297942.94148 -20458945.91446  21267948.9454                   21267947.6024
 -29620938.85248 -23066271.65247  20279091.8204                   20279090.3054
 -32766620.68748 -25497982.44946  21478514.6954                   21478511.0044
 -17845200.77348 -13014685.69946  21613701.1484                   21613702.5824
 11  8 27  1 40  0.0000000  0  7G26G10G29G12G05G02G25
   -722110.38346   -537473.44543  23833660.6804                   23833661.2074
 -20253749.29347 -15755903.35944  23302687.5704                   23302688.1684
  -6630837.82447  -5130669.56645  22862941.1804                   22862941.0944
 -26276320.06248 -20442096.94146  21272063.3594                   21272062.5124
 -29634646.16848 -23076952.67247  20276483.1884                   20276481.6174
 -32763635.74248 -25495656.52046  21479082.8134                   21479079.2814
 -17886439.68048 -13046819.91446  21605853.9694                   21605854.7814
 11  8 27  1 40 30.0000000  0  7G26G10G29G12G05G02G25
   -849469.25446   -636713.98043  23809424.5234                   23809425.5204
 -20183835.28547 -15701424.93444  23315992.3284                   23315992.3324
  -6746569.64547  -5220850.12545  22840918.2894                   22840917.3834
 -26254223.06248 -20424878.51646  21276268.4224                   21276267.1804
 -29647812.48048 -23087212.12547  20273978.0554                   20273976.3634
 -32760557.69148 -25493258.04346  21479668.5084                   21479665.4494
 -17927094.44548 -13078498.96146  21598117.4064                   21598118.7544
 11  8 27  1 41  0.0000000  0  7G26G10G29G12G05G02G25
   -976785.48846   -735921.29743  23785197.0004                   23785198.1414
 -20113714.78547 -15646785.60244  23329335.7584                   23329335.3914
  -6862237.85247  -5310981.13345  22818907.0004                   22818906.9224
 -26231643.20748 -20407283.85546  21280565.3984                   21280563.7584
 -29660427.59048 -23097042.07447  20271577.4304                   20271575.5864
 -32757375.21548 -25490778.19546  21480273.8914                   21480271.0554
 -17967153.65248 -13109713.94146  21590494.3204                   21590495.6604
 11  8 27  1 41 30.0000000  0  7G26G10G29G12G05G02G25
  -1104069.35946   -835103.38343  23760975.2734                   23760977.2424
 -20043404.12147 -15591998.09444  23342714.9304                   23342715.4064
  -6977854.25047  -5401071.76645  22796906.0864                   22796905.5944
 -26208596.18047 -20389325.16446  21284951.0084                   21284949.6684
 -29672506.36348 -23106454.10547  20269279.0394                   20269277.3874
 -32754102.04748 -25488227.68446  21480896.7344                   21480893.3554
 -18006630.85548 -13140475.41046  21582982.1254                   21582983.3484
 11  8 27  1 42  0.0000000  0  7G26G10G29G12G05G02G25
  -1231308.23446   -934250.40243  23736762.8984                   23736764.1764
 -19972896.84847 -15537057.38344  23356132.2974                   23356132.3914
  -7093407.85947  -5491113.47745  22774917.1174                   22774916.4574
 -26185075.02747 -20370997.01246  21289426.8914                   21289425.1214
 -29684041.23448 -23115442.30147  20267084.1804                   20267082.1764
 -32750729.45348 -25485599.71946  21481538.8284                   21481535.5164
 -18045517.08648 -13170776.37546  21575582.3524                   21575583.1374
 11  8 27  1 42 30.0000000  0  7G26G10G29G12G05G02G25
  -1358501.93447  -1033362.24643  23712558.0784                   23712559.9344
 -19902198.63347 -15481967.89844  23369585.8364                   23369586.0234
  -7208900.23847  -5581107.47345  22752939.1024                   22752938.7894
 -26161085.28548 -20352303.73046  21293992.2274                   21293990.7584
 -29695036.78148 -23124010.25047  20264991.4924                   20264989.8594
 -32747260.46548 -25482896.64146  21482199.1724                   21482196.0044
 -18083815.71948 -13200619.47746  21568294.3984                   21568294.8834
 11  8 27  1 43  0.0000000  0  7G26G10G29G12G05G02G25
  -1485638.00046  -1132429.20344  23688365.1484                   23688366.9064
 -19831303.45347 -15426724.92244  23383077.0704                   23383077.0204
  -7324320.44947  -5671045.25045  22730975.7814                   22730975.6134
 -26136619.92647 -20333239.82046  21298647.6954                   21298646.5514
 -29705485.24248 -23132151.90247  20263003.2034                   20263001.1174
 -32743686.59048 -25480111.83246  21482879.1414                   21482875.6484
 -18121517.74248 -13229997.69946  21561119.7344                   21561121.0744
 11  8 27  1 43 30.0000000  0  7G26G10G29G12G05G02G25
  -1612725.17646  -1231458.03544  23664181.7584                   23664182.9614
 -19760226.47347 -15371340.26644  23396602.8134                   23396602.1334
  -7439679.00047  -5760934.93045  22709023.4064                   22709023.5084
 -26111693.60247 -20313816.72746  21303390.7894                   21303389.6174
 -29715400.04348 -23139877.71147  20261116.4694                   20261114.7194
 -32740020.00448 -25477254.77746  21483577.0634                   21483573.4264
 -18158635.48048 -13258920.62946  21554056.7114                   21554057.6724
 11  8 27  1 44  0.0000000  0  7G26G10G29G12G05G02G25
  -1739753.76646  -1330441.21944  23640008.8054                   23640009.7504
 -19688964.12547 -15315811.19944  23410163.6254                   23410163.0864
  -7554967.73847  -5850770.24645  22687084.9064                   22687084.8164
 -26086302.27747 -20294031.30146  21308222.9454                   21308221.1604
 -29724776.51648 -23147184.05147  20259332.3914                   20259330.6374
 -32736254.64847 -25474320.75446  21484293.1954                   21484289.8524
 -18195162.94148 -13287383.60546  21547105.5634                   21547107.1134
 11  8 27  1 44 30.0000000  0  7G26G10G29G12G05G02G25
  -1866721.39146  -1429376.91044  23615846.8834                   23615848.0204
 -19617519.84847 -15260140.36744  23423758.1484                   23423758.6914
  -7670185.99247  -5940550.62945  22665159.7274                   22665159.4224
 -26060449.75847 -20273886.49246  21313142.0634                   21313140.8134
 -29733617.18048 -23154072.86747  20257650.0164                   20257648.5984
 -32732392.03948 -25471310.95746  21485028.3594                   21485024.6954
 -18231101.45748 -13315387.66046  21540266.7584                   21540267.9534
 11  8 27  1 45  0.0000000  0  8G26G10G29G12G15G05G02G25
  -1993619.27046  -1528258.24644  23591698.9454                   23591700.7424
 -19545890.99647 -15204325.71144  23437389.7274                   23437389.2194
  -7785326.41447  -6030270.36745  22643248.6484                   22643248.8794
 -26034132.54747 -20253379.59046  21318150.4534                   21318149.1374
   6118320.17656   4796777.40253  24511509.3444                   24511513.1804
 -29741918.35548 -23160541.31647  20256070.2424                   20256068.7344
 -32728426.52748 -25468220.96946  21485782.7664                   21485779.4884
 -18266445.77348 -13342928.70346  21533541.3054                   21533542.1134
 11  8 27  1 45 30.0000000  0  8G26G10G29G12G15G05G02G25
  -2120457.29346  -1627092.94944  23567563.0554                   23567563.4844
 -19474093.98047 -15148380.02744  23451051.1724                   23451051.3014
  -7900400.97347  -6119938.78545  22621350.8054                   22621350.3204
 -26007366.87547 -20232523.24246  21323243.9384                   21323242.5314
   5992943.68446   4699081.78543  24487651.2894                   24487655.0044
 -29749694.91848 -23166600.96547  20254590.5784                   20254588.6454
 -32724372.20748 -25465061.78146  21486554.5704                   21486551.3674
 -18301209.76248 -13370017.53546  21526925.6094                   21526926.5824
 11  8 27  1 46  0.0000000  0  8G26G10G29G12G15G05G02G25
  -2247241.10946  -1725885.42644  23543436.3984                   23543437.7344
 -19402140.25047 -15092312.24243  23464743.2114                   23464743.8324
  -8015416.51647  -6209561.24645  22599463.8284                   22599463.8054
 -25980163.85248 -20211326.08246  21328420.2734                   21328419.3554
   5867431.93046   4601280.70343  24463767.2194                   24463770.7704
 -29756957.39548 -23172260.02047  20253208.5234                   20253206.6724
 -32720237.62148 -25461840.02746  21487341.2114                   21487338.1024
 -18335402.52048 -13396661.25446  21520419.0164                   21520419.9454
 11  8 27  1 46 30.0000000  0  8G26G10G29G12G15G05G02G25
  -2373966.21147  -1824632.13744  23519321.3594                   23519322.8164
 -19330031.77347 -15036123.82044  23478465.7274                   23478466.0164
  -8130370.66847  -6299135.85945  22577589.1724                   22577588.6414
 -25952525.15247 -20189789.44946  21333679.8364                   21333678.6884
   5741787.98046   4503376.63743  24439858.2194                   24439861.2424
 -29763706.53948 -23177519.07447  20251923.8444                   20251922.3794
 -32716022.62948 -25458555.63346  21488143.5864                   21488140.0744
 -18369023.86348 -13422859.70346  21514021.0084                   21514022.4304
 11  8 27  1 47  0.0000000  0  8G26G10G29G12G15G05G02G25
  -2500619.27047  -1923322.70344  23495219.9224                   23495221.3444
 -19257761.47347 -14979809.35544  23492219.0554                   23492218.3794
  -8245251.20347  -6388653.13345  22555727.9064                   22555727.5354
 -25924443.42648 -20167907.59846  21339023.7344                   21339022.6174
   5616024.57846   4405379.47744  24415925.3284                   24415929.4734
 -29769933.64848 -23182371.35547  20250738.8984                   20250737.6764
 -32711717.06648 -25455200.66446  21488962.7974                   21488959.3484
 -18402063.84448 -13448605.15246  21507733.5944                   21507734.9024
 11  8 27  1 47 30.0000000  0  8G26G10G29G12G15G05G02G25
  -2627200.09046  -2021956.99644  23471132.4304                   23471133.8284
 -19185335.10947 -14923373.28144  23506000.8834                   23506000.8754
  -8360059.64547  -6478114.21545  22533880.8054                   22533879.9534
 -25895923.84048 -20145684.55946  21344450.8444                   21344449.4264
   5490140.66446   4307288.42643  24391970.9844                   24391974.6484
 -29775643.76648 -23186820.77747  20249652.3594                   20249650.7464
 -32707324.28148 -25451777.73046  21489798.3754                   21489795.0944
 -18434526.18448 -13473900.48046  21501556.5314                   21501557.1374
 11  8 27  1 48  0.0000000  0  8G26G10G29G12G15G05G02G25
  -2753701.29747  -2120529.26244  23447060.0084                   23447061.5864
 -19112751.27047 -14866814.50044  23519813.4224                   23519813.7424
  -8474790.13347  -6567514.56245  22512048.0784                   22512047.5044
 -25866965.41448 -20123119.57846  21349961.4064                   21349959.6644
   5364143.14147   4209108.82044  24367993.8524                   24367998.0204
 -29780834.76648 -23190865.70347  20248664.7114                   20248663.1134
 -32702840.53148 -25448283.90646  21490651.8284                   21490648.5354
 -18466407.41448 -13498743.01646  21495489.6024                   21495490.8914
 11  8 27  1 48 30.0000000  0  8G26G10G29G12G15G05G02G25
  -2880120.54747  -2219037.66844  23423002.9144                   23423004.3714
 -19040014.00447 -14810136.18044  23533654.8674                   23533654.8244
  -8589442.18047  -6656853.78545  22490230.3914                   22490230.1024
 -25837571.59048 -20100215.31646  21355555.0474                   21355553.5554
   5238032.75446   4110841.27343  24343995.6414                   24344000.5864
 -29785509.31648 -23194508.19147  20247775.3594                   20247773.2304
 -32698267.59048 -25444720.58246  21491521.7814                   21491518.9494
 -18497709.29348 -13523134.08646  21489532.9064                   21489534.2624
 11  8 27  1 49  0.0000000  0  8G26G10G29G12G15G05G02G25
  -3006449.89847  -2317476.02044  23398963.3754                   23398964.1134
 -18967121.32847 -14753336.76243  23547525.2734                   23547525.6804
  -8704009.53547  -6746127.01645  22468429.1334                   22468428.4224
 -25807740.71548 -20076970.49246  21361231.4534                   21361230.4534
   5111816.60246   4012491.37944  24319976.9614                   24319981.1644
 -29789664.57848 -23197746.04347  20246984.3984                   20246982.4494
 -32693600.46148 -25441083.85946  21492410.2194                   21492407.1374
 -18528427.72748 -13547070.52346  21483687.1884                   21483689.0704
 11  8 27  1 49 30.0000000  0  8G26G10G29G12G15G05G02G25
  -1557255.77347  -1188233.75444  23674735.5864                   23674736.6054
 -17318652.70347 -13468815.80143  23861218.4064                   23861218.6994
  -7243060.75447  -5607725.34845  22746438.4774                   22746437.6804
 -24202050.12948 -18825783.03946  21666784.3134                   21666783.2344
   6560927.81646   5141669.23843  24595733.5704                   24595736.8754
 -28217876.35548 -21972975.97347  20546085.6414                   20546083.7974
 -31113413.82048 -24209769.59845  21793109.7974                   21793106.3754
 -16983136.45348 -12342947.45746  21777746.9384                   21777748.2194
 11  8 27  1 50  0.0000000  0  8G26G10G29G12G15G05G02G25
  -1683402.79347  -1286530.05944  23650730.8984                   23650731.5594
 -17245465.58647 -13411786.92643  23875145.8444                   23875145.8674
  -7357461.27347  -5696868.57445  22724668.7344                   22724667.8244
 -24171360.46147 -18801869.03946  21672624.3204                   21672622.9344
   6434500.54346   5043154.72743  24571674.6254                   24571677.9494
 -28221006.27048 -21975414.84847  20545490.1644                   20545488.2584
 -31108567.16048 -24205992.97746  21794032.2034                   21794028.5434
 -17012697.68448 -12365982.17646  21772121.5704                   21772122.2814
 11  8 27  1 50 30.0000000  0  8G26G10G29G12G15G05G02G25
  -1809448.62147  -1384747.46944  23626745.1564                   23626745.1174
 -17172130.32847 -13354642.64143  23889100.9224                   23889101.0164
  -7471770.23047  -5785940.46945  22702916.4924                   22702915.5664
 -24140240.34448 -18777619.62546  21678546.3284                   21678545.2034
   6307975.64546   4944564.20743  24547598.2584                   24547601.6174
 -28223620.97748 -21977452.27047  20544992.7734                   20544990.7304
 -31103625.89548 -24202142.64546  21794972.0004                   21794969.0044
 -17041676.37548 -12388562.97346  21766606.7424                   21766608.0044
 11  8 27  1 51  0.0000000  0  8G26G10G29G12G15G05G02G25
  -1935393.70747  -1482886.42644  23602778.3284                   23602778.4654
 -17098653.86747 -13297388.29343  23903083.3204                   23903082.8524
  -7585990.05947  -5874942.88745  22681181.1484                   22681180.3284
 -24108696.40247 -18753039.94546  21684548.9144                   21684548.0744
   6181352.20346   4845896.83643  24523502.4064                   24523505.0274
 -28225726.69948 -21979093.07447  20544591.6564                   20544590.0664
 -31098594.67248 -24198222.21946  21795929.8834                   21795926.8674
 -17070077.03948 -12410693.35946  21761202.5704                   21761203.4964
 11  8 27  1 51 30.0000000  0  8G26G10G29G12G15G05G02G25
  -2061238.41847  -1580947.15243  23578830.5004                   23578831.2814
 -17025042.53947 -13240028.85243  23917091.1804                   23917091.2344
  -7700122.63347  -5963877.33645  22659462.3444                   22659461.4924
 -24076734.98447 -18728134.96146  21690631.1644                   21690630.3444
   6054628.64846   4747151.53943  24499386.9844                   24499390.1024
 -28227329.00048 -21980341.60547  20544286.8754                   20544284.7974
 -31093477.28147 -24194234.64546  21796903.4844                   21796900.4774
 -17097904.23048 -12432376.87546  21755907.2194                   21755908.3714
 11  8 27  1 52  0.0000000  0  8G26G10G29G12G15G05G02G25
  -2186980.88747  -1678928.18744  23554903.3284                   23554903.0554
 -16951300.71547 -13182567.75043  23931123.3984                   23931123.9064
  -7814167.90647  -6052743.73445  22637760.1724                   22637759.5234
 -24044360.40247 -18702908.01646  21696791.4924                   21696790.7854
   5927806.06646   4648329.05943  24475253.0554                   24475257.1294
 -28228430.91048 -21981200.21947  20544076.8914                   20544075.7734
 -31088275.43047 -24190181.24645  21797893.4304                   21797890.7424
 -17125160.22748 -12453615.30146  21750720.4614                   21750721.1414
 11  8 27  1 52 30.0000000  0  8G26G10G29G12G15G05G02G25
  -2312618.85947  -1776827.83243  23530994.2114                   23530994.7774
 -16877431.89547 -13125007.68744  23945180.0864                   23945181.2894
  -7928125.07847  -6141541.47745  22616075.0164                   22616074.1374
 -24011576.39548 -18677362.05546  21703030.1884                   21703029.0664
   5800885.91846   4549430.56643  24451100.3054                   24451104.0634
 -28229035.55548 -21981671.35947  20543961.5394                   20543960.5204
 -31082990.24247 -24186062.91045  21798899.0704                   21798895.9064
 -17151846.93748 -12474410.12146  21745642.1254                   21745643.7734
 11  8 27  1 53  0.0000000  0  8G26G10G29G12G15G05G02G25
  -2438142.98447  -1874638.70744  23507107.1884                   23507108.8284
 -16803433.11747 -13067346.35943  23959262.1804                   23959262.1454
  -8041986.25847  -6230264.43445  22594407.4694                   22594407.3484
 -23978379.88747 -18651494.66446  21709347.4224                   21709346.6724
   5673876.52747   4450462.51643  24426932.0944                   24426935.3014
 -28229139.23448 -21981752.14147  20543942.2664                   20543940.6294
 -31077616.37147 -24181875.49245  21799921.6954                   21799918.5554
 -17177959.27048 -12494757.39146  21740673.0004                   21740674.4184
 11  8 27  1 53 30.0000000  0  8G26G10G29G12G15G05G02G25
  -2563543.41846  -1972353.24643  23483244.7664                   23483245.9534
 -16729300.97347 -13009581.07843  23973368.6334                   23973369.3444
  -8155743.52747  -6318906.40645  22572760.3524                   22572759.9534
 -23944767.18747 -18625302.97346  21715743.8674                   21715742.6254
   5546786.80546   4351431.87144  24402746.6804                   24402750.5394
 -28228737.46148 -21981439.05947  20544018.6024                   20544017.2464
 -31072147.09447 -24177613.73845  21800962.6484                   21800959.7074
 -17203491.68448 -12514652.77346  21735814.3364                   21735816.0554
 11  8 27  1 54  0.0000000  0  8G26G10G29G12G15G05G02G25
  -2688814.00046  -2069966.57044  23459406.6334                   23459407.6054
 -16655035.14846 -12951711.67643  23987501.1334                   23987501.1374
  -8269391.90647  -6407463.53945  22551133.9224                   22551133.4574
 -23910738.36347 -18598787.02046  21722219.4454                   21722217.9184
   5419621.82046   4252342.60244  24378547.5554                   24378551.4964
 -28227829.17648 -21980731.29347  20544191.2974                   20544189.7504
 -31066580.03947 -24173275.77746  21802021.9144                   21802018.8244
 -17228442.25048 -12534094.76646  21731066.6644                   21731067.6954
 11  8 27  1 54 30.0000000  0  8G26G10G29G12G15G05G02G25
  -2813958.90247  -2167481.96544  23435592.2664                   23435593.7624
 -16580646.00046 -12893746.14843  24001656.9224                   24001657.1054
  -8382937.46147  -6495940.53945  22529526.6484                   22529525.8874
 -23876303.86347 -18571954.96546  21728771.6334                   21728770.8054
   5292376.43847   4153190.68044  24354333.7344                   24354337.6524
 -28226423.84048 -21979636.22347  20544459.0704                   20544457.1804
 -31060923.00047 -24168867.69945  21803098.4144                   21803095.1914
 -17252819.43448 -12553089.96946  21726427.6644                   21726429.0314
 11  8 27  1 55  0.0000000  0  8G26G10G29G12G15G05G02G25
  -2938977.46146  -2264898.91044  23411801.6094                   23411802.8984
 -16506139.42646 -12835689.14843  24015835.1644                   24015835.2734
  -8496381.25847  -6584338.23845  22507939.2424                   22507938.6334
 -23841469.19548 -18544811.07846  21735400.8594                   21735399.5784
   5165050.36347   4053975.86344  24330104.3054                   24330107.5554
 -28224526.64848 -21978157.87947  20544820.1724                   20544818.4104
 -31055179.14148 -24164391.98445  21804191.5864                   21804188.4804
 -17276627.23848 -12571641.49646  21721897.3204                   21721898.1334
 11  8 27  1 55 30.0000000  0  8G26G10G29G12G15G05G02G25
  -3063858.06647  -2362208.38344  23388037.7344                   23388038.2274
 -16431509.73446 -12777536.19943  24030036.6254                   24030036.8874
  -8609713.22747  -6672648.81245  22486372.8054                   22486371.9924
 -23806229.07047 -18517351.26246  21742106.7114                   21742105.2774
   5037654.26246   3954706.47344  24305861.4844                   24305864.8484
 -28222131.43748 -21976291.46546  20545275.8914                   20545274.0274
 -31049340.32847 -24159842.27346  21805303.1254                   21805299.2814
 -17299858.27348 -12589743.59446  21717476.5784                   21717477.4574
 11  8 27  1 56  0.0000000  0  8G26G10G29G12G15G05G02G25
  -3188600.25847  -2459409.97744  23364300.0864                   23364300.7894
 -16356762.56646 -12719291.69543  24044260.1804                   24044261.4304
  -8722934.34447  -6760873.01645  22464827.3834                   22464826.6564
 -23770589.34447 -18489580.05946  21748888.6644                   21748887.1294
   4910187.66847   3855382.14843  24281604.8524                   24281608.6134
 -28219242.91048 -21974040.65647  20545825.7034                   20545823.9844
 -31043409.68047 -24155221.00446  21806430.8914                   21806428.0944
 -17322516.46948 -12607399.32446  21713164.8134                   21713165.6454
 11  8 27  1 56 30.0000000  0  8G26G10G29G12G15G05G02G25
  -3313212.77047  -2556510.53144  23340586.7424                   23340587.7074
 -16281912.78146 -12660967.23043  24058504.5164                   24058504.4924
  -8836054.72747  -6849018.71545  22443301.4224                   22443300.6024
 -23734564.90648 -18461509.09046  21755744.2114                   21755742.6644
   4782641.17247   3755995.54344  24257334.4614                   24257337.0164
 -28215875.03948 -21971416.33246  20546466.1484                   20546464.5864
 -31037399.67247 -24150537.88746  21807574.9534                   21807572.1174
 -17344614.95748 -12624618.91846  21708959.7194                   21708961.1094
 11  8 27  1 57  0.0000000  0  8G26G10G29G12G15G05G02G25
  -3437687.03947  -2653503.37944  23316900.4224                   23316900.9264
 -16206957.71546 -12602560.74243  24072767.7114                   24072768.3754
  -8949067.55547  -6937080.60945  22421795.1804                   22421794.7854
 -23698153.36347 -18433136.46946  21762672.4384                   21762671.7704
   4655022.19146   3656552.49643  24233047.6724                   24233051.1254
 -28212025.16048 -21968416.41446  20547198.9384                   20547196.9694
 -31031304.97347 -24145788.76646  21808734.5784                   21808731.7154
 -17366149.68048 -12641399.21946  21704862.2664                   21704862.6564
 11  8 27  1 57 30.0000000  0  8G26G10G29G12G15G05G02G25
  -3562022.11347  -2750387.75044  23293240.0474                   23293240.6724
 -16131902.81646 -12544076.46143  24087050.3754                   24087050.9304
  -9061973.57847  -7025059.29345  22400310.2504                   22400309.6524
 -23661360.37548 -18404466.60946  21769674.3674                   21769673.5784
   4527330.97346   3557053.08643  24208748.6414                   24208750.8794
 -28207697.85248 -21965044.47346  20548022.4064                   20548020.6994
 -31025128.50847 -24140975.94945  21809910.4534                   21809906.7664
 -17387124.29348 -12657743.07846  21700870.2894                   21700871.2894
 11  8 27  1 58  0.0000000  0  8G26G10G29G12G15G05G02G25
  -3686197.11347  -2847147.37144  23269610.2194                   23269610.6134
 -16056733.09846 -12485502.69143  24101354.4304                   24101355.3634
  -9174753.36347  -7112939.59845  22378848.8524                   22378848.3164
 -23624171.18447 -18375488.03946  21776750.9694                   21776750.1454
   4399587.56646   3457513.01643  24184439.9924                   24184441.4694
 -28202877.71548 -21961288.50847  20548939.7814                   20548937.8244
 -31018853.03147 -24136085.96946  21811103.9534                   21811100.9414
 -17407522.37148 -12673637.69146  21696988.8524                   21696990.0274
 11  8 27  1 58 30.0000000  0  8G26G10G29G12G15G05G02G25
  -3810219.32047  -2943787.98444  23246009.3594                   23246009.9734
 -15981462.39546 -12426850.27043  24115678.5474                   24115678.8404
  -9287415.65647  -7200728.34045  22357410.1804                   22357408.9384
 -23586599.11747 -18346211.11746  21783900.9454                   21783899.8094
   4271783.34847   3357925.50843  24160120.6564                   24160120.6414
 -28197577.66448 -21957158.58647  20549948.0004                   20549946.2854
 -31012489.02047 -24131127.00845  21812315.1484                   21812311.9574
 -17427355.77048 -12689092.30146  21693214.7274                   21693215.4344
 11  8 27  1 59  0.0000000  0  8G26G10G29G12G15G05G02G25
  -3934083.62947  -3040305.54744  23222438.5084                   23222438.8674
 -15906091.98046 -12368120.14843  24130020.1564                   24130020.9884
  -9399957.24647  -7288423.04345  22335994.1254                   22335993.2584
 -23548645.83647 -18316637.15246  21791123.2424                   21791122.3524
   4143922.66847   3258294.01644  24135789.6644                   24135790.9804
 -28191798.24248 -21952655.13747  20551048.1724                   20551046.0474
 -31006035.39847 -24126098.21945  21813543.3284                   21813540.0824
 -17446624.23848 -12704106.69946  21689547.9224                   21689549.4494
 11  8 27  1 59 30.0000000  0  8G26G10G29G12G15G05G02G25
  -4057785.84447  -3136696.77044  23198898.8444                   23198899.2504
 -15830623.22346 -12309313.38343  24144382.1094                   24144382.3524
  -9512375.24647  -7376021.43745  22314601.5944                   22314601.1604
 -23510313.71947 -18286767.97746  21798417.5314                   21798416.2704
   4016009.02747   3158621.28944  24111447.2424                   24111449.8524
 -28185540.31648 -21947778.80946  20552239.1254                   20552237.0514
 -30999491.27047 -24120998.89146  21814788.6254                   21814785.4924
 -17465327.92648 -12718681.01646  21685988.7344                   21685990.0204
 11  8 27  2  0  0.0000000  0  8G26G10G29G12G15G05G02G25
  -4181322.18447  -3232958.78144  23175390.5944                   23175391.4614
 -15755058.72346 -12250432.00843  24158761.2734                   24158762.2774
  -9624667.44547  -7463521.80545  22293232.8914                   22293232.2234
 -23471604.98847 -18256605.34846  21805783.5234                   21805782.9104
   3888045.34447   3058909.55544  24087096.9224                   24087100.0124
 -28178806.22348 -21942531.45746  20553520.1954                   20553518.5824
 -30992856.93447 -24115829.28545  21816050.8754                   21816048.2154
 -17483467.91848 -12732816.07846  21682536.9144                   21682537.8054
 11  8 27  2  0 30.0000000  0  8G26G10G29G12G15G05G02G25
  -4304687.94547  -3329087.83244  23151914.5634                   23151915.4574
 -15679399.78946 -12191477.03943  24173158.5944                   24173159.7704
  -9736830.92647  -7550921.86345  22271888.8914                   22271888.2854
 -23432521.44147 -18226150.65646  21813220.9384                   21813219.7544
   3760035.14147   2959161.59044  24062737.0234                   24062739.6844
 -28171596.75048 -21936913.67646  20554892.1564                   20554890.4454
 -30986130.80147 -24110588.13745  21817331.3054                   21817327.9494
 -17501044.12548 -12746511.83246  21679192.0554                   21679193.1254
 11  8 27  2  1  0.0000000  0  8G26G10G29G12G15G05G02G25
  -4427882.14147  -3425083.21544  23128472.1724                   23128472.8444
 -15603651.37946 -12132452.31643  24187573.6174                   24187574.1294
  -9848865.83247  -7638221.74245  22250569.1804                   22250568.6484
 -23393068.69547 -18195408.27346  21820728.7424                   21820727.2584
   3631978.70747   2859377.60944  24038368.4064                   24038370.2114
 -28163916.61348 -21930929.14146  20556353.7974                   20556351.8014
 -30979315.55547 -24105277.54345  21818627.7424                   21818624.8014
 -17518060.25048 -12759771.16046  21675954.1334                   21675955.7504
 11  8 27  2  1 30.0000000  0  8G26G10G29G12G15G05G02G25
  -4550905.60547  -3520945.54344  23105061.0004                   23105062.7584
 -15527820.48846 -12073363.33643  24202003.5554                   24202004.1024
  -9960775.23447  -7725423.82045  22229273.9774                   22229272.7034
 -23353253.68747 -18164383.61746  21828305.0704                   21828303.8634
   3503873.98447   2759555.95744  24013990.3524                   24013992.7074
 -28155772.32048 -21924582.92647  20557903.4384                   20557901.2854
 -30972415.82447 -24099901.13745  21819941.1804                   21819938.3364
 -17534521.96148 -12772598.46946  21672821.6804                   21672822.2194
 11  8 27  2  2  0.0000000  0  8G26G10G29G12G15G05G02G25
  -4673747.51247  -3616666.41844  23081685.0944                   23081686.0744
 -15451902.47646 -12014206.54043  24216449.4614                   24216451.3324
 -10072549.21147  -7812520.37545  22208003.7584                   22208003.2854
 -23313072.05947 -18133073.27746  21835951.3364                   21835950.1174
   3375731.10547   2659704.59044  23989605.1094                   23989607.2584
 -28147158.78948 -21917871.07847  20559542.7274                   20559540.8834
 -30965424.07447 -24094453.02345  21821271.2424                   21821268.3754
 -17550423.14848 -12784989.01646  21669795.4224                   21669796.5474
 11  8 27  2  2 30.0000000  0  8G26G10G29G12G15G05G02G25
  -4796416.99247  -3712252.94544  23058342.2894                   23058343.0664
 -15375912.64146 -11954993.71143  24230911.1884                   24230911.5984
 -10184198.77047  -7899519.98045  22186757.7974                   22186756.7384
 -23272540.14848 -18101489.99646  21843664.5234                   21843663.5594
   3247540.01647   2559815.66844  23965210.8444                   23965212.9184
 -28138090.71948 -21910805.03947  20561268.2664                   20561266.1604
 -30958353.24647 -24088943.28145  21822616.7194                   21822614.0204
 -17565777.87148 -12796953.73446  21666874.1334                   21666874.8554
 11  8 27  2  3  0.0000000  0  8G26G10G29G12G15G05G02G25
  -4918898.77747  -3807693.19145  23035034.5394                   23035034.7894
 -15299841.59446 -11895717.62943  24245386.6724                   24245387.3444
 -10295710.09847  -7986411.86745  22165537.6954                   22165536.9494
 -23231648.37948 -18069626.31246  21851445.9224                   21851444.8244
   3119315.23447   2459900.46144  23940811.3054                   23940812.4264
 -28128558.59048 -21903377.39546  20563082.0474                   20563079.9774
 -30951191.45347 -24083362.66445  21823979.8204                   21823976.1914
 -17580575.67648 -12808484.48846  21664057.7114                   21664058.7194
 11  8 27  2  3 30.0000000  0  8G26G10G29G12G15G05G02G25
  -5041189.74247  -3902984.75444  23011763.0554                   23011763.5124
 -15223692.51446 -11836380.71943  24259877.0784                   24259878.4844
 -10407081.68447  -8073194.85545  22144344.3674                   22144343.8244
 -23190400.56647 -18037485.17646  21859294.9224                   21859293.9144
   2991058.95747   2359960.72744  23916404.7114                   23916406.1414
 -28118565.20348 -21895590.33246  20564983.7504                   20564981.4614
 -30943939.37147 -24077711.69545  21825359.7194                   21825356.7814
 -17594818.27748 -12819582.61346  21661347.4614                   21661348.9734
 11  8 27  2  4  0.0000000  0  8G26G10G29G12G15G05G02G25
  -5163289.27047  -3998127.12944  22988527.8984                   22988528.5084
 -15147471.02346 -11776987.42242  24274381.7584                   24274383.0944
 -10518314.34847  -8159869.60545  22123177.3054                   22123176.0984
 -23148802.43048 -18005071.07046  21867210.9924                   21867210.2974
   2862770.85946   2259996.17243  23891991.8674                   23891993.1254
 -28108115.51248 -21887447.71546  20566971.9694                   20566969.9774
 -30936600.01247 -24071992.71145  21826756.3674                   21826753.6454
 -17608510.04348 -12830251.50446  21658742.0634                   21658743.4104
 11  8 27  2  4 30.0000000  0  8G26G10G29G12G15G05G02G25
  -5285191.23447  -4093115.53944  22965331.3834                   22965330.8954
 -15071176.83646 -11717537.46143  24288901.1414                   24288900.7704
 -10629403.56647  -8246432.59445  22102037.7664                   22102036.8794
 -23106853.98848 -17972383.98846  21875193.7274                   21875192.5354
   2734456.35546   2160011.06344  23867574.5394                   23867575.9024
 -28097208.97748 -21878949.10246  20569047.3914                   20569045.3954
 -30929170.39848 -24066203.40245  21828170.3284                   21828167.3984
 -17621649.71148 -12840490.19146  21656241.4694                   21656242.9804
 11  8 27  2  5  0.0000000  0  8G26G10G29G12G15G05G02G25
  -5406891.96147  -4187947.15644  22942171.7974                   22942171.7974
 -14994812.33246 -11658032.66043  24303432.1644                   24303432.9224
 -10740346.89547  -8332881.88345  22080925.8444                   22080925.2774
 -23064558.47348 -17939426.45746  21883242.5314                   21883240.8674
   2606118.21546   2060007.55544  23843151.6954                   23843153.5984
 -28085847.89548 -21870096.30546  20571209.7894                   20571207.7854
 -30921650.73847 -24060343.93745  21829601.1414                   21829597.8714
 -17634238.50848 -12850299.63346  21653846.2424                   21653847.8164
 11  8 27  2  5 30.0000000  0  8G26G10G29G12G15G05G02G25
  -5528390.75447  -4282621.41844  22919051.0474                   22919051.2074
 -14918382.92646 -11598477.34843  24317976.2344                   24317976.8134
 -10851145.32047  -8419218.28146  22059841.5784                   22059840.5124
 -23021921.61348 -17906202.95346  21891355.6334                   21891354.5744
   2477756.28147   1959985.45744  23818725.4614                   23818726.8984
 -28074037.31248 -21860893.23847  20573457.0394                   20573455.1414
 -30914043.88747 -24054416.52345  21831048.7734                   21831045.0664
 -17646280.66848 -12859683.12146  21651554.3754                   21651556.0314
 11  8 27  2  6  0.0000000  0  8G26G10G29G12G15G05G02G25
  -5649678.12947  -4377130.92644  22895971.0634                   22895971.2734
 -14841885.57446 -11538869.08243  24332533.1644                   24332533.7894
 -10961791.10247  -8505435.72346  22038786.3594                   22038785.3204
 -22978940.55148 -17872711.23846  21899534.9774                   21899533.4694
   2349379.05147   1859951.43444  23794295.9844                   23794297.0354
 -28061773.76648 -21851337.22347  20575790.6094                   20575788.7854
 -30906343.85247 -24048416.51645  21832513.8754                   21832511.0234
 -17657771.91448 -12868637.32846  21649367.7584                   21649368.9734
 11  8 27  2  6 30.0000000  0  8G26G10G29G12G15G05G02G25
  -5770753.67247  -4471475.39844  22872930.5784                   22872930.7504
 -14765325.57046 -11479211.97743  24347102.2034                   24347103.0824
 -11072285.17247  -8591534.97345  22017760.2504                   22017759.3054
 -22935621.28948 -17838955.98446  21907777.8914                   21907776.9574
   2220986.33247   1759905.30944  23769863.9304                   23769864.3714
 -28049062.36748 -21841432.23046  20578209.8134                   20578207.8554
 -30898553.78148 -24042346.34045  21833996.3364                   21833992.8634
 -17668716.76648 -12877165.77046  21647285.1644                   21647286.2584
 11  8 27  2  7  0.0000000  0  8G26G10G29G12G15G05G02G25
  -5891619.03147  -4565656.09044  22849930.8754                   22849931.5514
 -14688710.40646 -11419511.89143  24361681.4304                   24361682.2384
 -11182630.55948  -8677518.35545  21996761.7664                   21996760.6134
 -22891971.88748 -17804943.48846  21916084.3984                   21916083.5044
   2092575.65247   1659845.16844  23745427.8524                   23745428.4734
 -28035910.49648 -21831184.01246  20580712.3284                   20580710.4024
 -30890678.57048 -24036209.81245  21835494.7664                   21835492.0864
 -17679121.80148 -12885273.58246  21645304.8914                   21645306.1414
 11  8 27  2  7 30.0000000  0  8G26G10G29G12G15G05G02G25
  -6012272.89147  -4659671.99244  22826970.9844                   22826971.6724
 -14612044.80946 -11359772.52243  24376270.5234                   24376271.0664
 -11292827.68048  -8763386.21946  21975792.5164                   21975791.1454
 -22847998.03948 -17770678.16846  21924452.4224                   21924451.3984
   1964147.25047   1559771.25844  23720989.1174                   23720989.2464
 -28022322.93048 -21820596.28546  20583298.0554                   20583296.0314
 -30882720.81648 -24030008.98445  21837009.0864                   21837006.6214
 -17688990.98448 -12892963.83646  21643427.0704                   21643427.7544
 11  8 27  2  8  0.0000000  0  8G26G10G29G12G15G05G02G25
  -6132699.23047  -4753510.62144  22804054.9304                   22804055.3444
 -14535318.84846 -11299986.09043  24390871.1024                   24390871.7504
 -11402861.79348  -8849127.07046  21954853.6174                   21954852.3204
 -22803690.05948 -17736152.48846  21932883.9454                   21932882.8164
   1835716.60947   1459695.54344  23696549.5864                   23696549.1524
 -28008289.34848 -21809661.02046  20585968.6174                   20585966.6884
 -30874667.79747 -24023733.91445  21838541.3674                   21838538.8204
 -17698313.18448 -12900227.88746  21641652.9614                   21641654.2934
 11  8 27  2  8 30.0000000  0  8G26G10G29G12G15G05G02G25
  -6252899.58247  -4847173.13744  22781181.0474                   22781181.8794
 -14458539.93446 -11240158.43042  24405481.8984                   24405482.5084
 -11512735.96948  -8934743.28945  21933945.1094                   21933943.8594
 -22759056.21148 -17701372.88745  21941377.5314                   21941375.9804
   1707281.02047   1359616.01244  23672109.2424                   23672108.6374
 -27993817.34448 -21798384.12946  20588722.7974                   20588720.6134
 -30866524.71948 -24017388.68445  21840091.4064                   21840088.6644
 -17707095.28548 -12907071.06646  21639981.6254                   21639983.0784
 11  8 27  2  9  0.0000000  0  8G26G10G29G12G15G05G02G25
  -6372868.98847  -4940655.72744  22758351.7894                   22758352.1454
 -14381709.50446 -11180290.56242  24420102.2814                   24420102.2274
 -11622447.03948  -9020232.42245  21913067.3754                   21913066.5784
 -22714098.04348 -17666340.56645  21949932.8674                   21949931.1564
   1578844.59447   1259535.82044  23647667.9694                   23647668.3244
 -27978907.87148 -21786766.34846  20591559.6024                   20591557.9184
 -30858290.61348 -24010972.51245  21841658.3914                   21841655.3794
 -17715337.63348 -12913493.66846  21638413.6024                   21638414.6134
 11  8 27  2  9 30.0000000  0  8G26G10G29G12G15G05G02G25
  -6492607.59847  -5033958.44945  22735566.6334                   22735567.0664
 -14304833.40246 -11120387.09842  24434730.3054                   24434731.5664
 -11731996.19547  -9105595.36746  21892220.9844                   21892220.4494
 -22668821.78148 -17631060.37945  21958548.5234                   21958547.1254
   1450406.94146   1159454.74244  23623225.8754                   23623227.3404
 -27963566.84048 -21774812.29746  20594479.1024                   20594476.9654
 -30849968.23848 -24004487.56645  21843242.1094                   21843238.7974
 -17723045.12148 -12919499.50046  21636946.7034                   21636948.1484
 11  8 27  2 10  0.0000000  0  8G26G10G29G12G15G05G02G25
  -6612109.80947  -5127076.96545  22712825.7034                   22712825.4574
 -14227912.50046 -11060448.78942  24449367.9844                   24449369.5984
 -11841379.60548  -9190829.16846  21871406.2734                   21871405.1884
 -22623229.02048 -17595533.57446  21967224.4534                   21967223.5274
   1321972.56347   1059376.20744  23598786.3594                   23598786.6844
 -27947794.52348 -21762522.16446  20597479.8674                   20597478.3954
 -30841555.89547 -23997932.50845  21844843.0164                   21844839.4264
 -17730217.66848 -12925088.49246  21635581.6094                   21635583.0864
 11  8 27  2 10 30.0000000  0  8G26G10G29G12G15G05G02G25
  -6731369.95747  -5220006.85245  22690131.4384                   22690131.6454
 -14150946.98046 -11000475.74242  24464013.9534                   24464014.5124
 -11950592.78148  -9275930.33246  21850623.5084                   21850622.6024
 -22577320.94948 -17559761.06245  21975960.7034                   21975959.6484
   1193546.21946    959303.92644  23574346.9534                   23574347.8164
 -27931591.16448 -21749896.17646  20600563.6644                   20600561.9964
 -30833051.57448 -23991305.78145  21846461.3444                   21846457.6684
 -17736854.77748 -12930260.26646  21634318.7034                   21634320.3204
 11  8 27  2 11  0.0000000  0  7G26G29G12G15G05G02G25
  -6850386.42647  -5312746.86345  22667483.3754                   22667482.8244
 -12059635.47748  -9360898.62146  21829873.1174                   21829872.5164
 -22531102.25448 -17523746.50845  21984755.3754                   21984754.6054
   1065128.82846    859238.65244  23549909.4924                   23549911.1454
 -27914960.81648 -21736937.45346  20603728.2114                   20603726.3714
 -30824457.06247 -23984608.78945  21848096.5314                   21848093.1994
 -17742960.01648 -12935017.59446  21633157.3284                   21633158.7504
 11  8 27  2 11 30.0000000  0  7G26G29G12G15G05G02G25
  -6969155.81647  -5405294.31644  22644881.7664                   22644881.4414
 -12168506.26248  -9445732.97746  21809155.6884                   21809154.4924
 -22484576.43747 -17487492.63345  21993609.4774                   21993608.0354
    936722.80947    759182.19544  23525475.4694                   23525475.5084
 -27897906.53148 -21723648.40246  20606973.5864                   20606971.8984
 -30815772.49648 -23977841.61745  21849749.5944                   21849746.1214
 -17748535.43048 -12939362.06646  21632095.9304                   21632097.0354
 11  8 27  2 12  0.0000000  0  7G26G29G12G15G05G02G25
  -7087671.21547  -5497643.86745  22622329.2584                   22622329.1844
 -12277199.41448  -9530428.90646  21788472.3674                   21788470.8204
 -22437742.91448 -17450998.99245  22002521.3444                   22002520.3134
    808334.48847    659139.57044  23501043.4454                   23501043.7734
 -27880427.35548 -21710028.25446  20610299.6254                   20610297.9494
 -30806994.49647 -23971001.62545  21851419.6804                   21851416.8554
 -17753579.32848 -12943292.37146  21631136.0474                   21631137.2934
 11  8 27  2 12 30.0000000  0  7G26G29G12G15G05G02G25
  -7205927.99647  -5589791.90644  22599825.5474                   22599825.2774
 -12385711.47748  -9614983.72346  21767823.2424                   21767821.8914
 -22390603.71548 -17414267.15645  22011491.8134                   22011490.5784
    679967.68847    559113.68844  23476616.0704                   23476616.0354
 -27862524.26648 -21696077.78546  20613706.5864                   20613705.1054
 -30798121.93448 -23964087.93745  21853108.0314                   21853105.4224
 -17758092.46148 -12946809.10246  21630277.4454                   21630278.2384
 11  8 27  2 13  0.0000000  0  8G26G21G29G12G15G05G02G25
  -7323919.83647  -5681733.51244  22577372.5554                   22577372.3244
   7748631.90256   6058816.92253  25035294.7814                   25035295.7704
 -12494037.97348  -9699393.92646  21747209.0704                   21747208.1604
 -22343159.30947 -17377297.50845  22020519.7974                   22020518.7774
    551628.13347    459109.00444  23452193.7664                   23452193.0354
 -27844196.96548 -21681796.77046  20617194.2114                   20617192.3954
 -30789151.88748 -23957098.28945  21854814.9534                   21854811.9924
 -17762073.73848 -12949911.40646  21629519.7584                   21629520.7424
 11  8 27  2 13 30.0000000  0  8G26G21G29G12G15G05G02G25
  -7441654.30947  -5773474.54745  22554968.1094                   22554967.8204
   7661097.87946   5990608.73443  25018638.2344                   25018639.1804
 -12602187.71548  -9783666.38346  21726629.0864                   21726627.5944
 -22295423.88347 -17340101.08245  22029603.8914                   22029602.5594
    423307.22347    359118.86744  23427775.0704                   23427774.2114
 -27825458.82048 -21667195.60246  20620759.7034                   20620757.9224
 -30780095.30948 -23950041.22345  21856538.7974                   21856535.3794
 -17765536.00848 -12952609.27746  21628860.9924                   21628862.0744
 11  8 27  2 14  0.0000000  0  8G26G21G29G12G15G05G02G25
  -5983695.85547  -4637402.94144  22832408.4224                   22832408.3364
   9148995.70746   7150009.75443  25301775.7814                   25301776.9264
 -11134727.03548  -8640190.47746  22005877.1954                   22005876.2274
 -20671974.42648 -16075075.53545  22338535.8834                   22338535.1334
   1870439.95747   1486754.94144  23703155.0704                   23703155.0944
 -26230884.88748 -20424670.45346  20924197.2114                   20924195.4304
 -29195524.54748 -22715310.76245  22158072.3444                   22158068.9884
 -16193053.34848 -11727298.11346  21928094.4144                   21928095.6374
 11  8 27  2 14 30.0000000  0  8G26G21G29G12G15G05G02G25
  -6100902.13747  -4728732.40644  22810104.4774                   22810104.1214
   9061466.11346   7081805.02042  25285118.6254                   25285120.1294
 -11242514.13748  -8724180.35546  21985366.2504                   21985364.9654
 -20623663.54347 -16037430.69945  22347729.3134                   22347727.9654
   1742167.94947   1386802.89544  23678745.1024                   23678745.4344
 -26211329.83248 -20409432.73446  20927918.5314                   20927916.6684
 -29186291.90247 -22708116.50845  22159829.5704                   22159826.0234
 -16195480.64848 -11729189.51246  21927632.2814                   21927633.6764
 11  8 27  2 15  0.0000000  0  8G26G21G29G12G15G05G02G25
  -6217841.41447  -4819853.84045  22787851.4534                   22787850.9494
   8973935.21946   7013599.24643  25268462.7424                   25268463.4264
 -11350119.33648  -8808028.48446  21964889.4774                   21964888.4064
 -20575072.14148 -15999567.27045  22356975.6334                   22356974.3484
   1613921.82046   1286871.03944  23654340.6644                   23654341.7154
 -26191372.48448 -20393881.54746  20931716.3284                   20931714.3094
 -29176973.82848 -22700855.66445  22161602.3524                   22161599.4224
 -16197395.77748 -11730681.83246  21927268.0474                   21927269.3554
 11  8 27  2 15 30.0000000  0  8G26G21G29G12G15G05G02G25
  -6334506.46947  -4910761.58645  22765650.8284                   22765650.3484
   8886406.02046   6945394.89543  25251805.7974                   25251806.8914
 -11457536.56248  -8891730.12546  21944448.6254                   21944447.5824
 -20526199.51647 -15961484.72345  22366275.8364                   22366274.5634
   1485708.17246   1186964.50044  23629942.1414                   23629943.2464
 -26171012.05148 -20378016.26246  20935590.8674                   20935588.4964
 -29167566.37947 -22693525.18045  22163392.5864                   22163389.2974
 -16198796.99248 -11731773.69146  21927001.3054                   21927002.4304
 11  8 27  2 16  0.0000000  0  8G26G21G29G12G15G05G02G25
  -6450892.65647  -5001452.04744  22743503.1174                   22743502.4064
   8798878.63746   6877191.93843  25235150.0084                   25235150.5824
 -11564762.58648  -8975282.79346  21924044.1884                   21924043.2034
 -20477047.64847 -15923184.57445  22375629.1564                   22375628.5354
   1357531.25847   1087086.57844  23605550.8524                   23605551.6054
 -26150248.83248 -20361837.11746  20939541.6484                   20939539.5984
 -29158068.32848 -22686124.10945  22165200.0394                   22165196.9884
 -16199684.94948 -11732465.59846  21926832.6174                   21926833.3914
 11  8 27  2 16 30.0000000  0  8G26G21G29G12G15G05G02G25
  -6566992.01247  -5091918.99645  22721410.2114                   22721409.6174
   8711357.06646   6808993.48443  25218495.2034                   25218494.9774
 -11671790.88348  -9058681.39546  21903677.1884                   21903675.8094
 -20427615.43047 -15884665.97745  22385036.0634                   22385035.5664
   1229397.96947    987242.64545  23581168.1484                   23581169.2074
 -26129081.59448 -20345343.15646  20943569.5394                   20943567.4774
 -29148475.24248 -22678648.96145  22167025.4064                   22167022.4654
 -16200057.33248 -11732755.78146  21926761.3054                   21926762.3244
 11  8 27  2 17  0.0000000  0  8G26G21G29G12G15G05G02G25
  -6682803.01647  -5182161.27345  22699372.3674                   22699371.1994
   8623838.49646   6740797.43443  25201841.0784                   25201840.8404
 -11778621.36748  -9141925.85246  21883347.9774                   21883347.1334
 -20377908.11747 -15845933.00445  22394494.5784                   22394493.7074
   1101309.25047    887433.43845  23556792.9304                   23556794.0474
 -26107514.79348 -20328537.85546  20947674.0554                   20947671.8364
 -29138789.02047 -22671101.25045  22168868.2194                   22168865.4414
 -16199918.14148 -11732647.32046  21926788.1024                   21926789.2704
 11  8 27  2 17 30.0000000  0  8G26G21G29G12G15G05G02G25
  -6798330.94947  -5272182.95345  22677388.0004                   22677387.7774
   8536313.25846   6672596.16043  25185185.3674                   25185185.7384
 -11885260.75848  -9225021.41046  21863055.2194                   21863053.7584
 -20327937.52047 -15806994.87945  22404004.1484                   22404003.0164
    973259.24247    787654.39145  23532426.2274                   23532427.3134
 -26085559.49248 -20311429.82446  20951851.6254                   20951849.9844
 -29129018.30148 -22663487.68745  22170727.9144                   22170724.7664
 -16199278.13748 -11732148.62146  21926910.0004                   21926910.8244
 11  8 27  2 18  0.0000000  0  8G26G21G29G12G15G05G02G25
  -6913561.60547  -5361972.98845  22655460.7194                   22655459.5744
   8448791.42646   6604397.48043  25168530.1024                   25168531.0164
 -11991696.09848  -9307957.96946  21842801.1254                   21842799.8834
 -20277696.11747 -15767845.74645  22413564.7424                   22413563.0704
    845261.12147    687915.75845  23508069.1484                   23508069.3874
 -26063207.52048 -20294012.69946  20956105.2194                   20956103.1484
 -29119152.25847 -22655799.85545  22172605.0944                   22172602.4414
 -16198128.62948 -11731252.90646  21927128.5164                   21927130.1374
 11  8 27  2 18 30.0000000  0  8G26G21G29G12G15G05G02G25
  -7028494.29747  -5451530.84045  22633588.9144                   22633588.8714
   8361269.28946   6536198.63342  25151874.7814                   25151875.7344
 -12097928.17248  -9390736.13746  21822585.5234                   21822584.2974
 -20227189.90648 -15728490.26245  22423175.5634                   22423174.5434
    717315.10947    588217.71545  23483721.6484                   23483722.1724
 -26040464.48848 -20276290.85546  20960432.9454                   20960431.3594
 -29109193.73847 -22648039.97345  22174500.4304                   22174497.2544
 -16196474.57448 -11729964.04346  21927443.2034                   21927444.5234
 11  8 27  2 19  0.0000000  0  8G26G21G29G12G15G05G02G25
  -7143123.75847  -5540852.39845  22611775.6484                   22611775.9104
   8273747.95746   6468000.30442  25135218.9774                   25135221.1054
 -12203953.14548  -9473352.94146  21802409.8134                   21802409.0394
 -20176420.64847 -15688929.80945  22432836.9064                   22432835.6454
    589425.73447    488563.83245  23459384.6174                   23459385.8324
 -26017331.10948 -20258264.84046  20964835.1724                   20964833.1414
 -29099140.77047 -22640206.49245  22176413.7664                   22176410.2154
 -16194316.29348 -11728282.27346  21927854.1334                   21927855.1334
 11  8 27  2 19 30.0000000  0  8G26G21G29G12G15G05G02G25
  -7257454.70747  -5629941.36345  22590019.0004                   22590019.4224
   8186218.83646   6399795.93442  25118563.6954                   25118564.6884
 -12309776.91448  -9555812.95746  21782272.0314                   21782270.6374
 -20125399.42647 -15649173.01645  22442546.3284                   22442544.6844
    461587.68047    388949.92244  23435058.0234                   23435058.5234
 -25993817.73848 -20239942.73446  20969309.4844                   20969307.6484
 -29089001.39848 -22632305.67245  22178342.6724                   22178339.6804
 -16191664.03948 -11726215.59846  21928358.7664                   21928360.2114
 11  8 27  2 20  0.0000000  0  8G26G21G29G12G15G05G02G25
  -7371475.14147  -5718788.37545  22568321.6724                   22568322.1564
   8098689.07046   6331591.05143  25101907.0474                   25101907.5634
 -12415389.08248  -9638108.10246  21762174.7424                   21762173.4844
 -20074121.14147 -15609215.91445  22452304.0784                   22452302.9494
    333812.41047    289384.93444  23410742.2894                   23410743.8164
 -25969918.84848 -20221320.22746  20973857.5944                   20973856.0634
 -29078767.49247 -22624331.19145  22180290.2974                   22180287.5634
 -16188511.56648 -11723759.12546  21928958.5784                   21928960.1414
 11  8 27  2 20 30.0000000  0  8G26G21G29G12G15G05G02G25
  -7485180.07847  -5807389.54345  22546684.7344                   22546684.0634
   8011159.72346   6263386.50842  25085250.8444                   25085251.2114
 -12520785.46548  -9720235.11346  21742118.5084                   21742116.9734
 -20022587.43747 -15569059.78145  22462110.1024                   22462108.9774
    206104.07447    189872.10244  23386440.6254                   23386440.8594
 -25945635.33248 -20202398.00446  20978478.3364                   20978476.7464
 -29068437.14547 -22616281.55145  22182255.9384                   22182252.8404
 -16184859.43748 -11720913.31646  21929653.3524                   21929654.9184
 11  8 27  2 21  0.0000000  0  8G26G21G29G12G15G05G02G25
  -7598567.71547  -5895743.46545  22525107.5474                   22525107.0984
   7923628.25046   6195180.28942  25068593.6884                   25068594.7624
 -12625966.02348  -9802193.94946  21722103.3364                   21722101.6954
 -19970803.07447 -15528708.33245  22471964.7664                   22471962.9884
     78463.85947     90412.34044  23362151.0554                   23362151.6764
 -25920971.33248 -20183179.30146  20983171.7194                   20983169.9534
 -29058011.52047 -22608157.69145  22184240.0474                   22184236.9534
 -16180711.45348 -11717681.12546  21930442.9614                   21930444.0904
 11  8 27  2 21 30.0000000  0  8G26G21G29G12G15G05G02G25
  -7711638.06647  -5983850.14545  22503591.1094                   22503590.5944
   7836090.16846   6126968.93442  25051936.2194                   25051936.3094
 -12730931.98048  -9883985.57446  21702128.8204                   21702127.7154
 -19918774.77047 -15488166.80145  22481864.8364                   22481863.7384
    -49108.92247     -8994.88344  23337874.7424                   23337875.3874
 -25895933.26648 -20163669.11346  20987936.6804                   20987934.7194
 -29047494.36747 -22599962.50045  22186241.6724                   22186238.6054
 -16176073.53148 -11714067.16846  21931325.6254                   21931326.8984
 11  8 27  2 22  0.0000000  0  8G26G21G29G12G15G05G02G25
  -7824389.37947  -6071708.21945  22482135.5704                   22482133.6214
   7748543.10246   6058750.54342  25035276.0944                   25035277.0084
 -12835683.19148  -9965609.85546  21682195.2664                   21682194.0634
 -19866507.73447 -15447439.24245  22491811.4304                   22491810.1374
   -176613.54747   -108348.99244  23313612.0004                   23313612.3674
 -25870525.43048 -20143870.80146  20992771.4534                   20992769.6764
 -29036887.49248 -22591697.40645  22188260.0004                   22188256.6134
 -16170949.57448 -11710074.46946  21932300.5314                   21932301.9184
 11  8 27  2 22 30.0000000  0  8G26G21G29G12G15G05G02G25
  -7936815.67247  -6159313.02045  22460741.0314                   22460740.1334
   7660989.14546   5990526.81643  25018614.8914                   25018615.5274
 -12940214.79748 -10047063.01646  21662303.6414                   21662302.0354
 -19814002.81648 -15406526.33245  22501802.2274                   22501801.4654
   -304044.36747   -207645.59444  23289362.0164                   23289362.0554
 -25844747.46548 -20123784.06646  20997676.8594                   20997674.9614
 -29026188.06647 -22583360.19545  22190296.0784                   22190292.9924
 -16165339.10948 -11705702.68446  21933368.4064                   21933369.9184
 11  8 27  2 23  0.0000000  0  8G26G21G29G12G15G05G02G25
  -8048917.71147  -6246665.18745  22439408.3754                   22439407.8364
   7573423.41446   5922293.92243  25001951.4774                   25001952.2544
 -13044528.35248 -10128346.28146  21642453.5004                   21642452.5044
 -19761266.92247 -15365433.43745  22511837.9064                   22511836.8284
   -431402.18047   -306885.29345  23265126.4064                   23265126.5474
 -25818606.10248 -20103414.16846  21002651.5164                   21002649.5314
 -29015400.06647 -22574953.94145  22192348.3834                   22192346.0124
 -16159248.76248 -11700956.93746  21934527.2974                   21934528.8594
 11  8 27  2 23 30.0000000  0  8G26G21G29G12G15G05G02G25
  -8160683.78947  -6333755.55545  22418140.2344                   22418139.2974
   7485853.39846   5854057.64543  24985286.9384                   24985287.9024
 -13148614.27748 -10209452.18746  21622646.4384                   21622645.1484
 -19708295.21547 -15324156.78945  22521917.7734                   22521917.1294
   -558676.42647   -406059.91045  23240907.3524                   23240906.6804
 -25792095.91448 -20082756.88346  21007695.9694                   21007693.8554
 -29004515.30947 -22566472.31645  22194419.7894                   22194417.0554
 -16152672.57848 -11695832.64146  21935778.2734                   21935779.6024
 11  8 27  2 24  0.0000000  0  8G26G21G29G12G15G05G02G25
  -8272101.47347  -6420574.44945  22396938.0394                   22396937.3164
   7398287.06646   5785824.27343  24968624.2894                   24968624.4734
 -13252461.00848 -10290371.68746  21602884.8134                   21602884.0864
 -19655082.03147 -15282691.97745  22532044.3134                   22532043.4774
   -685855.28947   -505160.20345  23216705.7734                   23216705.0474
 -25765210.62148 -20061807.29346  21012812.2734                   21012810.0274
 -28993524.50447 -22557908.07445  22196511.5004                   22196508.4264
 -16145603.82448 -11690324.52346  21937123.9224                   21937125.0434
 11  8 27  2 24 30.0000000  0  8G26G21G29G12G15G05G02G25
  -8383180.28947  -6507129.28945  22375800.2424                   22375800.1954
   7310710.43846   5717582.89543  24951958.9384                   24951959.6174
 -13356079.34848 -10371113.21546  21583167.2894                   21583165.6214
 -19601643.80547 -15241051.81245  22542213.4844                   22542212.3364
   -812949.12147   -604194.21145  23192520.1094                   23192520.2034
 -25737965.39848 -20040577.23846  21017996.5474                   21017994.5594
 -28982440.89147 -22549271.50045  22198620.5394                   22198617.8094
 -16138057.89848 -11684444.59046  21938559.7274                   21938560.9344
 11  8 27  2 25  0.0000000  0  8G26G21G29G12G15G05G02G25
  -8493926.48047  -6593424.94545  22354725.8134                   22354725.6524
   7223113.64146   5649325.81643  24935289.5634                   24935290.2194
 -13459476.43048 -10451682.35246  21563491.3054                   21563490.1804
 -19547993.20347 -15199246.16845  22552422.3054                   22552421.4344
   -939964.10947   -703166.80145  23168350.1094                   23168349.6844
 -25710373.18748 -20019076.80946  21023247.1564                   21023245.0354
 -28971273.34447 -22540569.51645  22200745.8364                   22200742.7464
 -16130046.66448 -11678202.07446  21940084.0164                   21940085.1334
 11  8 27  2 25 30.0000000  0  8G26G21G29G12G15G05G02G25
  -8604322.48047  -6679447.71145  22333718.0634                   22333717.5984
   7135509.53146   5581063.04343  24918619.3674                   24918619.1994
 -13562636.67648 -10532066.93446  21543860.7034                   21543859.4964
 -19494119.63747 -15157266.78545  22562674.3134                   22562673.4694
  -1066883.76647   -802065.08644  23144198.4924                   23144197.3204
 -25682422.34848 -19997296.92646  21028566.5164                   21028564.1294
 -28960008.29747 -22531791.55945  22202889.4924                   22202886.4224
 -16121558.56648 -11671587.96946  21941699.5164                   21941700.7034
 11  8 27  2 26  0.0000000  0  8G26G21G29G12G15G05G02G25
  -8714373.08647  -6765201.35545  22312776.2344                   22312775.8324
   7047889.57446   5512787.88343  24901945.6724                   24901944.7384
 -13665565.71148 -10612271.32846  21524273.8364                   21524272.7034
 -19440034.16847 -15115122.27045  22572966.0634                   22572965.7464
  -1193713.30147   -900893.18045  23120062.6724                   23120062.8284
 -25654123.39548 -19975245.78146  21033951.2114                   21033949.7114
 -28948653.52348 -22522943.69145  22205050.0474                   22205046.6054
 -16112604.04348 -11664610.41846  21943403.5864                   21943404.6414
 11  8 27  2 26 30.0000000  0  8G26G21G29G12G15G05G02G25
  -8824065.81647  -6850676.13745  22291902.3054                   22291901.6884
   6960261.94946   5444506.77043  24885270.5234                   24885270.2234
 -13768252.34448 -10692286.84446  21504733.1334                   21504731.4774
 -19385731.15247 -15072808.25845  22583300.0084                   22583299.0904
  -1320440.71547   -999641.69144  23095947.2894                   23095946.7934
 -25625469.77048 -19952918.27746  21039403.6954                   21039401.6414
 -28937199.62947 -22514018.60245  22207230.1414                   22207226.5474
 -16103176.45348 -11657264.25846  21945197.5864                   21945198.4414
 11  8 27  2 27  0.0000000  0  8G26G21G29G12G15G05G02G25
  -8933409.29347  -6935878.75845  22271094.9384                   22271094.5554
   6872613.87146   5376209.68443  24868591.4774                   24868591.2234
 -13870706.50848 -10772121.21146  21485236.6954                   21485235.2974
 -19331226.12147 -15030336.81245  22593672.0004                   22593671.4734
  -1447075.28547  -1098317.86344  23071849.0004                   23071848.8634
 -25596476.63748 -19930326.22346  21044920.8754                   21044918.9694
 -28925658.78547 -22505025.73045  22209426.1724                   22209423.0124
 -16093290.43448 -11649560.87946  21947078.6564                   21947079.9264
 11  8 27  2 27 30.0000000  0  8G26G21G29G12G15G05G02G25
  -9042380.47747  -7020791.30145  22250357.9384                   22250357.5704
   6784964.26246   5307911.43443  24851911.7664                   24851912.2304
 -13972906.16048 -10851757.25446  21465788.8984                   21465787.6684
 -19276502.54347 -14987695.07445  22604085.4774                   22604084.8794
  -1573594.23447  -1196903.91444  23047773.4844                   23047772.8714
 -25567126.45348 -19907455.93746  21050506.2504                   21050504.0274
 -28914011.20748 -22495949.69145  22211642.2894                   22211638.9064
 -16082928.47348 -11641486.61746  21949050.6804                   21949052.0744
 11  8 27  2 28  0.0000000  0  8G26G21G29G12G15G05G02G25
  -9150983.17647  -7105416.69145  22229691.8364                   22229691.5394
   6697305.25846   5239605.80943  24835230.1804                   24835231.0084
 -14074856.82848 -10931199.28146  21446388.2274                   21446386.8634
 -19221570.71947 -14944891.07445  22614538.9454                   22614537.7544
  -1700002.09847  -1295403.44944  23023718.9844                   23023719.0234
 -25537429.35948 -19884315.34846  21056157.4694                   21056155.3754
 -28902263.78948 -22486795.88345  22213878.0394                   22213874.6374
 -16072100.49248 -11633049.23446  21951111.0864                   21951112.1844
 11  8 27  2 28 30.0000000  0  8G26G21G29G12G15G05G02G25
  -9259226.04747  -7189761.71945  22209093.2194                   22209093.4024
   6609623.81346   5171282.74643  24818545.6724                   24818545.6804
 -14176567.89148 -11010454.60946  21427033.2274                   21427032.0824
 -19166446.25047 -14901936.94145  22625028.1954                   22625027.6804
  -1826307.97747  -1393823.50845  22999683.7894                   22999682.7274
 -25507399.95748 -19860915.80146  21061871.7974                   21061869.6134
 -28890428.44548 -22477573.53945  22216130.4924                   22216127.1374
 -16060820.91048 -11624259.96146  21953257.5394                   21953258.5784
 11  8 27  2 29  0.0000000  0  8G26G21G29G12G15G05G02G25
  -9367089.38347  -7273811.01645  22188568.2734                   22188567.9534
   6521935.69546   5102954.44143  24801859.4144                   24801859.2934
 -14278021.06248 -11089508.97746  21407726.8674                   21407726.0784
 -19111115.88747 -14858822.38345  22635557.6094                   22635556.2304
  -1952492.86747  -1492149.27344  22975671.4064                   22975671.0864
 -25477024.55148 -19837246.66046  21067652.1254                   21067650.0004
 -28878488.55548 -22468269.74645  22218402.0004                   22218398.8054
 -16049075.92248 -11615108.03946  21955492.4064                   21955493.6134
 11  8 27  2 29 30.0000000  0  8G26G21G29G12G15G05G02G25
  -9474573.86347  -7357565.08645  22168114.1884                   22168114.0164
   6434235.73446   5034616.93043  24785170.1804                   24785170.5664
 -14379218.29748 -11168363.90246  21388469.9064                   21388468.6724
 -19055587.32847 -14815553.39545  22646124.5704                   22646123.1054
  -2078557.96547  -1590381.71545  22951682.0634                   22951681.1644
 -25446310.28548 -19813313.47746  21073496.7274                   21073494.8284
 -28866448.64548 -22458887.99645  22220693.2344                   22220690.4184
 -16036872.31248 -11605598.73846  21957814.6174                   21957815.9454
 11  8 27  2 30  0.0000000  0  8G26G21G29G12G15G05G02G25
  -9581682.04748  -7441025.94945  22147732.2664                   22147732.1214
   6346517.78546   4966265.41843  24768478.6804                   24768477.9224
 -14480162.93448 -11247022.02046  21369260.9144                   21369259.2114
 -18999869.14847 -14772136.62945  22656727.4454                   22656726.0824
  -2204505.93747  -1688522.89145  22927715.2814                   22927713.7504
 -25415265.19148 -19789122.49646  21079404.4614                   21079402.5314
 -28854313.59847 -22449432.10945  22223002.8674                   22222999.2974
 -16024218.12148 -11595738.32846  21960222.7114                   21960224.1174
 11  8 27  2 30 30.0000000  0  8G26G21G29G12G15G05G02G25
  -9688404.24647  -7524186.03145  22127423.9144                   22127422.8094
   6258786.94946   4897903.87143  24751783.4774                   24751782.7704
 -14580846.71948 -11325476.86346  21350101.5784                   21350100.0474
 -18943958.50047 -14728569.90245  22667366.4614                   22667365.6454
  -2330327.93747  -1786565.91045  22903771.5554                   22903770.4694
 -25383885.85248 -19764671.06646  21085375.9774                   21085373.6884
 -28842077.56647 -22439897.53945  22225330.7424                   22225328.2734
 -16011109.93448 -11585524.15246  21962716.9064                   21962718.6684
 11  8 27  2 31  0.0000000  0  8G26G21G29G12G15G05G02G25
  -9794731.69948  -7607038.52745  22107189.9694                   22107189.6094
   6171048.23446   4829536.12943  24735086.8754                   24735086.7544
 -14681262.44548 -11403722.84846  21330992.8754                   21330991.5004
 -18887853.87947 -14684852.03545  22678043.0394                   22678042.4104
  -2456015.59047  -1884504.23045  22879854.2504                   22879853.1604
 -25352169.43448 -19739956.98046  21091411.2344                   21091409.2194
 -28829734.73048 -22430279.74645  22227679.7194                   22227677.1054
 -15997544.85248 -11574953.96146  21965298.8674                   21965299.8874
 11  8 27  2 31 30.0000000  0  8G26G21G29G12G15G05G02G25
  -9900667.08247  -7689585.51245  22087031.1884                   22087030.5044
   6083295.11746   4761157.18843  24718387.5944                   24718387.7934
 -14781413.37148 -11481762.49646  21311934.8674                   21311933.3324
 -18831563.98847 -14640989.78545  22688755.0554                   22688753.9304
  -2581571.92647  -1982340.22345  22855961.2974                   22855960.6524
 -25320124.62948 -19714987.01246  21097509.0314                   21097506.9494
 -28817290.71147 -22420583.10545  22230047.4694                   22230044.3954
 -15983531.28548 -11564034.29346  21967965.1644                   21967966.1174
 11  8 27  2 32  0.0000000  0  9G26G21G29G12G15G05G02G25G18
 -10006214.95747  -7771830.55145  22066945.8594                   22066945.4694
   5995518.41046   4692759.83243  24701684.2034                   24701683.9774
 -14881305.31248 -11559600.33246  21292925.8364                   21292924.6024
 -18775100.10547 -14596991.94945  22699499.3754                   22699498.7664
  -2707002.02747  -2080077.84845  22832092.6024                   22832092.0514
 -25287762.12548 -19689769.48046  21103667.6094                   21103665.2424
 -28804753.64147 -22410813.94545  22232433.3524                   22232430.7854
 -15969079.97348 -11552773.51646  21970715.2734                   21970716.2974
   9275998.90215                  24600566.156
 11  8 27  2 32 30.0000000  0  9G26G21G29G12G15G05G02G25G18
 -10111365.15647  -7853765.69945  22046936.0474                   22046936.2304
   5907724.90246   4624349.41443  24684977.6094                   24684977.1484
 -14980929.32048 -11637229.37546  21273967.9534                   21273966.3834
 -18718458.60547 -14552855.73445  22710277.7664                   22710277.4384
  -2832295.94947  -2177709.38745  22808250.1174                   22808249.0784
 -25255077.53948 -19664300.97346  21109887.1484                   21109884.8914
 -28792115.91048 -22400966.35545  22234838.7034                   22234835.5514
 -15954186.46548 -11541168.18446  21973548.9224                   21973550.5354
   9155516.566 6                  24577638.336
 11  8 27  2 33  0.0000000  0  9G26G21G29G12G15G05G02G25G18
 -10216119.80547  -7935392.62945  22027002.5704                   22027001.4844
   5819907.97746   4555920.76643  24668266.6094                   24668267.0944
 -15080288.64148 -11714652.18746  21255060.4924                   21255059.1524
 -18661648.53547 -14508588.16045  22721088.6334                   22721087.0084
  -2957456.34847  -2275236.86345  22784432.6484                   22784432.1094
 -25222078.88348 -19638587.75046  21116166.3754                   21116164.4964
 -28779383.75048 -22391045.18445  22237261.1174                   22237257.9344
 -15938858.96548 -11529224.66046  21976465.9614                   21976467.4534
   9035200.01646   7318499.84052  24554744.0164                   24554746.3164
 11  8 27  2 33 30.0000000  0  9G26G21G29G12G15G05G02G25G18
 -10320472.08247  -8016706.02045  22007144.7894                   22007143.6564
   5732070.49246   4487476.07443  24651551.9844                   24651551.9454
 -15179377.30948 -11791864.10246  21236204.5474                   21236203.1024
 -18604669.14147 -14464188.65245  22731930.9534                   22731930.1804
  -3082477.01247  -2372655.47345  22760642.2194                   22760641.3634
 -25188765.34048 -19612629.15646  21122505.9224                   21122503.6954
 -28766552.60547 -22381046.86745  22239702.9844                   22239699.6254
 -15923096.51648 -11516942.22746  21979465.6024                   21979466.7624
   8915054.00446   7224879.88743  24531880.0554                   24531882.2304
 11  8 27  2 34  0.0000000  0  9G26G21G29G12G15G05G02G25G18
 -10424421.21147  -8097705.28145  21987363.6484                   21987363.2384
   5644208.99246   4419012.72743  24634832.5164                   24634831.8874
 -15278196.28148 -11868865.87946  21217399.9694                   21217398.7464
 -18547526.81247 -14419662.18045  22742805.0864                   22742803.9384
  -3207357.47747  -2469964.84845  22736878.1334                   22736876.9494
 -25155142.49648 -19586429.55146  21128903.8834                   21128902.0514
 -28753625.14147 -22370973.48045  22242163.1024                   22242160.0744
 -15906904.66848 -11504325.18446  21982546.7274                   21982547.9024
   8795076.75446   7131391.43442  24509049.6414                   24509051.1254
 11  8 27  2 34 30.0000000  0  9G26G21G29G12G15G05G02G25G18
 -10527957.89147  -8178383.14845  21967661.5634                   21967661.2704
   5556328.98046   4350534.86743  24618109.3524                   24618108.8284
 -15376737.00048 -11945650.80946  21198648.0314                   21198647.0274
 -18490218.44147 -14375006.33245  22753710.5164                   22753709.7934
  -3332088.51247  -2567157.78145  22713142.5394                   22713141.9494
 -25121206.65248 -19559986.04746  21135362.2734                   21135360.3054
 -28740594.93747 -22360820.03545  22244642.6334                   22244639.1644
 -15890279.69548 -11491370.65646  21985710.4064                   21985711.6954
   8675275.85546   7038040.37943  24486251.7504                   24486253.6174
 11  8 27  2 35  0.0000000  0  9G26G21G29G12G15G05G02G25G18
 -10631083.50448  -8258740.71145  21948037.4144                   21948036.8634
   5468425.19546   4282038.52743  24601382.1644                   24601381.3634
 -15475001.67648 -12022220.66046  21179949.0314                   21179947.4264
 -18432752.01647 -14330227.32045  22764646.1804                   22764645.2544
  -3456672.36347  -2664236.01645  22689434.9614                   22689433.6374
 -25086965.19548 -19533304.40246  21141877.7424                   21141876.4384
 -28727466.69947 -22350590.22345  22247140.8834                   22247136.7814
 -15873229.12548 -11478084.48046  21988954.8364                   21988956.3834
   8555647.53946   6944823.81643  24463486.5554                   24463487.9654
 11  8 27  2 35 30.0000000  0  9G26G21G29G12G15G05G02G25G18
 -10733791.23848  -8338772.65645  21928492.4924                   21928492.0004
   5380500.27346   4213525.71543  24584649.5554                   24584649.6564
 -15572984.85948 -12098571.15246  21161303.3444                   21161301.9694
 -18375126.77347 -14285324.55545  22775612.2584                   22775610.9694
  -3581102.37547  -2761194.39145  22665756.5314                   22665755.9964
 -25052417.34848 -19506384.00846  21148452.0164                   21148450.1054
 -28714236.47347 -22340280.94945  22249658.5234                   22249654.9064
 -15855752.05148 -11464465.96946  21992280.9844                   21992282.2234
   8436196.45746   6851745.30543  24440756.5394                   24440757.1094
 11  8 27  2 36  0.0000000  0  9G26G21G29G12G15G05G02G25G18
 -10836078.30948  -8418476.80145  21909028.4224                   21909027.1604
   5292553.43846   4144995.81343  24567914.1334                   24567914.6134
 -15670684.66048 -12174700.82846  21142711.7424                   21142710.5164
 -18317347.03947 -14240301.40645  22786607.0084                   22786605.9844
  -3705375.85947  -2858030.77745  22642108.0554                   22642106.8014
 -25017565.87548 -19479227.02046  21155084.2194                   21155082.0634
 -28700904.65247 -22329892.50045  22252195.2194                   22252192.1994
 -15837851.53148 -11450517.49646  21995687.3674                   21995688.5124
   8316923.30546   6758805.46543  24418059.3984                   24418059.7774
 11  8 27  2 36 30.0000000  0  9G26G21G29G12G15G05G02G25G18
 -10937934.71148  -8497845.35545  21889645.5864                   21889644.1294
   5204590.34446   4076453.25043  24551174.9224                   24551175.1914
 -15768092.35948 -12250602.89846  21124175.5084                   21124174.2544
 -18259409.52347 -14195155.31645  22797632.0864                   22797630.8484
  -3829483.55547  -2954737.98845  22618490.7974                   22618490.1764
 -24982407.09448 -19451830.57446  21161774.5864                   21161772.8094
 -28687464.35247 -22319419.49645  22254752.3754                   22254749.9384
 -15819523.80148 -11436236.13346  21999174.4774                   21999175.6884
   8197835.77046   6666010.25443  24395397.5784                   24395398.1334
 11  8 27  2 37  0.0000000  0  9G26G21G29G12G15G05G02G25G18
 -11039369.88348  -8576885.68745  21870342.8134                   21870341.7584
   5116597.77746   4007887.69543  24534430.5474                   24534430.4024
 -15865218.00848 -12326285.18446  21105693.1334                   21105691.8284
 -18201329.78147 -14149898.35545  22808684.3984                   22808683.2704
  -3953435.04747  -3051323.45745  22594903.4694                   22594902.8484
 -24946956.27048 -19424206.56246  21168520.6174                   21168518.6374
 -28673927.73047 -22308871.46545  22257328.7584                   22257325.5234
 -15800784.10948 -11421633.77346  22002740.6564                   22002741.9344
   8078922.23846   6573350.59443  24372768.9694                   24372769.5274
 11  8 27  2 37 30.0000000  0  9G26G21G29G12G15G05G02G25G18
 -11140376.16848  -8655591.81645  21851122.2194                   21851121.2814
   5028579.53546   3939302.16043  24517681.9144                   24517681.1524
 -15962055.05948 -12401742.58646  21087265.6024                   21087264.1844
 -18143106.88747 -14104529.88745  22819764.0164                   22819763.2274
  -4077222.80147  -3147781.35545  22571347.4304                   22571347.0084
 -24911211.68748 -19396353.64546  21175322.6954                   21175320.8444
 -28660290.34047 -22298244.92245  22259923.6954                   22259920.1294
 -15781630.92248 -11406709.19946  22006385.4534                   22006386.5634
   7960187.90647   6480830.52743  24350174.0164                   24350174.7974
 11  8 27  2 38  0.0000000  0  9G26G21G29G12G15G05G02G25G18
 -11240941.88347  -8733954.64545  21831984.7034                   21831984.4534
   4940543.28946   3870702.57843  24500928.5314                   24500928.4844
 -16058593.28948 -12476967.13746  21068895.0394                   21068893.7154
 -18084735.43047 -14059045.66045  22830871.3364                   22830870.7034
  -4200835.66047  -3244102.95745  22547824.7584                   22547824.2234
 -24875167.32448 -19368267.12946  21182181.9144                   21182179.9614
 -28646543.65247 -22287533.22345  22262539.2664                   22262536.1914
 -15762058.54748 -11391457.98046  22010110.2814                   22010110.6524
   7841642.49646   6388457.69143  24327615.5474                   24327616.2774
 11  8 27  2 38 30.0000000  0  9G26G21G29G12G15G05G02G25G18
  -9765642.37947  -7584370.57445  22112724.8204                   22112724.1414
   6427909.45747   5029689.31643  24783964.9844                   24783964.5474
 -14579409.02048 -11324355.97346  21350374.3524                   21350372.8954
 -16450802.65247 -12785851.30145  23141798.7814                   23141797.8554
  -2748848.08647  -2112683.98045  22824128.6414                   22824128.2544
 -23263409.06648 -18112351.59846  21488889.1414                   21488887.0554
 -27057269.30147 -21049137.62945  22564968.5944                   22564965.1644
 -14166652.34048 -10148284.30546  22313705.8524                   22313706.7304
   9298709.11746   7523834.48843  24604885.9304                   24604886.6024
 11  8 27  2 39  0.0000000  0  9G26G21G29G12G15G05G02G25G18
  -9865328.88747  -7662048.32445  22093755.5164                   22093754.7464
   6339823.68846   4961051.16843  24767202.9224                   24767202.3674
 -14675353.97748 -11399118.23846  21332116.7734                   21332115.3284
 -16392155.77347 -12740152.43745  23152959.0084                   23152957.7544
  -2872113.76647  -2208735.07445  22800672.4774                   22800670.9304
 -23226785.01248 -18083813.35946  21495858.4144                   21495856.3244
 -27043314.01647 -21038263.36345  22567623.8364                   22567621.8954
 -14146261.50848 -10132395.34446  22317586.1644                   22317587.3404
   9180533.01646   7431749.39843  24582396.9774                   24582398.5864
 11  8 27  2 39 30.0000000  0  9G26G21G29G12G15G05G02G25G18
  -9964580.61748  -7739387.27745  22074868.2894                   22074867.7464
   6251702.53546   4892385.46543  24750433.8204                   24750433.3054
 -14771008.85248 -11473654.46146  21313914.2194                   21313912.4654
 -16333385.64847 -12694357.53545  23164142.3134                   23164141.5664
  -2995211.31647  -2304655.17245  22777247.1254                   22777246.2504
 -23189884.70348 -18055059.86346  21502880.2734                   21502877.7194
 -27029264.22347 -21027315.46545  22570297.6644                   22570294.5594
 -14125475.28548 -10116198.27746  22321541.2814                   22321542.6604
   9062533.50846   7339801.94543  24559942.5234                   24559944.0944
 11  8 27  2 40  0.0000000  0  9G26G21G29G12G15G05G02G25G18
 -10063381.26247  -7816374.72745  22056066.9454                   22056065.9304
   6163558.44146   4823701.86743  24733660.2344                   24733659.8054
 -14866357.92648 -11547952.39546  21295769.8914                   21295768.0474
 -16274482.03547 -12648458.62545  23175351.4384                   23175350.6024
  -3118124.10547  -2400431.28945  22753857.2034                   22753856.5004
 -23152697.45348 -18026082.77746  21509957.0004                   21509954.7114
 -27015106.41848 -21016283.40645  22572992.6024                   22572988.6684
 -14104283.33648 -10099685.05546  22325574.2344                   22325576.0514
   8944724.80546   7248003.12943  24537524.4774                   24537525.1214
 11  8 27  2 40 30.0000000  0  9G26G21G29G12G15G05G02G25G18
 -10161732.85947  -7893012.28545  22037351.3204                   22037350.5044
   6075385.68447   4754995.92243  24716881.5234                   24716881.2664
 -14961404.17647 -11622014.37146  21277683.1564                   21277681.4844
 -16215453.63747 -12602462.49645  23186584.6334                   23186583.4774
  -3240854.70347  -2496065.46145  22730502.8984                   22730501.3404
 -23115231.39548 -17996888.44546  21517086.3674                   21517083.9804
 -27000845.39847 -21005170.93445  22575705.5704                   22575701.7424
 -14082693.69148 -10082861.94146  22329682.3134                   22329683.8404
   8827102.05546   7156349.26242  24515141.3674                   24515141.6804
 11  8 27  2 41  0.0000000  0  9G26G21G29G12G15G05G02G25G18
 -10259623.82848  -7969290.90645  22018723.1884                   22018722.3284
   5987191.86347   4686273.58243  24700098.3834                   24700098.4224
 -15056137.15247 -11695832.23046  21259655.6334                   21259654.0274
 -16156295.64847 -12556365.36745  23197841.3284                   23197841.0904
  -3363391.84847  -2591548.87945  22707184.5784                   22707183.0634
 -23077480.91848 -17967472.47746  21524270.0234                   21524268.2424
 -26986472.34048 -20993971.15245  22578440.5784                   22578438.1564
 -14060700.77048 -10065724.58645  22333867.2894                   22333868.8244
   8709675.38746   7064848.10542  24492795.6724                   24492796.2114
 11  8 27  2 41 30.0000000  0  9G26G21G29G12G15G05G02G25G18
 -10357055.50847  -8045211.64845  22000182.4454                   22000181.3714
   5898971.87546   4617530.86343  24683310.7664                   24683310.3444
 -15150559.20347 -11769407.80946  21241687.9224                   21241686.6454
 -16097015.69547 -12510173.21145  23209121.8984                   23209121.2734
  -3485737.08647  -2686882.75045  22683903.1024                   22683902.0124
 -23039452.85548 -17937840.21146  21531506.4694                   21531504.5514
 -26971991.80148 -20982687.62145  22581196.4694                   22581193.2034
 -14038312.07448 -10048278.85245  22338127.5164                   22338128.7734
   8592440.68846   6973496.58242  24470486.3204                   24470487.9414
 11  8 27  2 42  0.0000000  0  9G26G21G29G12G15G05G02G25G18
 -10454021.52048  -8120769.52745  21981730.6094                   21981728.9734
   5810728.35546   4548769.80943  24666518.2584                   24666518.2814
 -15244664.39848 -11842736.48846  21223780.2424                   21223778.3874
 -16037613.37947 -12463885.70344  23220426.0164                   23220425.1054
  -3607884.09047  -2782062.16445  22660659.0634                   22660657.9734
 -23001146.55548 -17907991.12946  21538795.9694                   21538793.5434
 -26957399.89547 -20971317.32445  22583973.5234                   22583969.8554
 -14015527.06648 -10030524.28545  22342463.8284                   22342464.8014
   8475402.77746   6882298.44542  24448215.2424                   24448216.5004
 11  8 27  2 42 30.0000000  0  9G26G21G29G12G15G05G02G25G18
 -10550523.89148  -8195966.13345  21963366.3594                   21963365.0904
   5722455.64147   4479986.01243  24649721.0164                   24649720.3674
 -15338456.21548 -11915820.99246  21205932.3834                   21205930.4924
 -15978096.82447 -12417509.18045  23231751.6804                   23231750.4924
  -3729835.03947  -2877088.79345  22637452.4304                   22637451.4614
 -22962569.86748 -17877931.37946  21546137.0314                   21546134.7704
 -26942701.69547 -20959864.18445  22586769.9064                   22586767.0274
 -13992353.76248 -10012467.16445  22346873.6254                   22346874.5554
   8358557.17646   6791250.09442  24425979.4144                   24425980.5434
 11  8 27  2 43  0.0000000  0  9G26G21G29G12G15G05G02G25G18
 -10646561.34447  -8270800.46145  21945091.3284                   21945089.9104
   5634151.06347   4411177.36343  24632916.5164                   24632915.7464
 -15431934.02347 -11988660.80546  21188144.3524                   21188142.3094
 -15918471.98447 -12371048.25845  23243097.5554                   23243096.6564
  -3851589.00047  -2971961.93045  22614283.4304                   22614282.8484
 -22923727.29348 -17847664.41446  21553528.6954                   21553526.3404
 -26927898.73848 -20948329.40645  22589587.1254                   22589584.1414
 -13968796.96148  -9994111.20345  22351356.2194                   22351357.5634
   8241903.01646   6700350.93043  24403780.4454                   24403781.4964
 11  8 27  2 43 30.0000000  0  9G26G21G29G12G15G05G02G25G18
 -10742119.32047  -8345261.16445  21926907.3444                   21926905.7274
   5545825.47746   4342352.35943  24616109.0474                   24616108.1994
 -15525084.44147 -12061245.50846  21170417.9454                   21170416.7114
 -15858730.39847 -12324496.40245  23254466.6954                   23254465.3714
  -3973131.80947  -3066670.53945  22591154.6804                   22591153.7854
 -22884610.06648 -17817183.43746  21560972.3914                   21560970.4884
 -26912979.65647 -20936704.14845  22592425.6644                   22592422.8404
 -13944848.22348  -9975449.85945  22355913.4924                   22355914.3674
   8125452.53547   6609610.50443  24381621.3054                   24381621.0704
 11  8 27  2 44  0.0000000  0  9G26G21G29G12G15G05G02G25G18
 -10837199.39147  -8419349.48045  21908814.2814                   21908812.4574
   5457473.67646   4273506.91843  24599296.2274                   24599295.4024
 -15617909.64148 -12133576.78146  21152753.7424                   21152752.0314
 -15798879.26247 -12277859.18445  23265855.8754                   23265854.7304
  -4094464.97347  -3161215.78145  22568065.6804                   22568064.7854
 -22845225.58648 -17786494.21946  21568466.9694                   21568464.5164
 -26897948.51248 -20924991.57445  22595286.8674                   22595283.0514
 -13920515.09847  -9956488.97345  22360544.2274                   22360544.3404
   8009201.95347   6519025.81643  24359500.2734                   24359499.8164
 11  8 27  2 44 30.0000000  0  9G26G21G29G12G15G05G02G25G18
 -10931813.44547  -8493074.67245  21890809.7274                   21890808.3594
   5369080.11346   4204628.94143  24582474.7114                   24582474.7274
 -15710422.39548 -12205664.61346  21135149.3984                   21135147.7664
 -15738937.36747 -12231151.25045  23277262.5864                   23277261.0394
  -4215599.93747  -3255606.59445  22545014.9614                   22545013.1844
 -22805591.14848 -17755610.21946  21576008.5944                   21576006.8014
 -26882819.68747 -20913202.87945  22598165.3834                   22598161.6174
 -13895815.19547  -9937242.29345  22365244.3284                   22365245.2384
   7893137.75447   6428586.34443  24337412.8834                   24337413.3634
 11  8 27  2 45  0.0000000  0  9G26G21G29G12G15G05G02G25G18
 -11025948.11747  -8566426.32445  21872896.3444                   21872895.4884
   5280654.53546   4135726.01243  24565648.1564                   24565647.4694
 -15802610.46948 -12277499.44146  21117606.6094                   21117605.0474
 -15678897.58647 -12184367.00845  23288687.4844                   23288686.2234
  -4336524.16847  -3349833.18045  22522004.0784                   22522002.3204
 -22765699.07048 -17724525.47346  21583600.0084                   21583598.4184
 -26867582.88747 -20901330.04345  22601064.1724                   22601061.5704
 -13870741.32847  -9917704.21545  22370015.5004                   22370016.6094
   7777271.05147   6338300.79343  24315363.4454                   24315364.5084
 11  8 27  2 45 30.0000000  0  9G26G21G29G12G15G05G02G25G18
 -11119601.19947  -8639402.70745  21855074.2584                   21855073.7584
   5192195.09446   4066796.70343  24548814.7114                   24548814.6484
 -15894472.02748 -12349079.84446  21100125.8364                   21100123.7704
 -15618763.94547 -12137509.62545  23300130.1564                   23300129.6094
  -4457235.40647  -3443893.81245  22499032.7344                   22499031.5664
 -22725553.32848 -17693243.06246  21591239.4694                   21591237.4614
 -26852238.66847 -20889373.49644  22603984.5634                   22603981.1334
 -13845297.37148  -9897877.75045  22374857.8914                   22374858.8444
   7661601.43047   6248168.79343  24293352.7034                   24293352.4924
 11  8 27  2 46  0.0000000  0  9G26G21G29G12G15G05G02G25G18
 -11212767.54747  -8711999.81245  21837345.7344                   21837345.2074
   5103703.59046   3997842.39143  24531974.5234                   24531974.6454
 -15986003.07047 -12420402.69546  21082708.4924                   21082706.7974
 -15558537.42247 -12090579.88745  23311591.5554                   23311590.3164
  -4577728.57447  -3537784.53145  22476103.7894                   22476102.0434
 -22685154.28948 -17661763.27746  21598927.0394                   21598925.0594
 -26836784.45747 -20877331.24244  22606925.1564                   22606921.7304
 -13819484.16048  -9877763.56245  22379769.3524                   22379770.9884
   7546132.12146   6158192.88343  24271378.9454                   24271379.0274
 11  8 27  2 46 30.0000000  0  9G26G21G29G12G15G05G02G25G18
 -11305442.16447  -8784213.75045  21819710.1954                   21819709.1684
   5015181.62146   3928864.37143  24515130.0314                   24515129.5434
 -16077199.28148 -12491464.63346  21065353.6724                   21065352.3444
 -15498218.94147 -12043578.50445  23323069.6174                   23323068.3554
  -4697998.52347  -3631501.31645  22453216.6414                   22453215.0594
 -22644501.78148 -17630085.98446  21606662.8754                   21606661.1024
 -26821218.30547 -20865201.78145  22609887.9774                   22609883.7624
 -13793302.51247  -9857362.27045  22384751.5864                   22384752.5784
   7430866.15646   6068375.43443  24249444.6484                   24249444.5204
 11  8 27  2 47  0.0000000  0  9G26G21G29G12G15G05G02G25G18
 -11397617.94547  -8856038.97745  21802169.7344                   21802168.6254
   4926632.41046   3859865.09043  24498279.6414                   24498278.9384
 -16168054.21948 -12562260.64146  21048064.8754                   21048063.1054
 -15437808.34447 -11996505.34845  23334565.3834                   23334564.7344
  -4818038.46947  -3725038.86345  22430374.1024                   22430372.3244
 -22603594.92648 -17598210.50046  21614447.1564                   21614445.4534
 -26805535.58647 -20852981.44545  22612871.8054                   22612867.9844
 -13766751.34447  -9836673.05145  22389804.1954                   22389805.2074
   7315808.58646   5978720.35943  24227549.6564                   24227549.8834
 11  8 27  2 47 30.0000000  0  9G26G21G29G12G15G05G02G25G18
 -11489295.86747  -8927476.26245  21784724.1094                   21784722.6524
   4838051.60246   3790841.19543  24481423.1254                   24481422.1414
 -16258569.80548 -12632792.21546  21030840.4614                   21030838.6524
 -15377312.44147 -11949365.71545  23346077.2194                   23346076.3914
  -4937849.34447  -3818397.91845  22407574.9384                   22407573.7814
 -22562440.52348 -17566142.10946  21622278.9614                   21622276.5634
 -26789739.89547 -20840673.10245  22615877.5784                   22615873.9734
 -13739837.64547  -9815701.34845  22394925.8834                   22394927.0394
   7200956.15646   5889225.19143  24205693.9144                   24205693.8444
 11  8 27  2 48  0.0000000  0  9G26G21G29G12G15G05G02G25G18
 -11580475.81247  -8998525.50045  21767373.3204                   21767371.5984
   4749435.65246   3721789.88743  24464560.0944                   24464559.3164
 -16348746.70748 -12703059.88746  21013679.9844                   21013678.1724
 -15316736.98047 -11902164.08244  23357604.5314                   23357603.2774
  -5057431.18447  -3911578.49645  22384818.7974                   22384817.3594
 -22521043.73048 -17533884.86346  21630156.0944                   21630154.0554
 -26773833.97747 -20828278.86745  22618904.0704                   22618900.5354
 -13712567.32047  -9794451.74645  22400115.5164                   22400116.0234
   7086306.97746   5799888.35243  24183876.8204                   24183877.0634
 11  8 27  2 48 30.0000000  0  9G26G21G29G12G15G05G02G25G18
 -11671157.94947  -9069186.85945  21750116.7814                   21750115.8054
   4660780.96546   3652708.41443  24447689.4454                   24447688.8244
 -16438585.78148 -12773064.32046  20996584.0944                   20996582.5164
 -15256088.21547 -11854905.30944  23369145.9844                   23369143.8914
  -5176783.77347  -4004580.46145  22362107.0394                   22362105.2194
 -22479410.18748 -17501443.11746  21638078.7504                   21638076.9734
 -26757820.60947 -20815800.89845  22621951.7664                   22621948.8134
 -13684946.39847  -9772928.94945  22405371.4144                   22405372.0664
   6971858.69946   5710708.05143  24162098.1884                   24162098.2384
 11  8 27  2 49  0.0000000  0  9G26G21G29G12G15G05G02G25G18
 -11761336.14147  -9139455.52345  21732956.0634                   21732955.5984
   4572090.25046   3583598.89843  24430812.2424                   24430810.8164
 -16528081.77348 -12842801.40246  20979553.4224                   20979551.8164
 -15195366.57847 -11807589.77344  23380700.8984                   23380699.1844
  -5295901.10247  -4097399.09845  22339439.3284                   22339438.4574
 -22437539.49248 -17468816.59046  21646046.5234                   21646044.5704
 -26741696.14148 -20803236.35945  22625020.0944                   22625016.7544
 -13656974.69547  -9751132.82845  22410693.8674                   22410695.6884
   6857615.38346   5621687.47743  24140357.6644                   24140357.6024
 11  8 27  2 49 30.0000000  0  9G26G21G29G12G15G05G02G25G18
 -11851002.20747  -9209325.14145  21715893.3444                   21715892.1094
   4483368.09846   3514464.83243  24413928.5784                   24413928.2504
 -16617226.98448 -12912265.14846  20962590.0784                   20962588.3444
 -15134569.76647 -11760215.66844  23392269.0314                   23392268.1644
  -5414775.14547  -4190028.16045  22316818.6804                   22316817.1994
 -22395428.69948 -17436002.97346  21654060.0394                   21654057.8984
 -26725454.97347 -20790580.89845  22628110.9384                   22628107.1564
 -13628649.93747  -9729061.58645  22416083.6254                   22416085.1644
   6743583.34046   5532831.49243  24118658.6094                   24118658.1414
 11  8 27  2 50  0.0000000  0  9G26G21G29G12G15G05G02G25G18
 -11940148.79747  -9278789.95745  21698929.2584                   21698928.0864
   4394618.21146   3445309.17243  24397040.2974                   24397039.1804
 -16706015.11348 -12981450.65646  20945694.1094                   20945692.3284
 -15073696.51647 -11712782.01244  23403853.6954                   23403853.1414
  -5533398.39147  -4282461.80945  22294245.1254                   22294243.9774
 -22353076.45748 -17403001.20346  21662119.4774                   21662117.2584
 -26709092.64147 -20777831.03545  22631224.6644                   22631221.2894
 -13599970.91447  -9706714.29345  22421541.5944                   22421542.3914
   6629767.43846   5444143.97343  24096999.1484                   24096999.2934
 11  8 27  2 50 30.0000000  0  9G26G21G29G12G15G05G02G25G18
 -12028776.32847  -9347850.32045  21682063.8444                   21682062.4614
   4305836.90247   3376129.03544  24380145.8914                   24380144.3834
 -16794446.81648 -13050358.42646  20928866.0234                   20928864.2384
 -15012753.19547 -11665293.73444  23415450.5784                   23415450.4924
  -5651771.37947  -4374700.45345  22271719.2814                   22271718.5274
 -22310487.84048 -17369815.25046  21670223.6174                   21670221.7854
 -26692611.98847 -20764988.94145  22634360.5164                   22634357.2734
 -13570943.64547  -9684095.64145  22427065.2114                   22427066.4384
   6516165.52347   5355623.16643  24075381.6724                   24075381.0864
 11  8 27  2 51  0.0000000  0  9G26G21G29G12G15G05G02G25G18
 -12116888.73847  -9416509.30945  21665296.7814                   21665295.4384
   4217016.57046   3306918.46544  24363244.0474                   24363242.5824
 -16882527.30148 -13118992.53146  20912105.2664                   20912102.7854
 -14951750.40647 -11617759.11344  23427059.2274                   23427058.0904
  -5769898.10247  -4466747.19145  22249240.6024                   22249239.5984
 -22267673.07048 -17336453.08246  21678370.9304                   21678368.9534
 -26676019.41047 -20752059.68045  22637518.4384                   22637514.6684
 -13541578.43047  -9661213.65245  22432653.0164                   22432654.1484
   6402771.53947   5267264.35243  24053803.7274                   24053802.3754
 11  8 27  2 51 30.0000000  0  9G26G21G29G12G15G05G02G25G18
 -12204471.49247  -9484755.55545  21648630.3674                   21648628.2194
   4128168.89146   3237686.60543  24346336.5314                   24346335.6134
 -16970242.28148 -13187341.82046  20895413.2114                   20895411.3364
 -14890678.43747 -11570170.61344  23438681.0944                   23438679.5474
  -5887763.47347  -4558590.27745  22226811.8444                   22226810.5084
 -22224622.35548 -17302907.04346  21686563.1414                   21686560.9574
 -26659302.95747 -20739033.87945  22640698.7814                   22640696.2774
 -13511866.15247  -9638061.23445  22438307.6414                   22438308.6134
   6289598.30947   5179077.55943  24032268.1094                   24032266.2584
 11  8 27  2 52  0.0000000  0  9G26G21G29G12G15G05G02G25G18
 -12291529.33647  -9552592.78945  21632063.8284                   21632062.3954
   4039285.40646   3168426.87543  24329422.3054                   24329421.4064
 -17057597.15248 -13255410.51646  20878790.1644                   20878788.3164
 -14829548.82847 -11522537.18044  23450313.0164                   23450311.8404
  -6005372.19547  -4650233.39545  22204431.2814                   22204430.3714
 -22181346.32448 -17269185.44546  21694798.7274                   21694796.6644
 -26642469.66447 -20725917.02345  22643901.8444                   22643899.6914
 -13481817.69547  -9614646.84045  22444025.6484                   22444026.9494
   6176638.64846   5091057.15643  24010772.3594                   24010771.1804
 11  8 27  2 52 30.0000000  0  9G26G21G29G12G15G05G02G25G18
 -12378059.80148  -9620019.07445  21615597.6484                   21615595.6564
   3950365.17646   3099138.45743  24312501.5394                   24312500.3324
 -17144590.25448 -13323197.29746  20862235.7814                   20862233.7464
 -14768364.94546 -11474861.42644  23461955.8754                   23461954.7304
  -6122721.93047  -4741674.67245  22182099.9614                   22182099.0984
 -22137847.67648 -17235290.38746  21703075.8754                   21703074.2624
 -26625519.64147 -20712709.19545  22647127.3054                   22647124.7624
 -13451436.46147  -9590973.14845  22449806.7814                   22449808.2304
   6063893.11747   5003203.62543  23989317.1644                   23989316.7664
 11  8 27  2 53  0.0000000  0  9G26G21G29G12G15G05G02G25G18
 -12464065.33648  -9687036.31645  21599231.2664                   21599229.6684
   3861402.72746   3029817.14543  24295571.8204                   24295571.2464
 -17231224.65248 -13390704.57846  20845750.1884                   20845747.3874
 -14707135.13747 -11427149.91044  23473607.8834                   23473607.2774
  -6239815.14547  -4832916.06645  22159818.3054                   22159817.3284
 -22094134.41848 -17201228.08246  21711394.4924                   21711392.2774
 -26608458.13347 -20699414.50445  22650374.2814                   22650371.0354
 -13420730.92647  -9567046.75445  22455649.6484                   22455650.7194
   5951357.52047   4915513.69943  23967902.0554                   23967901.4024
 11  8 27  2 53 30.0000000  0  9G26G21G29G12G15G05G02G25G18
 -12549536.12948  -9753636.89545  21582966.4144                   21582965.0354
   3772404.85546   2960468.25043  24278636.4694                   24278634.7664
 -17317491.24248 -13457925.27046  20829333.7504                   20829331.9654
 -14645855.27347 -11379399.41044  23485269.3834                   23485268.7854
  -6356641.33647  -4923949.39845  22137587.1174                   22137585.5434
 -22050201.69148 -17166994.78146  21719754.5474                   21719752.0234
 -26591277.37547 -20686026.92645  22653644.0944                   22653640.3204
 -13389696.72747  -9542864.27045  22461555.5784                   22461556.5004
   5839039.33647   4827993.19143  23946528.5084                   23946527.3554
 11  8 27  2 54  0.0000000  0  9G26G21G29G12G15G05G02G25G18
 -12634476.60948  -9819824.23845  21566803.0004                   21566801.9414
   3683363.10546   2891085.15643  24261692.6174                   24261691.5204
 -17403394.94548 -13524863.17646  20812986.5864                   20812985.2074
 -14584536.15647 -11331618.31244  23496937.8914                   23496937.0514
  -6473205.25847  -5014778.37945  22115405.3204                   22115404.0634
 -22006059.68048 -17132598.39846  21728154.1884                   21728152.8754
 -26573984.64547 -20672552.07045  22656934.5634                   22656931.2584
 -13358344.64547  -9518434.07045  22467521.1724                   22467522.7814
   5726931.82046   4740636.86343  23925194.5474                   23925194.5314
 11  8 27  2 54 30.0000000  0  9G26G21G29G12G15G05G02G25G18
 -12718874.29747  -9885588.63345  21550742.3524                   21550740.7624
   3594287.07446   2821675.33243  24244741.8834                   24244740.6254
 -17488923.74648 -13591508.94946  20796711.0634                   20796709.1844
 -14523170.69147 -11283801.12944  23508615.8134                   23508614.4064
  -6589494.18047  -5105393.07045  22093275.9774                   22093274.2734
 -21961700.60248 -17098032.87946  21736595.5474                   21736594.0274
 -26556569.64547 -20658981.93745  22660248.5234                   22660245.4774
 -13326667.82047  -9493750.83645  22473548.7034                   22473550.7114
   5615046.02046   4653453.24243  23903903.7664                   23903903.0314
 11  8 27  2 55  0.0000000  0  9G26G21G29G12G15G05G02G25G18
 -12802727.23848  -9950928.52745  21534785.7734                   21534784.5554
   3505175.61346   2752237.93843  24227784.1484                   24227782.9024
 -17574076.67648 -13657861.84446  20780506.8054                   20780504.8914
 -14461763.34447 -11235951.30144  23520300.0234                   23520299.1334
  -6705505.98447  -5195791.83245  22071199.9924                   22071198.3874
 -21917128.60548 -17063301.44546  21745077.3984                   21745075.3524
 -26539032.96947 -20645316.96545  22663585.6024                   22663582.8054
 -13294670.33647  -9468817.74245  22479638.2974                   22479639.6484
   5503381.79346   4566442.29743  23882654.8444                   23882654.2624
 11  8 27  2 55 30.0000000  0  9G26G21G29G12G15G05G02G25G18
 -12886028.03947 -10015838.20345  21518933.7584                   21518932.5704
   3416032.54746   2682775.87943  24210821.1644                   24210819.8164
 -17658846.35248 -13723916.10946  20764375.8594                   20764374.0204
 -14400311.91047 -11188067.09844  23531994.6414                   23531993.8444
  -6821232.77747  -5285968.50845  22049178.3364                   22049176.1254
 -21872341.03148 -17028402.02746  21753600.5394                   21753598.1604
 -26521369.36347 -20631553.09845  22666946.9924                   22666943.2814
 -13262350.30947  -9443633.30945  22485788.7424                   22485789.5354
   5391944.45746   4479608.15643  23861449.3204                   23861448.2854
 11  8 27  2 56  0.0000000  0  9G26G21G29G12G15G05G02G25G18
 -12968784.02747 -10080323.34045  21503186.1884                   21503184.6094
   3326847.75846   2613281.33243  24193849.5554                   24193848.5944
 -17743240.96948 -13789678.10946  20748316.1414                   20748313.9184
 -14338829.63347 -11140158.87944  23543694.5164                   23543692.9734
  -6936681.89847  -5375928.80945  22027208.4774                   22027207.4774
 -21827350.51648 -16993344.48046  21762161.3524                   21762159.6884
 -26503588.48847 -20617697.85945  22670330.4774                   22670326.9534
 -13229721.00047  -9418207.86745  22491997.4694                   22491998.6094
   5280724.89846   4392943.71144  23840283.7344                   23840284.0354
 11  8 27  2 56 30.0000000  0  9G26G21G29G12G15G05G02G25G18
 -13050990.31648 -10144380.14145  21487542.6484                   21487541.1054
   3237622.64146   2543755.35243  24176870.2424                   24176869.3754
 -17827255.87148 -13855144.23046  20732328.7734                   20732326.5084
 -14277317.36347 -11092227.25444  23555400.0784                   23555398.5664
  -7051847.99647  -5465668.56645  22005293.0474                   22005292.1644
 -21782157.19148 -16958128.90246  21770761.5704                   21770760.0044
 -26485687.76247 -20603749.23445  22673736.8364                   22673733.2114
 -13196783.23047  -9392542.07445  22498265.6954                   22498266.7584
   5169725.97746   4306451.20343  23819161.7114                   23819161.2304
 11  8 27  2 57  0.0000000  0  9G26G21G29G12G15G05G02G25G18
 -13132650.45748 -10208011.37545  21472003.2584                   21472001.9694
   3148350.48446   2474192.76243  24159881.3754                   24159881.6294
 -17910895.48448 -13920317.91846  20716412.3984                   20716410.9924
 -14215784.67247 -11044279.71144  23567109.0704                   23567108.4964
  -7166734.85947  -5555190.75445  21983430.9384                   21983429.8284
 -21736770.23448 -16922762.44146  21779398.2114                   21779396.4024
 -26467673.50447 -20589712.14545  22677165.0164                   22677161.5944
 -13163546.64147  -9366643.44145  22504589.9064                   22504591.3204
   5058941.80646   4220126.02343  23798079.4144                   23798079.4964
 11  8 27  2 57 30.0000000  0  9G26G21G29G12G15G05G02G25G18
 -13213751.32048 -10271206.80546  21456570.2424                   21456569.0904
   3059041.67646   2404601.52543  24142887.8204                   24142886.2854
 -17994146.99248 -13985189.18446  20700569.9534                   20700567.9224
 -14154224.12946 -10996310.49644  23578823.2894                   23578822.8284
  -7281328.57847  -5644484.50445  21961623.9694                   21961623.0984
 -21691180.89148 -16887238.27046  21788073.4064                   21788071.6174
 -26449534.12547 -20575577.55945  22680616.6024                   22680614.0824
 -13130003.43447  -9340505.87545  22510973.3914                   22510974.5744
   4948384.19146   4133977.39544  23777041.7034                   23777041.0784
 11  8 27  2 58  0.0000000  0  9G26G21G29G12G15G05G02G25G18
 -13294297.34448 -10333969.89845  21441242.8984                   21441241.9964
   2969688.89846   2334976.09443  24125884.2734                   24125882.4024
 -18077015.65248 -14049762.12546  20684800.8364                   20684798.8914
 -14092645.82047 -10948327.48044  23590541.8674                   23590540.6254
  -7395633.54347  -5733553.25845  21939872.4614                   21939871.7034
 -21645399.34848 -16851564.34046  21796785.7504                   21796783.9184
 -26431276.88347 -20561351.13745  22684091.0474                   22684087.4414
 -13096164.06647  -9314137.53945  22517412.9454                   22517414.2384
   4838046.74247   4048000.28543  23756044.3594                   23756043.6054
 11  8 27  2 58 30.0000000  0  9G26G21G29G12G15G05G02G25G18
 -13374275.98847 -10396290.87945  21426023.0164                   21426021.9774
   2880301.30146   2265323.49643  24108873.8754                   24108872.7234
 -18159489.36348 -14114027.32046  20669106.5084                   20669104.6294
 -14031042.77347 -10900325.14844  23602264.2894                   23602263.2814
  -7509636.65247  -5822386.80545  21918178.6024                   21918177.4224
 -21599417.75848 -16815734.53146  21805535.5234                   21805534.0514
 -26412891.05147 -20547024.51244  22687589.6884                   22687586.0984
 -13062021.61347  -9287533.04345  22523909.8444                   22523911.2464
   4727940.17246   3962203.07843  23735092.0084                   23735090.9224
 11  8 27  2 59  0.0000000  0  9G26G21G29G12G15G05G02G25G18
 -13453692.72748 -10458174.00845  21410910.7274                   21410909.0824
   2790870.54346   2195637.28543  24091855.2504                   24091854.1844
 -18241573.47748 -14177988.93046  20653486.2194                   20653484.6294
 -13969425.84047 -10852312.02744  23613989.6484                   23613988.7074
  -7623343.05947  -5910989.13745  21896540.7274                   21896539.9454
 -21553246.68048 -16779757.06246  21814321.7974                   21814320.1024
 -26394384.60247 -20532603.90245  22691110.9064                   22691108.0634
 -13027587.19947  -9260701.02045  22530462.3984                   22530463.8554
   4618057.02046   3876579.95344  23714182.3284                   23714181.2624
 11  8 27  2 59 30.0000000  0  9G26G21G29G12G15G05G02G25G18
 -13532544.62948 -10519617.00445  21395905.7194                   21395904.7504
   2701396.25046   2125917.16043  24074829.3054                   24074828.2074
 -18323266.19148 -14241645.55946  20637940.5784                   20637938.7274
 -13907798.28147 -10804290.59044  23625717.6884                   23625716.2114
  -7736749.89147  -5999358.04345  21874960.6484                   21874959.0594
 -21506888.75848 -16743634.00846  21823142.9064                   21823141.6954
 -26375756.99247 -20518088.87945  22694655.9064                   22694652.7584
 -12992864.02047  -9233643.99645  22537070.5554                   22537071.0634
   4508397.96547   3791131.44143  23693314.4774                   23693313.7114
 11  8 27  3  0  0.0000000  0  9G26G21G29G12G15G05G02G25G18
 -13610824.13348 -10580613.98045  21381010.0704                   21381008.3164
   2611883.49646   2056167.05943  24057795.0234                   24057794.4104
 -18404559.82848 -14304991.19546  20622471.1174                   20622469.2734
 -13846157.56647 -10756258.87544  23637447.2734                   23637446.0434
  -7849848.94147  -6087487.13345  21853438.6174                   21853436.5594
 -21460340.90648 -16707362.94946  21832000.9384                   21831999.3984
 -26357002.53147 -20503475.01244  22698224.8594                   22698221.3794
 -12957849.78947  -9206360.19545  22543733.3134                   22543733.8404
   4398969.26046   3705862.42444  23672490.6724                   23672490.6024
 11  8 27  3  0 30.0000000  0  9G26G21G29G12G15G05G02G25G18
 -13688532.87948 -10641166.21145  21366221.9694                   21366220.8324
   2522327.57446   1986383.27043  24040753.8204                   24040752.7584
 -18485456.56648 -14368027.58646  20607076.6414                   20607074.8204
 -13784511.03147 -10708222.65644  23649178.3594                   23649177.2504
  -7962641.69147  -6175377.53545  21831974.9534                   21831972.7504
 -21413609.59848 -16670948.93746  21840893.8204                   21840891.9574
 -26338125.09447 -20488765.28545  22701816.9304                   22701814.2734
 -12922551.92247  -9178855.35545  22550450.1804                   22550450.9844
   4289767.12946   3620769.98043  23651710.5554                   23651709.3594
 11  8 27  3  1  0.0000000  0  9G26G21G29G12G15G05G02G25G18
 -13765652.82448 -10701259.63345  21351546.8134                   21351545.2384
   2432743.35546   1916577.48843  24023705.7504                   24023704.7034
 -18565938.80148 -14430740.97347  20591761.6804                   20591759.8754
 -13722846.28546 -10660172.21143  23660912.2814                   23660911.5474
  -8075109.45747  -6263014.70745  21810573.3594                   21810571.0474
 -21366682.08248 -16634382.03946  21849824.0164                   21849822.1884
 -26319108.69147 -20473947.31245  22705435.7274                   22705432.5664
 -12886958.02747  -9151119.82845  22557223.3364                   22557225.1414
   4180807.87546   3535866.73443  23630976.0704                   23630974.7814
 11  8 27  3  1 30.0000000  0  9G26G21G29G12G15G05G02G25G18
 -13842198.97747 -10760905.94946  21336980.3054                   21336979.0274
   2343113.45346   1846736.06643  24006649.4224                   24006648.8164
 -18646022.07448 -14493143.48846  20576522.2664                   20576520.4844
 -13661183.39146 -10612123.25043  23672646.2424                   23672645.0514
  -8187266.80947  -6350410.00445  21789230.1174                   21789228.4344
 -21319578.12548 -16597677.65246  21858787.7424                   21858785.5704
 -26299970.37147 -20459034.34045  22709077.3364                   22709074.3834
 -12851088.75047  -9123169.74245  22564049.1334                   22564050.2194
   4072074.33247   3451139.39843  23610284.8134                   23610283.2974
 11  8 27  3  2  0.0000000  0  9G26G21G29G12G15G05G02G25G18
 -13918164.69548 -10820099.97745  21322524.8524                   21322522.8954
   2253441.15647   1776861.60944  23989586.3754                   23989585.4104
 -18725699.95748 -14555230.11746  20561359.7814                   20561358.4804
 -13599521.60247 -10564075.15244  23684380.4144                   23684379.2274
  -8299106.76248  -6437557.97746  21767947.3914                   21767945.5084
 -21272295.94548 -16560834.39546  21867784.8364                   21867782.7384
 -26280705.78547 -20444022.94544  22712743.6334                   22712740.7664
 -12814943.11347  -9095004.30945  22570927.1884                   22570928.4104
   3963571.96147   3366592.19543  23589637.8284                   23589636.1644
 11  8 27  3  2 30.0000000  0  9G26G21G29G12G15G05G02G25G18
 -13993554.50048 -10878845.24245  21308178.0164                   21308176.6684
   2163719.44547   1706948.66844  23972512.8754                   23972511.3984
 -18804977.39148 -14617004.70746  20546273.9534                   20546271.8914
 -13537870.82847 -10516035.61744  23696112.8364                   23696110.7034
  -8410633.50847  -6524461.89145  21746724.3674                   21746722.7344
 -21224844.88348 -16523859.53946  21876814.8204                   21876812.8204
 -26261321.13747 -20428918.00445  22716432.2114                   22716429.5274
 -12778531.14147  -9066631.34845  22577856.4304                   22577857.6844
   3855294.10246   3282219.92243  23569032.5864                   23569031.1524
 11  8 27  3  3  0.0000000  0  9G26G21G29G12G15G05G02G25G18
 -14068360.16847 -10937135.33645  21293943.2344                   21293941.6724
   2073953.49647   1637001.25444  23955431.2194                   23955428.9494
 -18883846.44548 -14678461.08646  20531265.6174                   20531263.5314
 -13476228.07447 -10468002.34844  23707842.6414                   23707841.1214
  -8521838.21547  -6611114.86346  21725562.6804                   21725561.2344
 -21177221.85948 -16486750.68746  21885877.0944                   21885875.3164
 -26241810.39547 -20413714.82444  22720145.1564                   22720141.9494
 -12741850.28547  -9038048.87145  22584836.2034                   22584837.8014
   3747247.21146   3198027.63743  23548471.6414                   23548470.7344
 11  8 27  3  3 30.0000000  0  9G26G21G29G12G15G05G02G25G18
 -12567158.41848  -9767367.69945  21579612.3524                   21579611.0904
   3559564.69947   2794620.44544  24238133.1094                   24238131.6094
 -17386883.98048 -13511996.79746  20816128.3134                   20816126.5594
 -11839180.01247  -9192380.53944  24019362.5554                   24019361.3954
  -7057295.82048  -5469912.94546  22004256.0314                   22004254.3324
 -19554012.20348 -15221911.98846  22194763.7974                   22194761.8754
 -24646755.52747 -19170814.93744  23023673.8834                   23023670.8244
 -11129486.47747  -7781661.48445  22891659.0944                   22891660.2774
   5214854.24647   4341617.61743  23827747.3674                   23827746.7234
 11  8 27  3  4  0.0000000  0  9G26G21G29G12G15G05G02G25G18
 -12640783.48448  -9824737.83645  21565601.8834                   21565600.3554
   3469715.02747   2724607.80944  24221035.3054                   24221033.9804
 -17464924.63348 -13572807.67646  20801277.2734                   20801275.3634
 -11777557.00447  -9144362.67245  24031089.5474                   24031088.6884
  -7167842.74647  -5556053.35246  21983219.6954                   21983217.8324
 -19506046.44548 -15184536.07046  22203891.1414                   22203889.1954
 -24626986.49247 -19155410.51244  23027436.0164                   23027432.7304
 -11092272.07847  -7752663.24645  22898740.9844                   22898741.9144
   5107276.60946   4257790.97743  23807276.4844                   23807275.8284
 11  8 27  3  4 30.0000000  0  9G26G21G29G12G15G05G02G25G18
 -12713812.42248  -9881643.46945  21551705.1024                   21551703.7664
   3379825.50047   2654564.09844  24203929.8444                   24203928.0594
 -17542546.02048 -13633291.84046  20786506.5314                   20786504.6254
 -11715946.00447  -9096354.15244  24042813.2814                   24042813.0634
  -7278054.22347  -5641932.36346  21962246.9064                   21962245.5904
 -19457910.69148 -15147027.68745  22213051.1644                   22213049.0744
 -24607085.21547 -19139903.02044  23031222.6644                   23031219.2544
 -11054793.38347  -7723459.07845  22905872.5004                   22905873.8324
   4999936.62946   4174149.52343  23786850.5474                   23786849.2114
 11  8 27  3  5  0.0000000  0  9G26G21G29G12G15G05G02G25G18
 -12786246.77748  -9938085.78546  21537921.1724                   21537919.9694
   3289891.39147   2584485.65644  24186816.1024                   24186813.6804
 -17619749.78948 -13693450.59846  20771815.3914                   20771813.1294
 -11654354.13746  -9048360.53944  24054533.5864                   24054533.3754
  -7387931.14147  -5727550.69946  21941338.2424                   21941336.4534
 -19409611.36748 -15109391.84446  22222242.3594                   22222239.6994
 -24587055.43447 -19124295.42644  23035034.8984                   23035030.9694
 -11017057.48047  -7694054.48845  22913053.5394                   22913055.2664
   4892831.27746   4090690.91044  23766469.1174                   23766468.0394
 11  8 27  3  5 30.0000000  0  9G26G21G29G12G15G05G02G25G18
 -12858087.46148  -9994065.51645  21524250.5784                   21524248.9184
   3199909.63747   2514370.05944  24169692.9844                   24169691.0204
 -17696537.02048 -13753284.78947  20757203.1484                   20757201.0314
 -11592787.28146  -9000386.45343  24066249.6254                   24066249.1134
  -7497473.97747  -5812908.69946  21920492.4384                   21920490.6414
 -19361154.09048 -15071632.92246  22231463.2274                   22231460.9534
 -24566899.76646 -19108589.72344  23038869.2194                   23038866.8594
 -10979070.66447  -7664454.37545  22920282.1174                   22920284.1294
   4785957.83647   4007413.02044  23746130.8284                   23746130.2974
 11  8 27  3  6  0.0000000  0  9G26G21G29G12G15G05G02G25G18
 -12929325.95748 -10049575.98445  21510694.0394                   21510692.3794
   3109885.81347   2444221.69944  24152562.0314                   24152560.2974
 -17772899.48048 -13812787.98846  20742671.7194                   20742669.4694
 -11531242.03946  -8952429.21143  24077960.7814                   24077961.0394
  -7606673.55947  -5897999.24645  21899712.8364                   21899710.8674
 -19312534.90248 -15033747.84446  22240715.1644                   22240713.0594
 -24546611.69147 -19092780.82445  23042730.4144                   23042728.0744
 -10940829.94147  -7634656.43445  22927559.0084                   22927560.4804
   4679322.92247   3924320.98843  23725839.2034                   23725838.0234
 11  8 27  3  6 30.0000000  0  9G26G21G29G12G15G05G02G25G18
 -12999962.48848 -10104617.40245  21497252.6724                   21497250.4454
   3019816.93446   2374038.26244  24135422.7734                   24135420.1254
 -17848837.72348 -13871960.62146  20728221.2974                   20728219.3164
 -11469724.06246  -8904493.18043  24089667.6954                   24089666.7624
  -7715529.68047  -5982822.15246  21878997.8364                   21878996.1294
 -19263758.36748 -14995740.15646  22249996.7114                   22249994.8204
 -24526193.10947 -19076870.24644  23046615.9924                   23046613.2154
 -10902340.99648  -7604665.06245  22934883.2424                   22934884.5474
   4572925.04347   3841413.64544  23705592.7584                   23705590.9614
 11  8 27  3  7  0.0000000  0  9G26G21G29G12G15G05G02G25G18
 -13069996.71948 -10159189.49646  21483925.3984                   21483924.1804
   2929700.87947   2303818.04744  24118273.7584                   24118271.9454
 -17924351.59448 -13930802.58246  20713851.5864                   20713849.2304
 -11408238.15647  -8856582.09043  24101368.2424                   24101366.2734
  -7824041.33248  -6067376.64546  21858349.2664                   21858347.3054
 -19214828.89147 -14957613.28546  22259307.8054                   22259305.6454
 -24505645.93747 -19060859.50444  23050526.8284                   23050522.7664
 -10863608.95347  -7574484.27045  22942253.8054                   22942255.1374
   4466762.80947   3758689.92244  23685390.7734                   23685389.2584
 11  8 27  3  7 30.0000000  0  9G26G21G29G12G15G05G02G25G18
 -13139409.88748 -10213277.64846  21470716.5164                   21470715.3014
   2839554.65647   2233574.34044  24101118.9694                   24101117.3054
 -17999422.13748 -13989299.07846  20699565.7974                   20699563.7774
 -11346770.05947  -8808684.86344  24113065.6024                   24113063.6954
  -7932188.79347  -6151647.34446  21837769.1254                   21837767.5634
 -19165731.89847 -14919355.89546  22268650.7194                   22268648.5944
 -24484952.60947 -19044734.85244  23054464.0234                   23054460.6564
 -10824620.12147  -7544103.39145  22949673.1094                   22949674.3554
   4360853.32447   3676163.14544  23665236.4384                   23665235.4024
 11  8 27  3  8  0.0000000  0  9G26G21G29G12G15G05G02G25G18
 -13208208.14848 -10266886.64846  21457624.6414                   21457623.1684
   2749369.02747   2163299.87944  24083957.8594                   24083955.4694
 -18074056.10248 -14047455.39847  20685363.8364                   20685361.5394
 -11285331.61347  -8760810.77044  24124757.0084                   24124755.8164
  -8039978.05948  -6235638.94546  21817257.5864                   21817255.8134
 -19116478.48447 -14880976.59845  22278022.9144                   22278020.9344
 -24464121.36347 -19028502.72744  23058428.1414                   23058424.3054
 -10785386.26248  -7513531.56245  22957139.0944                   22957140.8404
   4255188.73047   3593827.18444  23645129.1414                   23645127.9454
 11  8 27  3  8 30.0000000  0  9G26G21G29G12G15G05G02G25G18
 -13276405.37548 -10320027.30145  21444646.9304                   21444645.0704
   2659127.55147   2092981.93844  24066784.8524                   24066783.5554
 -18148267.15648 -14105282.17247  20671241.6254                   20671239.6254
 -11223941.85547  -8712974.62544  24136439.4774                   24136438.6134
  -8147422.15648  -6319361.57046  21796811.4064                   21796809.4694
 -19067086.73447 -14842489.51645  22287422.2584                   22287419.9614
 -24443167.67647 -19012175.18045  23062415.3524                   23062412.7664
 -10745926.53947  -7482783.75445  22964648.3984                   22964649.8874
   4149753.56347   3511669.98444  23625064.9454                   23625064.2814
 11  8 27  3  9  0.0000000  0  9G26G21G29G12G15G05G02G25G18
 -13343985.42648 -10372687.06245  21431786.9694                   21431785.2304
   2568844.59046   2022631.62943  24049604.8754                   24049602.5904
 -18222039.48848 -14162767.08647  20657203.3594                   20657201.0164
 -11162589.32847  -8665167.50044  24148114.1884                   24148113.6764
  -8254504.13747  -6402802.03946  21776434.4454                   21776432.0864
 -19017545.23847 -14803885.77045  22296849.7584                   22296847.9344
 -24422077.26247 -18995741.12145  23066429.0004                   23066426.1524
 -10706230.12147  -7451851.49245  22972202.0704                   22972203.8714
   4044562.54747   3429703.05144  23605048.4694                   23605047.4494
 11  8 27  3  9 30.0000000  0  9G26G21G29G12G15G05G02G25G18
 -13410947.24648 -10424865.06646  21419044.2584                   21419042.7194
   2478518.54747   1952247.78543  24032415.8914                   24032413.5904
 -18295372.30548 -14219909.51647  20643248.4384                   20643246.3484
 -11101277.65647  -8617392.21944  24159781.1254                   24159781.3404
  -8361221.94948  -6485958.73046  21756126.9534                   21756124.8834
 -18967857.03947 -14765167.69545  22306304.8444                   22306303.2194
 -24400850.68747 -18979200.91844  23070468.0234                   23070464.4384
 -10666301.26248  -7420738.10245  22979800.1094                   22979802.1524
   3939615.02347   3347925.84844  23585078.2114                   23585075.9454
 11  8 27  3 10  0.0000000  0  9G26G21G29G12G15G05G02G25G18
 -13477295.56648 -10476565.02046  21406418.7114                   21406417.3164
   2388142.39547   1881824.88744  24015217.9304                   24015216.4024
 -18368270.66448 -14276713.41047  20629376.2814                   20629374.0394
 -11040016.87946  -8569656.62544  24171438.4844                   24171438.3364
  -8467580.18048  -6568835.23846  21735887.5394                   21735885.2734
 -18918031.35247 -14726342.47745  22315786.7814                   22315784.8794
 -24379494.54347 -18962559.78144  23074531.6484                   23074528.6684
 -10626150.02047  -7389451.43445  22987440.9534                   22987442.2664
   3834904.55947   3266333.35544  23565151.4224                   23565150.0004
 11  8 27  3 10 30.0000000  0  9G26G21G29G12G15G05G02G25G18
 -13543019.69548 -10527778.59046  21393911.6174                   21393910.4264
   2297724.06347   1811369.13343  23998011.8444                   23998009.4574
 -18440723.57048 -14333170.19147  20615588.6954                   20615586.8364
 -10978801.08646  -8521956.08244  24183087.9774                   24183087.2424
  -8573567.52047  -6651422.73446  21715718.6484                   21715716.5864
 -18868061.92247 -14687405.26645  22325295.3594                   22325293.5704
 -24357999.73047 -18945810.60544  23078622.4304                   23078619.0984
 -10585771.03947  -7357987.31645  22995124.9694                   22995125.4964
   3730440.28146   3184932.73844  23545271.7734                   23545271.4694
 11  8 27  3 11  0.0000000  0  9G26G21G29G12G15G05G02G25G18
 -13608124.50448 -10578509.57445  21381522.7504                   21381521.1564
   2207257.30146   1740875.62544  23980796.6024                   23980794.8594
 -18512735.52348 -14389283.37147  20601885.4224                   20601883.5234
 -10917639.89546  -8474298.09044  24194726.4384                   24194725.9844
  -8679187.23848  -6733723.77346  21695619.7344                   21695618.3674
 -18817957.68747 -14648363.00845  22334830.1174                   22334828.3754
 -24336372.23447 -18928958.00044  23082737.6884                   23082734.8094
 -10545173.98447  -7326353.27045  23002850.1564                   23002851.5634
   3626216.28946   3103719.30944  23525439.1954                   23525437.8794
 11  8 27  3 11 30.0000000  0  9G26G21G29G12G15G05G02G25G18
 -13672603.62948 -10628753.00845  21369253.0474                   21369251.2584
   2116745.28147   1670346.86744  23963572.8524                   23963571.0234
 -18584301.46948 -14445049.02046  20588267.1884                   20588264.7154
 -10856532.37147  -8426681.91844  24206355.2034                   24206354.0634
  -8784433.19148  -6815733.55946  21675592.4614                   21675590.3284
 -18767716.77747 -14609214.25045  22344390.6484                   22344388.7734
 -24314607.93047 -18911998.80544  23086879.4774                   23086876.5394
 -10504358.27047  -7294548.84045  23010616.7424                   23010618.4844
   3522237.07446   3022696.64144  23505652.5004                   23505650.8754
 11  8 27  3 12  0.0000000  0  9G26G21G29G12G15G05G02G25G18
 -13736463.78948 -10678514.13346  21357100.3054                   21357099.2894
   2026179.88347   1599776.51244  23946338.6884                   23946336.7074
 -18655427.12148 -14500471.59847  20574732.0704                   20574729.8164
 -10795489.67247  -8379116.23844  24217970.7894                   24217970.2624
  -8889310.74248  -6897456.30546  21655634.5234                   21655632.6484
 -18717349.80147 -14569967.25445  22353975.0314                   22353973.2384
 -24292714.73847 -18894939.17244  23091045.7734                   23091042.5474
 -10463335.24247  -7262582.85245  23018423.8134                   23018424.8794
   3418494.55947   2941858.37944  23485911.5394                   23485909.5904
 11  8 27  3 12 30.0000000  0  9G26G21G29G12G15G05G02G25G18
 -13799684.88348 -10727777.28946  21345069.8204                   21345068.2544
   1935578.69947   1529178.26244  23929098.3134                   23929096.0594
 -18726093.07848 -14555535.94947  20561284.7114                   20561282.6764
 -10734496.39547  -8331589.05544  24229577.6724                   24229577.3204
  -8993799.17648  -6978875.81646  21635750.8984                   21635749.4384
 -18666841.16447 -14530609.87145  22363586.7664                   22363584.6024
 -24270674.48847 -18877764.95344  23095239.5164                   23095236.2854
 -10422090.35947  -7230443.97745  23026272.2974                   23026273.5704
   3315007.11747   2861218.87944  23466218.1644                   23466216.0274
 11  8 27  3 13  0.0000000  0  9G26G21G29G12G15G05G02G25G18
 -13862278.56648 -10776551.55146  21333158.8204                   21333157.1684
   1844928.52047   1458541.81644  23911847.6254                   23911845.4384
 -18796310.45348 -14610250.77347  20547923.1334                   20547920.7734
 -10673568.76746  -8284113.01043  24241171.4304                   24241171.6374
  -9097909.32848  -7060000.57446  21615939.6954                   21615938.0234
 -18616206.38347 -14491154.19945  22373222.1254                   22373219.8364
 -24248499.97747 -18860486.12144  23099459.0004                   23099456.0354
 -10380640.15247  -7198145.13745  23034159.8134                   23034160.8554
   3211761.93046   2780768.17244  23446571.1174                   23446569.1954
 11  8 27  3 13 30.0000000  0  9G26G21G29G12G15G05G02G25G18
 -13924240.16848 -10824833.28146  21321367.7344                   21321366.5474
   1754231.35947   1387868.79744  23894587.8524                   23894585.9104
 -18866074.30148 -14664612.19147  20534647.3524                   20534645.5084
 -10612706.84846  -8236688.18443  24252753.2814                   24252752.9804
  -9201635.39148  -7140826.03946  21596201.3134                   21596199.6604
 -18565445.13347 -14451599.97345  22382881.5784                   22382879.5784
 -24226187.96047 -18843100.14644  23103705.7814                   23103701.9804
 -10338985.07048  -7165686.63745  23042087.0784                   23042087.7704
   3108762.14147   2700508.68444  23426970.3444                   23426968.6334
 11  8 27  3 14  0.0000000  0  9G26G21G29G12G15G05G02G25G18
 -13985575.78548 -10872627.22346  21309696.2894                   21309694.4184
   1663478.99647   1317152.74644  23877318.7344                   23877316.8244
 -18935391.66848 -14718625.69947  20521456.5784                   20521454.3134
 -10551921.18046  -8189322.76643  24264319.8674                   24264320.4614
  -9304983.08248  -7221356.66846  21576534.5554                   21576532.8674
 -18514567.49247 -14411955.05945  22392563.2584                   22392561.2424
 -24203746.21147 -18825613.08644  23107976.4614                   23107972.7734
 -10297136.31247  -7133077.21145  23050049.7664                   23050051.2544
   3006000.25847   2620434.55544  23407415.4694                   23407413.7894
 11  8 27  3 14 30.0000000  0  9G26G21G29G12G15G05G02G25G18
 -14046272.89548 -10919923.64146  21298145.7194                   21298144.2584
   1572682.19947   1246402.07444  23860041.1094                   23860038.4884
 -19004249.21948 -14772280.91447  20508353.3054                   20508351.2734
 -10491204.17646  -8142010.89843  24275874.6804                   24275874.1994
  -9407938.41848  -7301581.56646  21556942.7114                   21556940.7544
 -18463564.84047 -14372212.72745  22402268.6564                   22402266.7074
 -24181163.29347 -18808016.01244  23112273.3594                   23112269.9694
 -10255086.09848  -7100310.84045  23058052.0944                   23058053.7814
   2903487.76647   2540554.76644  23387908.3914                   23387907.0554
 11  8 27  3 15  0.0000000  0  9G26G21G29G12G15G05G02G25G18
 -14106326.80948 -10966718.86346  21286717.8674                   21286716.1484
   1481843.85947   1175619.00844  23842755.0944                   23842752.7544
 -19072642.73848 -14825574.55147  20495338.6954                   20495336.5784
 -10430555.97346  -8094752.62143  24287415.6254                   24287415.1214
  -9510496.21148  -7381496.69146  21537426.8984                   21537424.8634
 -18412436.82847 -14332372.71145  22411997.9144                   22411996.1844
 -24158436.28947 -18790306.66845  23116598.5554                   23116595.6054
 -10212835.19147  -7067388.06645  23066091.9534                   23066093.6764
   2801227.39547   2460871.42644  23368448.9454                   23368447.3484
 11  8 27  3 15 30.0000000  0  9G26G21G29G12G15G05G02G25G18
 -14165740.53947 -11013015.24645  21275411.7894                   21275409.9964
   1390958.57447   1104799.40644  23825460.3054                   23825457.9774
 -19140574.91048 -14878508.69147  20482411.5784                   20482409.3324
 -10369984.08246  -8047553.83243  24298942.2734                   24298941.9264
  -9612658.51248  -7461103.64146  21517985.9694                   21517984.0704
 -18361190.15647 -14292440.23445  22421750.0394                   22421747.9264
 -24135569.61747 -18772488.48444  23120949.4384                   23120946.5394
 -10170391.48847  -7034315.06245  23074168.9774                   23074169.8094
   2699214.93047   2381381.25844  23349036.8834                   23349034.9064
 11  8 27  3 16  0.0000000  0  9G26G21G29G12G15G05G02G25G18
 -14224508.82448 -11058808.68746  21264228.5084                   21264226.5634
   1300030.02047   1033946.07444  23808156.6804                   23808153.9964
 -19208040.23448 -14931079.05947  20469573.0634                   20469571.1994
 -10309487.31646  -8000413.53543  24310453.9534                   24310453.9654
  -9714419.13748  -7540397.59046  21498621.0944                   21498619.3284
 -18309823.91447 -14252414.59045  22431524.7344                   22431522.7774
 -24112559.07047 -18754558.22345  23125328.2274                   23125324.5594
 -10127754.50447  -7001091.45745  23082282.6644                   23082283.4614
   2597454.47347   2302087.44944  23329672.2194                   23329670.4344
 11  8 27  3 16 30.0000000  0  9G26G21G29G12G15G05G02G25G18
 -14282631.40648 -11104098.97346  21253168.2734                   21253166.4064
   1209056.44147    963057.65644  23790845.2194                   23790842.6884
 -19275038.50848 -14983285.48047  20456823.6174                   20456821.8754
 -10249070.10946  -7953335.23443  24321951.5394                   24321950.7034
  -9815776.79348  -7619377.54346  21479333.8364                   21479331.6844
 -18258341.03147 -14212298.05145  22441321.4224                   22441319.6564
 -24089405.93747 -18736516.84845  23129733.7194                   23129731.2734
 -10084929.00847  -6967720.96145  23090431.9924                   23090433.1214
   2495944.80147   2222989.08244  23310355.0944                   23310353.5514
 11  8 27  3 17  0.0000000  0  9G26G21G29G12G15G05G02G25G18
 -14340107.10248 -11148885.19546  21242230.6024                   21242228.8404
   1118037.47347    892133.88344  23773524.7894                   23773521.9614
 -19341568.31248 -15035126.86747  20444163.3444                   20444161.3324
 -10188735.36747  -7906321.21143  24333432.9224                   24333431.7544
  -9916729.27748  -7698041.77046  21460123.5164                   21460121.4064
 -18206744.46147 -14172092.92645  22451139.9614                   22451138.2114
 -24066110.07447 -18718364.24244  23134167.1414                   23134164.4804
 -10041918.65247  -6934206.42645  23098616.6174                   23098618.1294
   2394686.01647   2144086.19144  23291086.4774                   23291084.4224
 11  8 27  3 17 30.0000000  0  9G26G21G29G12G15G05G02G25G18
 -14396937.87148 -11193168.88746  21231416.0004                   21231414.8164
   1026969.32447    821171.75844  23756194.5554                   23756192.3794
 -19407631.57848 -15086604.71147  20431592.1644                   20431590.3984
 -10128489.74646  -7859376.62543  24344896.6484                   24344896.5554
 -10017277.87148  -7776391.27046  21440989.9224                   21440987.3094
 -18155039.82447 -14131803.58645  22460979.0944                   22460977.0864
 -24042674.93747 -18700103.11344  23138626.8134                   23138624.4884
  -9998730.19548  -6900553.09045  23106835.3444                   23106836.6134
   2293675.08247   2065376.43044  23271864.1954                   23271862.4454
 11  8 27  3 18  0.0000000  0  9G26G21G29G12G15G05G02G25G18
 -14453121.19948 -11236948.09045  21220724.7504                   21220723.0474
    935852.44947    750171.67244  23738855.5784                   23738853.3484
 -19473225.67648 -15137716.98047  20419110.0164                   20419108.0824
 -10068335.02346  -7812502.90643  24356344.7584                   24356343.0744
 -10117418.44148  -7854422.84846  21421933.2974                   21421931.3914
 -18103228.50447 -14091431.12545  22470838.5234                   22470836.6914
 -24019098.93447 -18681732.23044  23143113.2344                   23143110.7464
  -9955366.00048  -6866762.83645  23115087.5554                   23115088.8284
   2192912.87947   1986860.48444  23252690.0864                   23252688.0514
 11  8 27  3 18 30.0000000  0  9G26G21G29G12G15G05G02G25G18
 -14508641.28148 -11280210.46546  21210159.5394                   21210158.0664
    844701.06347    679144.71144  23721510.0944                   23721507.8554
 -19538334.51248 -15188451.11747  20406720.1174                   20406717.7664
 -10008259.77746  -7765691.09843  24367775.6414                   24367776.0124
 -10217134.52748  -7932123.65246  21402957.5554                   21402955.9384
 -18051298.45747 -14050966.15645  22480720.3914                   22480718.4614
 -23995367.69547 -18663240.38744  23147629.0004                   23147625.9064
  -9911815.04347  -6832827.03545  23123374.6804                   23123376.0744
   2092413.95347   1908549.67644  23233565.4614                   23233563.9734
 11  8 27  3 19  0.0000000  0  9G26G21G29G12G15G05G02G25G18
 -14563517.23848 -11322970.92646  21199717.2504                   21199715.4304
    753494.45347    608074.69144  23704154.0944                   23704151.1684
 -19602976.80948 -15238821.72347  20394419.1024                   20394417.3554
  -9948287.37946  -7718959.43043  24379188.6334                   24379188.3054
 -10316444.05148  -8009507.66446  21384059.4384                   21384057.3874
 -17999272.67247 -14010426.57845  22490620.2424                   22490618.5784
 -23971501.41047 -18644643.32444  23152170.7194                   23152167.8014
  -9868101.20348  -6798764.32045  23131693.3594                   23131694.7504
   1992157.91447   1830428.15644  23214487.3834                   23214485.9804
 11  8 27  3 19 30.0000000  0  9G26G21G29G12G15G05G02G25G18
 -14617733.80148 -11365217.57446  21189400.3284                   21189398.3444
    662245.90247    536972.01644  23686790.3284                   23686787.9264
 -19667137.58648 -15288817.11347  20382209.9534                   20382207.6844
  -9888406.93446  -7672299.46543  24390583.5784                   24390583.7194
 -10415331.28948  -8086562.61746  21365242.2424                   21365240.3244
 -17947139.62947 -13969803.42645  22500541.2274                   22500539.2974
 -23947486.10546 -18625930.13744  23156740.0314                   23156737.7704
  -9824214.34448  -6764566.78145  23140044.5864                   23140045.9144
   1892158.69547   1752506.73844  23195458.0004                   23195456.7424
 11  8 27  3 20  0.0000000  0  9G26G21G29G12G15G05G02G25G18
 -14671300.05148 -11406957.48446  21179206.8524                   21179205.4144
    570945.49647    465828.90644  23669415.5084                   23669413.7814
 -19730825.23448 -15338443.83647  20370090.5554                   20370088.3794
  -9828631.41046  -7625721.20743  24401958.5474                   24401957.7974
 -10513803.48448  -8163294.15646  21346503.3984                   21346501.4844
 -17894911.37947 -13929106.08245  22510479.9454                   22510477.8754
 -23923331.75846 -18607108.58244  23161337.2894                   23161334.7344
  -9780167.60947  -6730244.66845  23148425.8524                   23148427.7894
   1792407.00447   1674778.22344  23176476.2344                   23176474.5704
 11  8 27  3 20 30.0000000  0  9G26G21G29G12G15G05G02G25G18
 -14724211.34048 -11448187.03546  21169138.0394                   21169136.2854
    479595.94947    394647.52044  23652032.3524                   23652030.0124
 -19794035.60248 -15387698.65247  20358061.8284                   20358059.6414
  -9768960.40646  -7579224.39844  24413313.9844                   24413313.1724
 -10611854.97748  -8239697.88346  21327844.5864                   21327842.9774
 -17842587.26247 -13888334.04745  22520436.7114                   22520434.9924
 -23899035.10246 -18588176.16444  23165960.8594                   23165958.1294
  -9735961.33647  -6695798.25045  23156838.5944                   23156840.1994
   1692905.50847   1597244.62944  23157541.7114                   23157539.7384
 11  8 27  3 21  0.0000000  0  9G26G21G29G12G15G05G02G25G18
 -14776462.88748 -11488902.51246  21159194.7344                   21159192.9494
    388200.40247    323430.28944  23634640.1564                   23634637.8324
 -19856763.01248 -15436577.13347  20346125.1484                   20346123.0634
  -9709393.09446  -7532808.40644  24424649.2194                   24424649.7624
 -10709480.12948  -8315769.39146  21309267.2424                   21309265.2034
 -17790166.16847 -13847486.43445  22530412.0474                   22530410.5474
 -23874591.99646 -18569129.59444  23170612.3594                   23170608.7854
  -9691595.34047  -6661227.37545  23165280.7814                   23165282.1484
   1593657.89547   1519908.89844  23138655.0394                   23138653.7894
 11  8 27  3 21 30.0000000  0  9G26G21G29G12G15G05G02G25G18
 -14828054.94548 -11529104.10546  21149377.3914                   21149375.6764
    296757.21947    252175.92644  23617239.4924                   23617236.5824
 -19919007.32048 -15485079.18047  20334280.4224                   20334278.2154
  -9649933.86346  -7486476.60944  24435963.7114                   24435964.5744
 -10806677.99248  -8391507.94946  21290771.3284                   21290769.4774
 -17737651.45747 -13806565.87945  22540405.3984                   22540403.6054
 -23850003.83246 -18549969.98444  23175291.0704                   23175288.1134
  -9647074.34847  -6626535.72744  23173752.8364                   23173754.0744
   1494663.10247   1442770.14844  23119817.2584                   23119815.7934
 11  8 27  3 22  0.0000000  0  9G26G21G29G12G15G05G02G25G18
 -14878986.13748 -11568790.72346  21139685.9064                   21139683.6294
    205266.12547    180884.22744  23599829.0944                   23599826.5864
 -19980767.06648 -15533203.63347  20322527.9694                   20322525.8984
  -9590585.93446  -7440231.54744  24447257.1884                   24447257.7814
 -10903446.01248  -8466911.58246  21272356.8914                   21272355.0744
 -17685045.52047 -13765574.23045  22550416.0394                   22550413.6294
 -23825270.58247 -18530697.33244  23179997.9064                   23179994.1804
  -9602401.77347  -6591725.94145  23182254.0164                   23182255.8874
   1395921.19947   1365828.46144  23101026.9844                   23101025.7664
 11  8 27  3 22 30.0000000  0  9G26G21G29G12G15G05G02G25G18
 -14929253.84448 -11607960.33646  21130119.5004                   21130117.7934
    113728.69947    109556.42644  23582410.3054                   23582407.8754
 -20042039.55148 -15580948.41447  20310868.2344                   20310866.5394
  -9531350.15247  -7394073.87944  24458529.3134                   24458530.0434
 -10999780.28948  -8541977.22346  21254024.8054                   21254023.0634
 -17632349.13347 -13724512.10245  22560444.0784                   22560441.8554
 -23800390.09447 -18511309.97344  23184732.6564                   23184729.0004
  -9557579.37947  -6556799.44145  23190783.4454                   23190785.0394
   1297434.08247   1289085.32044  23082285.6804                   23082284.3634
 11  8 27  3 23  0.0000000  0  9G26G21G29G12G15G05G02G25G18
 -14978853.38348 -11646609.30946  21120681.1254                   21120679.4184
     22148.05147     38194.94544  23564982.8834                   23564980.4844
 -20102819.60248 -15628309.48047  20299302.1174                   20299299.9964
  -9472225.97746  -7348003.19544  24469781.1174                   24469780.8484
 -11095675.19548  -8616700.49646  21235776.9614                   21235774.7234
 -17579560.63347 -13683378.20345  22570488.8204                   22570486.5554
 -23775359.05147 -18491805.26644  23189495.8284                   23189491.9614
  -9512607.20747  -6521756.20344  23199340.5004                   23199342.6914
   1199205.09047   1212543.29344  23063593.2584                   23063591.2974
 11  8 27  3 23 30.0000000  0  9G26G21G29G12G15G05G02G25G18
 -15027787.78548 -11684739.98046  21111369.1954                   21111367.8204
    -69480.03547    -33203.48844  23547546.8594                   23547544.7544
 -20163110.12548 -15675289.09047  20287829.6094                   20287827.4964
  -9413220.02047  -7302024.62944  24481009.6174                   24481009.3014
 -11191132.34448  -8691082.65646  21217611.9224                   21217610.0354
 -17526686.54347 -13642177.62145  22580550.6024                   22580548.5314
 -23750181.23847 -18472186.19544  23194287.4304                   23194283.6334
  -9467492.57047  -6486601.96944  23207926.3134                   23207927.6804
   1101229.98447   1136199.08644  23044949.3834                   23044947.1414
 11  8 27  3 24  0.0000000  0  9G26G21G29G12G15G05G02G25G18
 -15076057.83648 -11722352.98846  21102183.7734                   21102181.9694
   -161157.70347   -104640.56244  23530100.9144                   23530098.3134
 -20222911.50448 -15721887.57047  20276449.4694                   20276447.4264
  -9354337.21946  -7256142.00844  24492214.3284                   24492214.6994
 -11286151.52348  -8765123.52746  21199530.6484                   21199527.9144
 -17473731.14547 -13600913.66845  22590627.8444                   22590625.8714
 -23724858.25047 -18452454.00044  23199105.4774                   23199102.8484
  -9422240.86347  -6451340.91844  23216537.5474                   23216538.7854
   1003507.13347   1060051.46944  23026353.5314                   23026350.9024
 11  8 27  3 24 30.0000000  0  9G26G21G29G12G15G05G02G25G18
 -15123659.03148 -11759444.79746  21093125.4064                   21093123.7304
   -252881.75847   -176113.76644  23512646.0864                   23512643.8794
 -20282218.35248 -15768100.68747  20265163.6334                   20265161.9064
  -9295576.68746  -7210354.69143  24503395.4614                   24503395.8444
 -11380727.01648  -8838818.69546  21181532.9454                   21181530.6884
 -17420693.00047 -13559585.23445  22600720.4774                   22600718.2664
 -23699386.43447 -18432605.84044  23203952.3914                   23203949.2344
  -9376851.77347  -6415972.84844  23225175.1884                   23225176.6484
    906040.24247    984103.30544  23007805.7814                   23007804.1844
 11  8 27  3 25  0.0000000  0  9G26G21G29G12G15G05G02G25G18
 -15170590.82448 -11796015.00446  21084194.7814                   21084193.1294
   -344652.71147   -247623.53544  23495182.9844                   23495180.2464
 -20341030.10548 -15813928.02047  20253972.2734                   20253970.2704
  -9236941.86346  -7164665.35943  24514554.1724                   24514553.8054
 -11474857.08647  -8912166.76646  21163620.7504                   21163619.0234
 -17367574.92647 -13518194.52345  22610828.5004                   22610826.7154
 -23673766.33247 -18412642.15244  23208827.6954                   23208824.3404
  -9331329.35547  -6380500.85545  23233836.8054                   23233838.6954
    808828.78147    908354.14544  22989307.0864                   22989305.2424
 11  8 27  3 25 30.0000000  0  9G26G21G29G12G15G05G02G25G18
 -15216857.52748 -11832066.95346  21075390.6884                   21075389.0204
   -436476.04747   -319174.10944  23477709.1334                   23477707.2974
 -20399350.85948 -15859372.75047  20242874.2584                   20242871.8914
  -9178440.54746  -7119080.03143  24525687.1564                   24525686.0394
 -11568544.02047  -8985169.54746  21145792.5944                   21145790.8594
 -17314384.16447 -13476747.17245  22620950.3754                   22620948.4264
 -23648002.66046 -18392566.59044  23213730.5234                   23213727.3674
  -9285682.05947  -6344931.56245  23242523.9224                   23242525.5354
    711867.64847    832800.05944  22970855.5394                   22970853.8164
 11  8 27  3 26  0.0000000  0  9G26G21G29G12G15G05G02G25G18
 -15262450.56648 -11867593.96946  21066714.1644                   21066712.3164
   -528344.37547   -390759.75844  23460227.3754                   23460225.1604
 -20457171.14848 -15904427.51647  20231871.3914                   20231869.0204
  -9120068.07046  -7073595.05542  24536794.2504                   24536793.7194
 -11661778.61348  -9057819.85546  21128051.0164                   21128048.8914
 -17261115.42647 -13435239.04745  22631087.3524                   22631085.1764
 -23622087.66046 -18372373.12544  23218662.0704                   23218659.3284
  -9239905.69147  -6309261.68444  23251234.8834                   23251236.3364
    615164.45347    757446.96144  22952454.5634                   22952452.3204
 11  8 27  3 26 30.0000000  0  9G26G21G29G12G15G05G02G25G18
 -15307368.30948 -11902594.77046  21058166.7504                   21058164.2704
   -620257.21547   -462380.07444  23442737.1724                   23442734.1414
 -20514488.99248 -15949090.77747  20220964.2194                   20220962.0204
  -9061826.35546  -7028211.93443  24547877.6414                   24547877.0864
 -11754557.35248  -9130114.94146  21110395.2584                   21110393.4414
 -17207770.14147 -13393671.29345  22641238.6484                   22641236.2384
 -23596020.24646 -18352060.86344  23223622.7584                   23223619.7274
  -9194002.75847  -6273493.18044  23259970.2584                   23259971.4264
    518719.71147    682295.26644  22934101.1334                   22934099.1724
 11  8 27  3 27  0.0000000  0  9G26G21G29G12G15G05G02G25G18
 -15351613.15648 -11937071.23446  21049747.1804                   21049745.3014
   -712217.71147   -534037.53944  23425237.2814                   23425235.2154
 -20571306.84848 -15993364.41847  20210151.8674                   20210149.8524
  -9003721.42646  -6982935.48443  24558934.5164                   24558933.1644
 -11846881.74648  -9202056.00046  21092826.4774                   21092824.6054
 -17154353.59847 -13352047.99645  22651403.1884                   22651401.3244
 -23569803.87546 -18331632.53144  23228611.0864                   23228608.8014
  -9147980.07048  -6237631.38344  23268728.2734                   23268728.7154
    422530.27047    607342.49644  22915796.9384                   22915794.7274
 11  8 27  3 27 30.0000000  0  9G26G21G29G12G15G05G02G25G18
 -15395180.69948 -11971019.93746  21041456.2504                   21041454.7114
   -804222.68747   -605729.66044  23407729.3674                   23407726.6024
 -20627619.60248 -16037244.47747  20199436.0784                   20199433.8914
  -8945752.56246  -6937765.02742  24569965.6094                   24569964.1294
 -11938746.03548  -9273638.53946  21075345.8054                   21075343.1804
 -17100864.35247 -13310368.06645  22661581.8524                   22661579.8984
 -23543434.67246 -18311085.14844  23233629.9304                   23233626.2624
  -9101837.37147  -6201676.06245  23277508.7424                   23277509.8244
    326599.55947    532591.35944  22897541.5554                   22897539.2774
 11  8 27  3 28  0.0000000  0  9G26G21G29G12G15G05G02G25G18
 -15438067.28148 -12004438.02346  21033295.1884                   21033293.7344
   -896269.24247   -677454.16044  23390213.1334                   23390210.9384
 -20683423.02348 -16080727.65247  20188816.8524                   20188815.4224
  -8887919.66846  -6892700.55543  24580971.0164                   24580969.8634
 -12030145.19148  -9344858.63346  21057952.9224                   21057950.3554
 -17047301.94947 -13268631.12545  22671774.6334                   22671772.3324
 -23516909.93746 -18290416.55944  23238676.4534                   23238673.6914
  -9055575.18047  -6165627.62545  23286312.5394                   23286313.1724
    230930.71947    458044.25444  22879336.0634                   22879334.4924
 11  8 27  3 28 30.0000000  0  9G26G21G29G12G15G05G02G25G18
 -13904857.42248 -10809729.02046  21325055.3134                   21325053.7734
    587059.14847    478386.20344  23672481.2274                   23672478.5274
 -19163300.51248 -14896216.59847  20478086.5394                   20478084.6954
  -7254813.85246  -5620150.66843  24891740.5704                   24891740.6884
 -10545660.53148  -8188117.31246  21340440.6884                   21340438.4844
 -15418256.59447 -11999245.14545  22981771.3444                   22981769.4144
 -21914816.66046 -17042032.20344  23543545.2584                   23543542.5864
  -7433785.02347  -4901895.05545  23594928.7504                   23594930.1804
   1710940.00847   1611298.29744  23160973.2734                   23160970.7934
 11  8 27  3 29  0.0000000  0  8G26G21G29G15G05G02G25G18
 -13946384.69548 -10842087.89146  21317153.0234                   21317151.5944
    494923.99647    406592.67644  23654948.4384                   23654946.3204
 -19218086.49648 -14938906.97747  20467661.5314                   20467658.8874
 -10636127.84048  -8258611.28146  21323225.6484                   21323223.3874
 -15364558.69147 -11957402.61345  22991989.9774                   22991987.9064
 -21887984.65246 -17021124.14844  23548650.1884                   23548648.4964
  -7387298.84447  -4865672.07045  23603774.2974                   23603776.4844
   1615789.69147   1537155.23844  23142866.1564                   23142864.2584
 11  8 27  3 29 30.0000000  0  8G26G21G29G15G05G02G25G18
 -13987232.32048 -10873917.19146  21309380.5864                   21309378.2034
    402743.17647    334763.53144  23637407.1334                   23637404.3914
 -19272362.93048 -14981200.29347  20457332.8834                   20457330.6724
 -10726126.91848  -8328740.39146  21306099.2034                   21306097.5084
 -15310797.22747 -11915510.56645  23002220.5394                   23002217.9884
 -21860999.84446 -17000097.04744  23553786.0004                   23553783.2304
  -7340706.66047  -4829366.48445  23612640.7814                   23612641.8714
   1520897.55547   1463213.36344  23124809.1954                   23124807.2344
 11  8 27  3 30  0.0000000  0  8G26G21G29G15G05G02G25G18
 -14027393.77748 -10905211.80946  21301737.9304                   21301735.8954
    310522.55947    262903.39144  23619857.8284                   23619856.0904
 -19326122.47748 -15023090.83647  20447102.7424                   20447100.1564
 -10815650.09448  -8398498.68046  21289063.3284                   21289061.4614
 -15256968.54347 -11873566.14545  23012463.2894                   23012460.7074
 -21833856.19547 -16978946.17644  23558951.9384                   23558948.4184
  -7294005.92647  -4792976.32844  23621527.5784                   23621528.7304
   1426269.55547   1389477.31644  23106801.4534                   23106799.7194
 11  8 27  3 30 30.0000000  0  8G26G21G29G15G05G02G25G18
 -14066869.07448 -10935971.73846  21294225.7274                   21294223.6604
    218261.15647    191011.44144  23602300.9064                   23602298.5004
 -19379365.09448 -15064578.58647  20436970.9304                   20436969.1524
 -10904695.75048  -8467884.87546  21272118.3284                   21272116.6954
 -15203075.57847 -11831571.60945  23022719.1804                   23022716.5824
 -21806554.27347 -16957671.96144  23564147.2034                   23564143.2814
  -7247200.83247  -4756504.85544  23630434.0084                   23630435.3524
   1331904.69147   1315946.29744  23088845.1094                   23088842.6334
 11  8 27  3 31  0.0000000  0  8G26G21G29G15G05G02G25G18
 -14105658.19948 -10966197.01646  21286844.3134                   21286842.2234
    125958.30547    119087.20744  23584736.2424                   23584733.8164
 -19432090.09048 -15105662.99247  20426937.8524                   20426935.3244
 -10993262.31648  -8536897.75046  21255265.0474                   21255263.0864
 -15149121.44947 -11789529.43045  23032986.3984                   23032984.2034
 -21779094.55147 -16936274.78844  23569372.1804                   23569369.1524
  -7200295.37947  -4719955.18444  23639360.1414                   23639361.7704
   1237802.09447   1242619.64544  23070937.1334                   23070935.3874
 11  8 27  3 31 30.0000000  0  8G26G21G29G15G05G02G25G18
 -14143757.55948 -10995884.79746  21279594.1804                   21279592.9104
     33617.32847     47133.27744  23567164.3594                   23567161.6484
 -19484292.94948 -15146340.53947  20417003.9064                   20417001.1914
 -11081344.72348  -8605533.35546  21238503.3054                   21238501.1724
 -15095104.14147 -11747438.02745  23043264.8444                   23043263.2934
 -21751473.84047 -16914752.16844  23574629.2194                   23574625.1334
  -7153289.63347  -4683327.34844  23648304.9224                   23648306.3914
   1143965.02347   1169499.91044  23053080.7424                   23053078.9694
 11  8 27  3 32  0.0000000  0  8G26G21G29G15G05G02G25G18
 -14181169.11748 -11025036.64546  21272475.0314                   21272473.5274
    -58764.31647    -24852.35544  23549584.8834                   23549581.9694
 -19535975.25448 -15186612.45747  20407168.9844                   20407166.8834
 -11168943.54748  -8673792.14846  21221833.8914                   21221831.9924
 -15041028.74247 -11705301.35245  23053555.2894                   23053553.9844
 -21723694.51647 -16893105.94144  23579915.1484                   23579911.7814
  -7106189.39847  -4646625.91444  23657268.1024                   23657269.5004
   1050390.81347   1096585.00844  23035273.8134                   23035271.7854
 11  8 27  3 32 30.0000000  0  8G26G21G29G15G05G02G25G18
 -14217897.64847 -11053656.27046  21265485.6174                   21265483.5904
   -151192.18447    -96873.99644  23531996.1174                   23531993.5314
 -19587140.78148 -15226481.68747  20397432.4454                   20397430.2504
 -11256061.87548  -8741676.52746  21205255.3984                   21205253.7034
 -14986902.33247 -11663124.94145  23063855.6094                   23063853.5394
 -21695761.21547 -16871339.72744  23585230.3444                   23585226.5554
  -7059003.27347  -4609857.52744  23666246.3754                   23666248.5204
    957074.30147   1023870.90244  23017516.4224                   23017514.9104
 11  8 27  3 33  0.0000000  0  8G26G21G29G15G05G02G25G18
 -14253943.48848 -11081743.91046  21258626.3754                   21258624.6134
   -243667.39547   -168932.55144  23514398.7274                   23514395.8484
 -19637789.41048 -15265948.14547  20387794.2894                   20387792.0434
 -11342698.98848  -8809185.93046  21188769.5784                   21188767.2504
 -14932728.05947 -11620911.19945  23074164.9144                   23074162.8444
 -21667675.21147 -16849454.53944  23590574.8914                   23590571.8484
  -7011735.67647  -4573025.69144  23675242.0634                   23675243.4734
    864014.18047    951356.57444  22999807.7814                   22999806.3484
 11  8 27  3 33 30.0000000  0  8G26G21G29G15G05G02G25G18
 -14289295.94548 -11109291.25446  21251899.2034                   21251897.6524
   -336179.49247   -241019.83644  23496794.2734                   23496791.5164
 -19687910.19548 -15305003.30147  20378256.8834                   20378254.3984
 -11428842.16048  -8876310.45346  21172376.8204                   21172374.8324
 -14878497.54347 -11578653.64845  23084484.1254                   23084482.3674
 -21639425.91847 -16827442.14144  23595950.4144                   23595947.6414
  -6964379.50047  -4536124.81644  23684253.3834                   23684254.5044
    771220.77047    879050.05144  22982149.4774                   22982148.1414
 11  8 27  3 34  0.0000000  0  8G26G21G29G15G05G02G25G18
 -14323953.14147 -11136296.84846  21245304.2894                   21245302.1334
   -428727.06647   -313134.77044  23479182.9064                   23479179.9494
 -19737500.73448 -15343645.26647  20368819.9534                   20368817.9224
 -11514488.10948  -8943047.53546  21156078.9454                   21156076.8134
 -14824211.45747 -11536352.80145  23094814.7194                   23094812.4774
 -21611011.88747 -16805301.35944  23601357.8054                   23601354.0274
  -6916936.66047  -4499156.37544  23693281.4774                   23693282.5824
    678695.43047    806952.43044  22964542.8834                   22964541.1954
